[[{"header":{"parameterUnit":"m.s-1","parameterCategory":1,"la1":30.6,"la2":28.766,"lo1":-90.7593,"lo2":-88.6598,"dy":0.0162,"dx":0.0183,"nx":116,"ny":114,"refTime":"2024-06-01T12:00:00:Z","depth":0,"parameterNumber":2,"parameterNumberName":"U-component_of_WINDS"},"data":[0.0,0.0,0.0,0.0,0.0,0.0,0.0,0.0,0.0,0.0,0.0,0.0,0.0,0.0,0.0,0.0,0.0,0.0,0.0,0.0,0.0,0.0,0.0,0.0,0.0,0.0,0.0,0.0,0.0,0.0,0.0,0.0,0.0,0.0,0.0,0.0,0.0,0.0,0.0,0.0,0.0,0.0,0.0,0.0,0.0,0.0,0.0,0.0,0.0,0.0,0.0,0.0,0.0,0.0,0.0,0.0,0.0,0.0,0.0,0.0,0.0,0.0,0.0,0.0,0.0,0.0,0.0,0.0,0.0,0.0,0.0,0.0,0.0,0.0,0.0,0.0,0.0,0.0,0.0,0.0,0.0,0.0,0.0,0.0,0.0,0.0,0.0,0.0,0.0,0.0,0.0,0.0,0.0,0.0,0.0,0.0,0.0,0.0,0.0,0.0,0.0,0.0,0.0,0.0,0.0,0.0,0.0,0.0,0.0,0.0,0.0,0.0,0.0,0.0,0.0,0.0,0.0,0.0,0.0,0.0,0.0,0.0,0.0,0.0,0.0,0.0,0.0,0.0,0.0,0.0,0.0,0.0,0.0,0.0,0.0,0.0,0.0,0.0,0.0,0.0,0.0,0.0,0.0,0.0,0.0,0.0,0.0,0.0,0.0,0.0,0.0,0.0,0.0,0.0,0.0,0.0,0.0,0.0,0.0,0.0,0.0,0.0,0.0,0.0,0.0,0.0,0.0,0.0,0.0,0.0,0.0,0.0,0.0,0.0,0.0,0.0,0.0,0.0,0.0,0.0,0.0,0.0,0.0,0.0,0.0,0.0,0.0,0.0,0.0,0.0,0.0,0.0,0.0,0.0,0.0,0.0,0.0,0.0,0.0,0.0,0.0,0.0,0.0,0.0,0.0,0.0,0.0,0.0,0.0,0.0,0.0,0.0,0.0,0.0,0.0,0.0,0.0,0.0,0.0,0.0,0.0,0.0,0.0,0.0,0.0,0.0,0.0,0.0,0.0,0.0,0.0,0.0,0.0,0.0,0.0,0.0,0.0,0.0,0.0,0.0,0.0,0.0,0.0,0.0,0.0,0.0,0.0,0.0,0.0,0.0,0.0,0.0,0.0,0.0,0.0,0.0,0.0,0.0,0.0,0.0,0.0,0.0,0.0,0.0,0.0,0.0,0.0,0.0,0.0,0.0,0.0,0.0,0.0,0.0,0.0,0.0,0.0,0.0,0.0,0.0,0.0,0.0,0.0,0.0,0.0,0.0,0.0,0.0,0.0,0.0,0.0,0.0,0.0,0.0,0.0,0.0,0.0,0.0,0.0,0.0,0.0,0.0,0.0,0.0,0.0,0.0,0.0,0.0,0.0,0.0,0.0,0.0,0.0,0.0,0.0,0.0,0.0,0.0,0.0,0.0,0.0,0.0,0.0,0.0,0.0,0.0,0.0,0.0,0.0,0.0,0.0,0.0,0.0,0.0,0.0,0.0,0.0,0.0,0.0,0.0,0.0,0.0,0.0,0.0,0.0,0.0,0.0,0.0,0.0,0.0,0.0,0.0,0.0,0.0,0.0,0.0,0.0,0.0,0.0,0.0,0.0,0.0,0.0,0.0,0.0,0.0,0.0,0.0,0.0,0.0,0.0,0.0,0.0,0.0,0.0,0.0,0.0,0.0,0.0,0.0,0.0,0.0,0.0,0.0,0.0,0.0,0.0,0.0,0.0,0.0,0.0,0.0,0.0,0.0,0.0,0.0,0.0,0.0,0.0,0.0,0.0,0.0,0.0,0.0,0.0,0.0,0.0,0.0,0.0,0.0,0.0,0.0,0.0,0.0,0.0,0.0,0.0,0.0,0.0,0.0,0.0,0.0,0.0,0.0,0.0,0.0,0.0,0.0,0.0,0.0,0.0,0.0,0.0,0.0,0.0,0.0,0.0,0.0,0.0,0.0,0.0,0.0,0.0,0.0,0.0,0.0,0.0,0.0,0.0,0.0,0.0,0.0,0.0,0.0,0.0,0.0,0.0,0.0,0.0,0.0,0.0,0.0,0.0,0.0,0.0,0.0,0.0,0.0,0.0,0.0,0.0,0.0,0.0,0.0,0.0,0.0,0.0,0.0,0.0,0.0,0.0,0.0,0.0,0.0,0.0,0.0,0.0,0.0,0.0,0.0,0.0,0.0,0.0,0.0,0.0,0.0,0.0,0.0,0.0,0.0,0.0,0.0,0.0,0.0,0.0,0.0,0.0,0.0,0.0,0.0,0.0,0.0,0.0,0.0,0.0,0.0,0.0,0.0,0.0,0.0,0.0,0.0,0.0,0.0,0.0,0.0,0.0,0.0,0.0,0.0,0.0,0.0,0.0,0.0,0.0,0.0,0.0,0.0,0.0,0.0,0.0,0.0,0.0,0.0,0.0,0.0,0.0,0.0,0.0,0.0,0.0,0.0,0.0,0.0,0.0,0.0,0.0,0.0,0.0,0.0,0.0,0.0,0.0,0.0,0.0,0.0,0.0,0.0,0.0,0.0,0.0,0.0,0.0,0.0,0.0,0.0,0.0,0.0,0.0,0.0,0.0,0.0,0.0,0.0,0.0,0.0,0.0,0.0,0.0,0.0,0.0,0.0,0.0,0.0,0.0,0.0,0.0,0.0,0.0,0.0,0.0,0.0,0.0,0.0,0.0,0.0,0.0,0.0,0.0,0.0,0.0,0.0,0.0,0.0,0.0,0.0,0.0,0.0,0.0,0.0,0.0,0.0,0.0,0.0,0.0,0.0,0.0,0.0,0.0,0.0,0.0,0.0,0.0,0.0,0.0,0.0,0.0,0.0,0.0,0.0,0.0,0.0,0.0,0.0,0.0,0.0,0.0,0.0,0.0,0.0,0.0,0.0,0.0,0.0,0.0,0.0,0.0,0.0,0.0,0.0,0.0,0.0,0.0,0.0,0.0,0.0,0.0,0.0,0.0,0.0,0.0,0.0,0.0,0.0,0.0,0.0,0.0,0.0,0.0,0.0,0.0,0.0,0.0,0.0,0.0,0.0,0.0,0.0,0.0,0.0,0.0,0.0,0.0,0.0,0.0,0.0,0.0,0.0,0.0,0.0,0.0,0.0,0.0,0.0,0.0,0.0,0.0,0.0,0.0,0.0,0.0,0.0,0.0,0.0,0.0,0.0,0.0,0.0,0.0,0.0,0.0,0.0,0.0,0.0,0.0,0.0,0.0,0.0,0.0,0.0,0.0,0.0,0.0,0.0,0.0,0.0,0.0,0.0,0.0,0.0,0.0,0.0,0.0,0.0,0.0,0.0,0.0,0.0,0.0,0.0,0.0,0.0,0.0,0.0,0.0,0.0,0.0,0.0,0.0,0.0,0.0,0.0,0.0,0.0,0.0,0.0,0.0,0.0,0.0,0.0,0.0,0.0,0.0,0.0,0.0,0.0,0.0,0.0,0.0,0.0,0.0,0.0,0.0,0.0,0.0,0.0,0.0,0.0,0.0,0.0,0.0,0.0,0.0,0.0,0.0,0.0,0.0,0.0,0.0,0.0,0.0,0.0,0.0,0.0,0.0,0.0,0.0,0.0,0.0,0.0,0.0,0.0,0.0,0.0,0.0,0.0,0.0,0.0,0.0,0.0,0.0,0.0,0.0,0.0,0.0,0.0,0.0,0.0,0.0,0.0,0.0,0.0,0.0,0.0,0.0,0.0,0.0,0.0,0.0,0.0,0.0,0.0,0.0,0.0,0.0,0.0,0.0,0.0,0.0,0.0,0.0,0.0,0.0,0.0,0.0,0.0,0.0,0.0,0.0,0.0,0.0,0.0,0.0,0.0,0.0,0.0,0.0,0.0,0.0,0.0,0.0,0.0,0.0,0.0,0.0,0.0,0.0,0.0,0.0,0.0,0.0,0.0,0.0,0.0,0.0,0.0,0.0,0.0,0.0,0.0,0.0,0.0,0.0,0.0,0.0,0.0,0.0,0.0,0.0,0.0,0.0,0.0,0.0,0.0,0.0,0.0,0.0,0.0,0.0,0.0,0.0,0.0,0.0,0.0,0.0,0.0,0.0,0.0,0.0,0.0,0.0,0.0,0.0,0.0,0.0,0.0,0.0,0.0,0.0,0.0,0.0,0.0,0.0,0.0,0.0,0.0,0.0,0.0,0.0,0.0,0.0,0.0,0.0,0.0,0.0,0.0,0.0,0.0,0.0,0.0,0.0,0.0,0.0,0.0,0.0,0.0,0.0,0.0,0.0,0.0,0.0,0.0,0.0,0.0,0.0,0.0,0.0,0.0,0.0,0.0,0.0,0.0,0.0,0.0,0.0,0.0,0.0,0.0,0.0,0.0,0.0,0.0,0.0,0.0,0.0,0.0,0.0,0.0,0.0,0.0,0.0,0.0,0.0,0.0,0.0,0.0,0.0,0.0,0.0,0.0,0.0,0.0,0.0,0.0,0.0,0.0,0.0,0.0,0.0,0.0,0.0,0.0,0.0,0.0,0.0,0.0,0.0,0.0,0.0,0.0,0.0,0.0,0.0,0.0,0.0,0.0,0.0,0.0,0.0,0.0,0.0,0.0,0.0,0.0,0.0,0.0,0.0,0.0,0.0,0.0,0.0,0.0,0.0,0.0,0.0,0.0,0.0,0.0,0.0,0.0,0.0,0.0,0.0,0.0,0.0,0.0,0.0,0.0,0.0,0.0,0.0,0.0,0.0,0.0,0.0,0.0,0.0,0.0,0.0,0.0,0.0,0.0,0.0,0.0,0.0,0.0,0.0,0.0,0.0,0.0,0.0,0.0,0.0,0.0,0.0,0.0,0.0,0.0,0.0,0.0,0.0,0.0,0.0,0.0,0.0,0.0,0.0,0.0,0.0,0.0,0.0,0.0,0.0,0.0,0.0,0.0,0.0,0.0,0.0,0.0,0.0,0.0,0.0,0.0,0.0,0.0,0.0,0.0,0.0,0.0,0.0,0.0,0.0,0.0,0.0,0.0,0.0,0.0,0.0,0.0,0.0,0.0,0.0,0.0,0.0,0.0,0.0,0.0,0.0,0.0,0.0,0.0,0.0,0.0,0.0,0.0,0.0,0.0,0.0,0.0,0.0,0.0,0.0,0.0,0.0,0.0,0.0,0.0,0.0,0.0,0.0,0.0,0.0,0.0,0.0,0.0,0.0,0.0,0.0,0.0,0.0,0.0,0.0,0.0,0.0,0.0,0.0,0.0,0.0,0.0,0.0,0.0,0.0,0.0,0.0,0.0,0.0,0.0,0.0,0.0,0.0,0.0,0.0,0.0,0.0,0.0,0.0,0.0,0.0,0.0,0.0,0.0,0.0,0.0,0.0,0.0,0.0,0.0,0.0,0.0,0.0,0.0,0.0,0.0,0.0,0.0,0.0,0.0,0.0,0.0,0.0,0.0,0.0,0.0,0.0,0.0,0.0,0.0,0.0,0.0,0.0,0.0,0.0,0.0,0.0,0.0,0.0,0.0,0.0,0.0,0.0,0.0,0.0,0.0,0.0,0.0,0.0,0.0,0.0,0.0,0.0,0.0,0.0,0.0,0.0,0.0,0.0,0.0,0.0,0.0,0.0,0.0,0.0,0.0,0.0,0.0,0.0,0.0,0.0,0.0,0.0,0.0,0.0,0.0,0.0,0.0,0.0,0.0,0.0,0.0,0.0,0.0,0.0,0.0,0.0,0.0,0.0,0.0,0.0,0.0,0.0,0.0,0.0,0.0,0.0,0.0,0.0,0.0,0.0,0.0,0.0,0.0,0.0,0.0,0.0,0.0,0.0,0.0,0.0,0.0,0.0,0.0,0.0,0.0,0.0,0.0,0.0,0.0,0.0,0.0,0.0,0.0,0.0,0.0,0.0,0.0,0.0,0.0,0.0,0.0,0.0,0.0,0.0,0.0,0.0,0.0,0.0,0.0,0.0,0.0,0.0,0.0,0.0,0.0,0.0,0.0,0.0,0.0,0.0,0.0,0.0,0.0,0.0,0.0,0.0,0.0,0.0,0.0,0.0,0.0,0.0,0.0,0.0,0.0,0.0,0.0,0.0,0.0,0.0,0.0,0.0,0.0,0.0,0.0,0.0,0.0,0.0,0.0,0.0,0.0,-1.6432,0.0,0.0,0.0,0.0,0.0,0.0,0.0,0.0,0.0,0.0,0.0,0.0,0.0,0.0,0.0,0.0,0.0,0.0,0.0,0.0,0.0,0.0,0.0,0.0,-0.752,-0.7991,-0.7906,-0.8088,-0.8096,-0.7756,0.0,0.0,0.0,0.0,0.0,-0.6984,-0.6909,-0.7072,-0.751,-0.7913,-0.8545,-0.9354,-0.8472,-0.7961,-0.776,0.0,0.0,0.0,0.0,0.0,0.0,0.0,0.0,0.0,0.0,0.0,0.0,0.0,0.0,0.0,0.0,0.0,0.0,0.0,0.0,0.0,0.0,0.0,0.0,0.0,0.0,0.0,0.0,0.0,0.0,0.0,0.0,0.0,0.0,0.0,0.0,0.0,0.0,0.0,0.0,0.0,0.0,0.0,0.0,0.0,0.0,0.0,0.0,0.0,0.0,0.0,0.0,0.0,0.0,0.0,0.0,0.0,0.0,0.0,0.0,0.0,0.0,0.0,0.0,0.0,0.0,0.0,0.0,0.0,0.0,0.0,-1.7926,0.0,0.0,0.0,0.0,0.0,0.0,0.0,0.0,0.0,0.0,0.0,0.0,0.0,0.0,0.0,0.0,0.0,0.0,0.0,0.0,0.0,-0.6696,-0.7131,-0.791,-0.838,-0.8353,-0.8654,-0.8668,-0.8269,-0.8215,0.0,0.0,0.0,-0.7595,-0.7595,-0.7874,-0.8208,-0.8599,-0.9216,-0.9934,-1.0713,-1.0787,-1.0649,-1.0291,-0.9281,0.0,0.0,0.0,0.0,0.0,0.0,0.0,0.0,0.0,0.0,0.0,0.0,0.0,0.0,0.0,0.0,0.0,0.0,0.0,0.0,0.0,0.0,0.0,0.0,0.0,0.0,0.0,0.0,0.0,0.0,0.0,0.0,0.0,0.0,0.0,0.0,0.0,0.0,0.0,0.0,0.0,0.0,0.0,0.0,0.0,0.0,0.0,0.0,0.0,0.0,0.0,0.0,0.0,0.0,0.0,0.0,0.0,0.0,0.0,0.0,0.0,0.0,0.0,0.0,0.0,-2.166,-2.2152,-2.2608,-2.2979,-2.1328,-2.0839,-2.1015,0.0,0.0,0.0,0.0,0.0,0.0,0.0,0.0,0.0,0.0,0.0,0.0,0.0,0.0,0.0,0.0,0.0,0.0,0.0,0.0,-0.7137,-0.7492,-0.8055,-0.8639,-0.9271,-0.9102,-0.9046,-0.9212,-0.8844,0.0,0.0,-0.8359,-0.8359,-0.8359,-0.8728,-0.8958,-0.9014,-1.0465,-1.1595,-1.2386,-1.2753,-1.2874,-1.2736,-1.0888,-1.0072,-1.0038,0.0,0.0,0.0,0.0,0.0,0.0,0.0,0.0,0.0,0.0,0.0,0.0,0.0,0.0,0.0,0.0,0.0,0.0,0.0,0.0,0.0,0.0,0.0,0.0,0.0,0.0,0.0,0.0,0.0,0.0,0.0,0.0,0.0,0.0,0.0,0.0,0.0,0.0,0.0,0.0,0.0,-1.4209,-1.3576,0.0,0.0,0.0,0.0,0.0,0.0,0.0,0.0,0.0,0.0,0.0,0.0,0.0,0.0,-2.0697,-2.1909,-2.2564,-2.2641,-2.4012,-2.4646,-2.4657,-2.5109,-2.559,-2.6005,-2.5775,0.0,-2.204,-2.0971,0.0,0.0,0.0,0.0,0.0,0.0,0.0,0.0,0.0,0.0,0.0,0.0,0.0,0.0,0.0,0.0,0.0,0.0,0.0,0.0,0.0,-0.9036,-0.9679,-1.0195,-1.0292,-1.0166,-0.9705,-0.9488,-0.9123,-0.8534,-0.8498,-0.8599,-0.8829,-0.9235,-0.9999,-1.1131,-1.236,-1.3331,-1.4038,-1.4222,-1.4304,-1.4268,-1.3378,-1.2376,-1.1255,-1.0459,0.0,0.0,0.0,0.0,0.0,0.0,0.0,0.0,0.0,0.0,0.0,0.0,0.0,0.0,0.0,0.0,0.0,0.0,0.0,0.0,0.0,0.0,0.0,0.0,0.0,0.0,0.0,0.0,0.0,0.0,0.0,0.0,0.0,0.0,0.0,0.0,0.0,0.0,0.0,-1.4001,-1.5342,-1.4928,-1.5738,-1.5836,0.0,0.0,0.0,0.0,0.0,0.0,0.0,0.0,0.0,-2.1396,-2.2106,-2.287,-2.3678,-2.4585,-2.5164,-2.5426,-2.607,-2.6376,-2.6387,-2.6594,-2.6802,-2.6988,-2.7009,-2.6299,-2.5011,-2.3514,-2.2444,-2.1658,0.0,0.0,0.0,0.0,0.0,-2.1232,0.0,0.0,0.0,0.0,0.0,0.0,0.0,0.0,0.0,0.0,0.0,0.0,-0.9186,-1.0098,-1.0789,-1.1205,-1.1435,-1.1274,-1.0557,-1.0208,-0.972,-0.8995,-0.8866,-0.8995,-0.9391,-1.0098,-1.1357,-1.3167,-1.3959,-1.4641,-1.5249,-1.5249,-1.5249,-1.5249,-1.5249,-1.4304,-1.2645,-1.1853,-1.1044,-1.0208,0.0,0.0,0.0,0.0,0.0,0.0,0.0,0.0,0.0,0.0,0.0,0.0,0.0,0.0,0.0,0.0,0.0,0.0,0.0,0.0,0.0,0.0,0.0,0.0,0.0,0.0,0.0,0.0,0.0,0.0,0.0,0.0,0.0,0.0,0.0,0.0,0.0,-1.5244,-1.6443,-1.6203,-1.7497,-1.7759,0.0,0.0,0.0,0.0,0.0,0.0,-2.0794,-2.157,-2.2546,-2.37,-2.4323,-2.5164,-2.6256,-2.6616,-2.6933,-2.7315,-2.7435,-2.7501,-2.7456,-2.7621,-2.7687,-2.7687,-2.7687,-2.761,-2.737,-2.5721,-2.4596,-2.3842,-2.3012,-2.2695,-2.2794,-2.3624,-2.3711,-2.3596,0.0,0.0,0.0,0.0,0.0,0.0,0.0,0.0,0.0,0.0,0.0,-0.9215,-0.9964,-1.0935,-1.1778,-1.2358,-1.213,-1.2039,-1.2183,-1.1053,-1.034,-1.0199,-0.9841,-0.9822,-1.0226,-1.1776,-1.3167,-1.4414,-1.4836,-1.5249,-1.5661,-1.5661,-1.5661,-1.5661,-1.5661,-1.5184,-1.4341,-1.3516,-1.27,-1.1871,-1.0658,0.0,0.0,0.0,0.0,0.0,0.0,0.0,0.0,0.0,0.0,0.0,0.0,0.0,0.0,0.0,0.0,0.0,0.0,0.0,0.0,0.0,0.0,0.0,0.0,0.0,0.0,0.0,0.0,0.0,0.0,0.0,0.0,0.0,0.0,0.0,0.0,0.0,0.0,-1.7339,-1.9702,0.0,0.0,0.0,0.0,-2.0643,-2.1179,-2.1854,-2.2805,-2.4231,-2.5196,-2.5742,-2.6649,-2.7173,-2.7239,-2.7261,-2.7293,-2.7315,-2.774,-2.7958,-2.798,-2.8473,-2.8727,-2.8727,-2.8727,-2.8429,-2.7882,-2.6889,-2.6453,-2.6355,-2.5884,-2.5688,-2.5742,-2.6256,-2.6388,-2.6442,0.0,0.0,0.0,0.0,0.0,-0.588,-0.6143,-0.6699,-0.7353,-0.8057,-0.887,-0.9825,-1.0935,-1.1763,-1.259,-1.3449,-1.3039,-1.2618,-1.244,-1.1429,-1.0919,-1.1063,-1.0677,-1.1084,-1.2401,-1.344,-1.448,-1.5473,-1.5831,-1.6163,-1.6468,-1.6468,-1.6468,-1.6468,-1.6468,-1.6175,-1.5625,-1.4799,-1.3837,-1.2799,-1.1844,-1.0879,0.0,0.0,0.0,0.0,0.0,0.0,0.0,0.0,0.0,0.0,0.0,0.0,0.0,0.0,0.0,0.0,0.0,0.0,0.0,0.0,0.0,0.0,0.0,0.0,0.0,0.0,0.0,0.0,0.0,0.0,0.0,0.0,0.0,0.0,0.0,0.0,0.0,-1.9658,-2.1308,0.0,0.0,-2.1155,-2.1865,-2.2652,-2.3449,-2.4312,-2.5284,-2.6103,-2.6627,-2.6802,-2.7741,-2.8289,-2.8289,-2.8866,-2.9183,-2.9183,-2.9358,-2.9445,-2.9397,-2.962,-2.9696,-2.9696,-2.9696,-2.9598,-2.9412,-2.9027,-2.82,-2.7053,-2.6878,-2.6813,-2.6824,-2.7009,-2.7064,-2.7097,0.0,0.0,0.0,0.0,-0.58,-0.6154,-0.6572,-0.7148,-0.7832,-0.8691,-0.9523,-1.0557,-1.1888,-1.2677,-1.3394,-1.4107,-1.3674,-1.3181,-1.2788,-1.1813,-1.1333,-1.1574,-1.1565,-1.2252,-1.3727,-1.4611,-1.5408,-1.6202,-1.6503,-1.677,-1.7012,-1.7072,-1.7101,-1.711,-1.7248,-1.7092,-1.6679,-1.6138,-1.5129,-1.3837,-1.3038,-1.2312,-1.1559,0.0,0.0,0.0,0.0,0.0,0.0,0.0,0.0,0.0,0.0,0.0,0.0,0.0,0.0,0.0,0.0,0.0,0.0,0.0,0.0,0.0,0.0,0.0,0.0,0.0,0.0,0.0,0.0,0.0,0.0,0.0,0.0,0.0,0.0,0.0,-2.1386,-2.1386,-2.3056,-2.3787,-2.2673,-2.3438,-2.4218,-2.485,-2.5535,-2.6179,-2.678,-2.7457,-2.7796,-2.7796,-2.8746,-2.9296,-2.9296,-2.9893,-3.0209,-3.0209,-3.0209,-3.0209,-3.0209,-3.0209,-3.0209,-3.0209,-3.0209,-3.0209,-3.0209,-3.0209,-2.9456,-2.8287,-2.8287,-2.8287,-2.8287,-2.8287,-2.8287,-2.8265,0.0,0.0,0.0,-0.5757,-0.6144,-0.6562,-0.7031,-0.7847,-0.8698,-0.9485,-1.0351,-1.1416,-1.2778,-1.3617,-1.4144,-1.4308,-1.3985,-1.3657,-1.3332,-1.2183,-1.1578,-1.1733,-1.2541,-1.3363,-1.4175,-1.5204,-1.6048,-1.6641,-1.6837,-1.7031,-1.7248,-1.7437,-1.7549,-1.7568,-1.7944,-1.7899,-1.7513,-1.7513,-1.6615,-1.5102,-1.4306,-1.3727,-1.3158,0.0,0.0,0.0,0.0,0.0,0.0,0.0,0.0,0.0,0.0,0.0,0.0,0.0,0.0,0.0,0.0,0.0,0.0,0.0,0.0,0.0,0.0,0.0,0.0,0.0,0.0,0.0,0.0,0.0,0.0,0.0,0.0,0.0,-2.0096,-2.1426,-2.2364,-2.2422,-2.4872,-2.6092,-2.4716,-2.6234,-2.7315,-2.7337,-2.7348,-2.737,-2.7381,-2.8333,-2.8847,-2.8847,-2.974,-3.0231,-3.0231,-3.0253,-3.0253,-3.0253,-3.0253,-3.0253,-3.0253,-3.0253,-3.0253,-3.0253,-3.0253,-3.0253,-3.0253,-3.0253,-3.0253,-3.0253,-3.022,-3.0209,-3.0209,-3.0209,-3.0209,-3.0144,0.0,0.0,-0.5363,-0.5918,-0.6227,-0.6562,-0.7031,-0.7847,-0.8698,-0.9485,-1.0351,-1.1523,-1.3154,-1.3619,-1.4,-1.4495,-1.393,-1.3463,-1.318,-1.2214,-1.2005,-1.2807,-1.4148,-1.5262,-1.6122,-1.6267,-1.6781,-1.77,-1.7612,-1.7746,-1.8061,-1.8282,-1.8366,-1.8375,-1.8313,-1.8267,-1.8119,-1.7981,-1.7513,-1.6734,-1.5634,-1.4781,-1.4066,0.0,0.0,0.0,0.0,0.0,0.0,0.0,0.0,0.0,0.0,0.0,0.0,0.0,0.0,0.0,0.0,0.0,0.0,0.0,0.0,0.0,0.0,0.0,0.0,0.0,0.0,0.0,0.0,0.0,0.0,0.0,0.0,-2.1035,-2.1177,-2.275,-2.4148,-2.4836,-2.5906,-2.6583,-2.654,-2.7009,-2.7457,-2.7773,-2.8167,-2.8563,-2.8866,-2.9478,-2.9816,-2.9816,-3.0395,-3.0712,-3.0712,-3.1061,-3.1236,-3.1236,-3.1236,-3.1236,-3.1236,-3.1236,-3.1236,-3.1236,-3.1236,-3.1236,-3.1236,-3.1236,-3.1236,-3.1171,-3.0482,-3.0209,-3.0209,-3.0209,-3.0209,-3.0188,0.0,-0.5695,-0.5827,-0.6269,-0.6637,-0.6965,-0.7295,-0.8086,-0.8945,-0.9776,-1.0654,-1.1777,-1.334,-1.3584,-1.3786,-1.4281,-1.3746,-1.3334,-1.3105,-1.2837,-1.3089,-1.4045,-1.5294,-1.6249,-1.6968,-1.7143,-1.7568,-1.8237,-1.8184,-1.8355,-1.8637,-1.876,-1.8835,-1.8798,-1.8797,-1.8665,-1.8517,-1.8404,-1.8137,-1.7688,-1.6911,-1.614,-1.5404,-1.468,-1.4535,-1.4594,-1.3896,-1.3807,-1.3989,-1.3643,0.0,0.0,0.0,0.0,0.0,0.0,0.0,0.0,0.0,0.0,0.0,0.0,0.0,0.0,0.0,0.0,0.0,0.0,0.0,0.0,0.0,0.0,0.0,0.0,-2.1723,-2.287,-2.3067,-2.4061,-2.5131,-2.6092,-2.6605,-2.7086,-2.7566,-2.7981,-2.8342,-2.8626,-2.9095,-2.9489,-2.9773,-3.0242,-3.0493,-3.0493,-3.0952,-3.1203,-3.1203,-3.1695,-3.1946,-3.1946,-3.2132,-3.223,-3.223,-3.223,-3.223,0.0,-3.223,-3.2121,-3.1946,-3.1946,-3.1815,0.0,0.0,0.0,0.0,0.0,-3.081,-3.0777,0.0,-0.6193,-0.6587,-0.672,-0.7138,-0.7511,-0.7671,-0.8441,-0.9316,-1.0195,-1.1067,-1.2083,-1.3359,-1.348,-1.3575,-1.3811,-1.3513,-1.325,-1.3138,-1.3744,-1.4434,-1.5205,-1.6061,-1.6744,-1.7225,-1.7837,-1.8276,-1.8533,-1.8734,-1.8934,-1.9158,-1.9175,-1.9192,-1.9201,-1.9332,-1.9226,-1.8894,-1.8856,-1.8588,-1.8193,-1.8125,-1.7632,-1.6849,-1.6281,-1.6282,-1.6613,-1.6715,-1.625,-1.5648,-1.5983,0.0,0.0,0.0,0.0,0.0,0.0,0.0,0.0,0.0,0.0,0.0,0.0,0.0,0.0,0.0,0.0,0.0,0.0,0.0,0.0,0.0,0.0,0.0,0.0,-2.3372,-2.4749,-2.5262,-2.5379,-2.5677,-2.6551,-2.7064,-2.761,-2.8111,-2.8986,-2.95,-2.9565,-3.0013,-3.0286,-3.0286,0.0,0.0,0.0,0.0,-3.1738,-3.1793,-3.2241,-3.2459,-3.2459,-3.2874,-3.3124,-3.3124,-3.3124,-3.3124,-3.3124,-3.3124,-3.2831,-3.2459,-3.2459,-3.2197,-3.1771,-3.1662,-3.1618,-3.1618,-3.1618,-3.1618,0.0,0.0,-0.6565,-0.687,-0.7001,-0.7107,-0.7291,-0.7652,-0.8441,-0.9316,-1.0195,-1.1067,-1.2083,-1.3359,-1.3404,-1.3356,-1.3407,-1.334,-1.3301,-1.3266,-1.4121,-1.4906,-1.5516,-1.6587,-1.7484,-1.812,-1.8267,-1.868,-1.9389,-1.9476,-1.9687,-2.0062,-2.0207,-2.0285,-2.0294,-2.0138,-2.006,-1.9984,-1.975,-1.935,-1.8881,-1.9687,-1.8733,-1.6913,-1.7062,-1.7083,-1.709,-1.7147,-1.7547,-1.8006,-1.7978,-1.7567,-1.7001,-1.6703,-1.5773,0.0,0.0,0.0,0.0,0.0,0.0,0.0,0.0,0.0,0.0,0.0,0.0,0.0,0.0,0.0,0.0,0.0,0.0,0.0,-2.3106,-2.429,-2.5349,-2.6223,-2.6343,-2.6551,-2.7119,-2.7565,-2.8198,-2.9117,-2.9379,-2.9652,-3.0046,-3.0504,-3.0766,-3.0766,-3.1214,0.0,-3.2088,-3.2186,-3.2416,-3.2787,-3.2885,-3.2929,-3.2993,0.0,0.0,-3.3124,-3.3124,-3.3124,-3.3124,-3.3124,-3.307,-3.2929,-3.2929,-3.2874,-3.2711,-3.1924,-3.1618,-3.1618,-3.1618,-3.1618,-3.1607,-0.7164,-0.7156,-0.7212,-0.7236,-0.7481,-0.7663,-0.7695,-0.8441,-0.9238,-0.9873,-1.0919,-1.1917,-1.2749,-1.2798,-1.274,-1.274,-1.2968,-1.3365,0.0,-1.4923,-1.5751,-1.6468,-1.7449,-1.8144,-1.8501,-1.8928,-1.9529,-2.0352,-2.0619,-2.1068,-2.1652,-2.1242,-2.1049,-2.1011,-2.0372,-2.0108,-2.0098,-1.9942,-1.974,-1.9523,-2.0319,-1.9703,-1.8379,-1.8998,-1.9037,-1.8797,-1.9124,-1.9263,-1.9279,-1.9216,-1.8755,-1.8116,-1.7566,-1.6879,-1.5986,0.0,0.0,0.0,0.0,0.0,0.0,0.0,0.0,0.0,0.0,0.0,0.0,0.0,0.0,-2.0435,0.0,0.0,-2.3635,-2.4334,-2.5273,-2.607,-2.6519,-2.6998,-2.738,-2.7609,-2.7849,-2.8418,-2.939,-2.9707,-3.0046,-3.0526,-3.0996,-3.1367,-3.1629,-3.187,-3.2219,-3.2711,-3.2721,-3.2831,-3.3124,-3.3311,-3.3431,-3.3431,-3.3683,-3.3792,-3.3792,-3.3792,-3.3792,-3.3792,-3.3792,-3.3661,-3.341,-3.3223,-3.3124,-3.307,-3.2536,-3.2208,-3.1979,-3.1717,-3.1618,-3.1618,-0.804,-0.7787,-0.7598,-0.7488,-0.7824,-0.8029,-0.7827,-0.842,-0.908,-0.9615,-1.0655,-1.1535,-1.2041,-1.2077,-1.2106,-1.2203,-1.2627,-1.3453,0.0,-1.5615,-1.6548,-1.7563,-1.8252,-1.8778,-1.9163,-1.9806,-2.0504,-2.1244,-2.1617,-2.2059,-2.251,-2.1869,-2.1576,-2.1538,-2.0663,-2.0284,-2.0245,-2.0098,-2.0098,-2.0255,-2.0951,-2.0829,-2.0327,-2.1272,-2.1073,-2.0354,-2.0873,-2.0532,-1.9842,-1.9904,-1.9358,-1.8559,-1.7985,-1.764,-1.7171,-1.5552,-1.5338,0.0,0.0,0.0,0.0,0.0,0.0,0.0,0.0,0.0,-1.9255,-2.0663,-2.168,-2.2521,-2.3285,-2.4159,-2.4912,-2.5382,-2.6114,-2.6649,-2.6835,-2.7511,-2.8034,-2.8122,-2.8178,-2.856,-2.9532,-2.998,-3.0439,-3.0996,-3.14,-3.1848,-3.2361,-3.2383,-3.2634,-3.3245,-3.3256,-3.331,-3.3355,-3.3737,-3.3934,-3.3945,-3.4338,-3.4524,-3.4524,-3.4524,-3.4524,-3.4524,-3.4524,-3.4305,-3.3912,-3.3508,-3.3355,-3.3333,-3.3246,-3.2984,-3.2601,-3.2088,-3.1848,-3.1771,0.0,-0.8301,-0.8029,-0.7728,-0.771,-0.7841,-0.8101,-0.8334,-0.8846,-0.9897,-1.0278,-1.0753,-1.1587,-1.1675,-1.1819,-1.2174,-1.2627,0.0,-1.4735,-1.5615,-1.6755,-1.8212,-1.8482,-1.9399,-2.115,-2.1031,-2.1195,-2.1721,-2.1773,-2.1461,-2.0867,-2.1461,-2.1766,-2.1766,-2.1652,-2.1603,-2.1538,-2.0818,-2.0828,-2.1423,-2.2371,-2.2432,-2.2104,-2.311,-2.2159,-2.031,-2.0455,-2.011,-1.9675,-2.0,-1.9377,-1.8643,-1.9302,-1.886,-1.8011,-1.7545,-1.6841,-1.6232,-1.6367,-1.6649,-1.7299,-1.9,-1.8939,-1.9233,0.0,0.0,-2.2248,-2.37,-2.441,-2.4843,-2.4942,-2.5371,-2.5895,-2.6387,-2.6519,-2.6878,-2.7718,-2.7925,-2.82,-2.8672,-2.8727,-2.9099,-3.0035,-3.0177,-3.0581,-3.1476,-3.1586,-3.1848,-3.2361,-3.2383,-3.2798,-3.3683,-3.3715,-3.3923,-3.436,-3.4414,-3.4447,-3.4447,-3.4491,-3.4524,-3.4524,-3.4524,-3.4524,-3.4524,-3.4524,-3.4491,-3.4436,-3.4382,-3.436,-3.4316,-3.3879,-3.3683,-3.3584,-3.3093,-3.2645,-3.2295,0.0,-0.867,-0.8569,-0.8072,-0.8119,-0.8276,-0.8404,-0.8945,-0.9426,-0.9658,-1.0455,-1.1055,-1.1185,-1.1182,-1.1357,-1.1797,-1.2246,-1.3154,-1.4687,-1.5615,-1.661,-1.778,-1.9031,-2.0108,-2.0885,-2.1752,-2.2518,-2.3121,-2.3121,-2.2973,-2.2638,-2.2537,-2.2247,-2.1794,-2.1794,-2.1794,-2.1794,-2.1945,-2.2134,-2.2435,-2.3316,-2.3168,-2.2571,-2.3449,-2.2606,-2.0954,-2.0981,-2.0323,0.0,-1.9959,-1.9459,-1.876,-1.9165,-1.8748,-1.8078,-1.767,-1.7587,-1.792,-1.9147,-1.9357,-1.9523,0.0,-2.1307,-2.1849,-2.3016,-2.3449,-2.3831,-2.4705,-2.5262,-2.56,-2.56,-2.5764,-2.6059,0.0,-2.6813,-2.7216,-2.7903,-2.7991,-2.8067,-2.8309,-2.8342,-2.8833,-3.0089,-3.0209,-3.0603,-3.1553,-3.1902,-3.2274,-3.2807,-3.3049,-3.3519,-3.4196,-3.4218,-3.4316,-3.4524,-3.4524,-3.4524,-3.4524,-3.4524,-3.4524,-3.4524,-3.4524,-3.4524,-3.4524,-3.4524,-3.4524,-3.4524,-3.4524,-3.4524,-3.4502,-3.4294,-3.4218,-3.413,-3.3355,-3.2993,-3.2829,0.0,-0.893,-0.8958,-0.8527,-0.867,-0.8822,-0.8753,-0.9361,-0.9767,-0.9568,-1.0466,-1.1043,-1.0763,-1.0732,-1.0957,-1.1557,-1.1973,-1.3008,-1.4917,-1.575,-1.6779,-1.8148,-1.9573,-2.0602,-2.1192,-2.2449,-2.3371,-2.3913,-2.4051,-2.4011,-2.3793,-2.3463,-2.2984,-2.2424,-2.2199,-2.2247,-2.2424,-2.2611,-2.2844,-2.3164,-2.3697,-2.3433,-2.2768,-2.318,-2.2342,-2.0959,-2.0959,-2.012,-1.903,-1.9266,-1.8842,-1.8228,-1.841,-1.8228,-1.7888,-1.7848,-1.8451,-1.9448,-2.0804,-2.1217,0.0,-2.2472,-2.345,-2.4153,-2.3987,-2.4531,-2.5169,-2.5499,-2.5851,-2.6021,-2.5937,-2.5979,-2.6261,-2.6898,-2.7184,-2.7567,-2.8327,-2.8169,-2.8045,-2.8222,-2.8078,-2.8514,-2.9882,-3.0133,-3.0548,-3.1367,-3.2022,-3.2579,-3.3092,-3.353,-3.4021,-3.4513,-3.4524,-3.4524,-3.4524,-3.4524,-3.4524,-3.4524,-3.4524,-3.4524,-3.4524,-3.4524,-3.4524,-3.4524,-3.4524,-3.4524,-3.4524,-3.4524,-3.4524,-3.4524,-3.4524,-3.4524,-3.4436,-3.3726,-3.3388,-3.3268,0.0,0.0,-0.9094,-0.9079,-0.9284,-0.9378,-0.9133,-0.9287,-0.9524,-0.9847,-1.0092,-1.0256,-1.0312,-1.0322,-1.0665,-1.1528,-1.1973,-1.3193,-1.5525,-1.6073,-1.7461,-2.0094,-2.0016,-2.0849,-2.2883,-2.3223,-2.3384,-2.342,-2.389,-2.372,-2.3058,-2.3756,-2.4036,-2.4,-2.3279,-2.3353,-2.3927,-2.2462,-2.2427,-2.3384,-2.342,-2.3243,-2.2943,-2.2438,-2.1235,-1.9856,-1.9856,-1.9155,-1.8156,-1.7651,-1.7111,-1.6763,-1.7279,-1.7423,0.0,-1.8648,-1.9693,-2.0545,-2.0593,0.0,-2.2824,-2.4331,-2.5236,-2.5862,-2.6278,-2.642,-2.6442,-2.6464,-2.6475,-2.6362,-2.5979,-2.6207,-2.6811,-2.7893,-2.7613,-2.7821,-2.9237,-2.8594,-2.8211,-2.8727,-2.8331,-2.8383,0.0,-2.9936,-3.0406,-3.0876,-3.1826,-3.2579,-3.3092,-3.353,-3.4021,-3.4513,-3.4524,-3.4524,-3.4524,-3.4524,-3.4524,-3.4524,-3.4524,-3.4524,-3.4524,-3.4524,-3.4524,-3.4524,-3.4524,-3.4524,-3.4524,-3.4524,-3.4524,-3.4524,-3.4524,-3.4524,-3.4524,-3.4491,-3.4185,-3.377,0.0,0.0,0.0,-1.0071,-1.0338,-1.054,-1.0451,-1.0476,-1.0599,-1.0799,-1.0979,0.0,0.0,0.0,0.0,0.0,-1.1784,-1.2795,-1.4221,-1.5314,-1.6564,-1.8114,-1.9787,-2.1012,-2.1707,-2.2999,-2.3676,-2.3676,-2.3808,-2.3502,-2.2725,-2.3005,-2.2819,-2.2315,-2.2608,-2.2854,-2.3109,-2.3109,-2.3526,-2.4069,-2.3394,-2.3084,-2.2919,-2.239,-2.0971,-1.9263,0.0,-1.835,-1.7159,-1.7327,-1.7039,-1.6691,-1.7219,-1.7147,-1.7147,-1.8578,-2.0009,-2.1368,-2.2426,0.0,-2.4587,-2.5557,-2.623,-2.6718,-2.691,-2.6948,-2.6837,-2.6507,-2.6439,-2.6296,-2.578,-2.6103,-2.6658,-2.7411,-2.7664,-2.8044,-2.8938,-2.8754,-2.8462,-2.8298,-2.8418,0.0,0.0,0.0,0.0,-3.0832,-3.1826,-3.2579,-3.3092,-3.3835,-3.4349,-3.4524,-3.4524,-3.4524,-3.4524,-3.4524,-3.4524,-3.4524,-3.4524,-3.4524,-3.4524,-3.4524,-3.4524,-3.4524,-3.4524,-3.4524,-3.4524,-3.4524,-3.4524,-3.4524,-3.4524,-3.4524,-3.4579,-3.4947,-3.4736,-3.4272,0.0,0.0,0.0,0.0,0.0,0.0,0.0,0.0,0.0,0.0,0.0,0.0,0.0,0.0,0.0,0.0,0.0,0.0,-1.3784,-1.5053,-1.6205,-1.7201,-1.9051,-2.014,-2.0356,-2.167,-2.2469,-2.2662,-2.2855,-2.279,-2.2453,-2.2453,-2.2269,-2.1992,-2.2207,-2.2579,-2.3023,-2.3081,-2.3325,-2.3592,-2.2558,-2.2017,-2.1795,-2.1043,-1.9793,0.0,-1.8205,-1.7339,-1.6379,-1.6715,-1.6727,-1.6691,-1.7219,-1.7688,-1.8264,-1.9504,-2.0851,-2.2354,-2.4155,-2.5083,-2.5817,-2.6821,-2.7352,-2.7593,-2.7643,-2.7411,-2.7012,-2.6463,-2.6209,-2.5912,-2.5398,-2.5494,-2.6062,-2.7482,-2.7603,-2.7974,-2.9357,-2.9141,-2.8813,-2.879,-2.879,0.0,0.0,0.0,0.0,-3.0603,-3.188,-3.2754,-3.3103,-3.3988,-3.4524,-3.4524,-3.4524,-3.4524,-3.4524,-3.4524,-3.4524,-3.4524,-3.4524,-3.4524,-3.4524,-3.4524,-3.4524,-3.4524,-3.4524,-3.4524,-3.4524,-3.4736,-3.468,-3.4524,-3.4958,-3.5013,-3.4902,-3.5488,-3.5499,-3.5124,0.0,0.0,0.0,0.0,0.0,0.0,0.0,0.0,0.0,0.0,0.0,0.0,0.0,0.0,0.0,0.0,0.0,0.0,-1.4184,-1.5298,0.0,-1.7398,-1.794,-1.8434,-1.8939,-1.9468,-2.0013,-2.0519,-2.1019,-2.1536,-2.2029,-2.2029,-2.2294,-2.2775,-2.2001,-2.2367,-2.3451,-2.2211,-2.1809,-2.1969,-2.0923,-2.0189,-1.9624,-1.8602,-1.7857,-1.7291,-1.6811,-1.6283,-1.5804,-1.5852,-1.6283,0.0,0.0,0.0,-2.0737,-2.132,-2.2258,-2.3577,-2.5588,-2.6178,-2.6586,-2.8126,-2.851,-2.8498,-2.8474,-2.7739,-2.6909,-2.6332,-2.5765,-2.5242,0.0,0.0,-2.5168,-2.7976,-2.7465,-2.7682,-3.0457,-2.9715,-2.928,0.0,0.0,0.0,0.0,0.0,0.0,-3.0286,0.0,-3.3103,-3.3157,-3.401,-3.4524,-3.4524,-3.4524,-3.4524,-3.4524,-3.4524,-3.4524,-3.4524,-3.4524,-3.4524,-3.4524,-3.4524,-3.4524,-3.4524,-3.4524,-3.4579,-3.4579,-3.5212,-3.5113,-3.4691,-3.5829,-3.5927,-3.5543,-3.6102,-3.632,-3.632,0.0,0.0,0.0,0.0,0.0,0.0,0.0,0.0,0.0,0.0,0.0,0.0,0.0,0.0,0.0,0.0,0.0,0.0,0.0,-1.5129,0.0,-1.6788,-1.771,-1.8265,-1.8398,-1.8915,-1.9263,-1.9423,-1.954,-1.9672,-1.9817,-1.9817,-1.9877,-2.0009,-1.9801,-1.9901,-2.0201,-1.986,-1.9984,-2.0326,-1.9239,-1.8975,-1.9119,-1.8458,-1.7628,-1.6835,-1.7099,-1.6595,-1.5912,0.0,0.0,0.0,0.0,-2.0105,-2.138,0.0,0.0,-2.5011,-2.6321,-2.7296,-2.7993,-2.8414,-2.851,-2.8414,-2.8017,-2.7397,-2.6556,-2.523,-2.4584,-2.3953,0.0,0.0,0.0,-2.6077,-2.7632,0.0,-2.968,-3.0475,0.0,-3.0263,0.0,-3.077,-3.0269,-3.0854,0.0,0.0,-3.2066,-3.2863,-3.3573,-3.4196,-3.4524,-3.4524,-3.4524,-3.4524,-3.4524,-3.4524,-3.4524,-3.4524,-3.4524,-3.4524,-3.4524,-3.4524,-3.4524,-3.4524,-3.5002,-3.5157,-3.5224,-3.5829,-3.5993,-3.5884,-3.6157,-3.6211,-3.6157,-3.67,-3.6646,-3.6429,0.0,0.0,0.0,0.0,0.0,0.0,0.0,0.0,0.0,0.0,0.0,0.0,0.0,0.0,0.0,0.0,0.0,0.0,0.0,0.0,-1.588,-1.5949,-1.6729,-1.7135,-1.7135,-1.7676,-1.7953,-1.7953,-1.8181,-1.8301,-1.8301,-1.8301,-1.8422,-1.865,-1.865,-1.877,-1.8975,-1.8746,-1.8819,0.0,0.0,-1.7688,-1.7893,-1.7339,-1.6775,-1.6295,-1.6595,-1.6919,0.0,0.0,0.0,-2.0952,-2.141,-2.2258,-2.3328,-2.441,0.0,-2.6262,-2.7294,-2.8026,-2.851,-2.851,-2.851,-2.8246,-2.7236,-2.6561,-2.5601,-2.3547,-2.2931,0.0,0.0,0.0,0.0,0.0,0.0,0.0,-3.0194,-3.0996,-3.1354,0.0,-3.1472,0.0,-3.1517,-3.1783,-3.2236,0.0,-3.3001,-3.3235,-3.377,-3.4261,-3.4524,-3.4524,-3.4524,-3.4524,-3.4524,-3.4524,-3.4524,-3.4524,-3.4524,-3.4524,-3.4524,-3.4524,-3.4524,-3.4524,0.0,-3.5378,-3.5488,-3.632,-3.6483,-3.632,-3.6862,-3.6862,-3.67,-3.7292,-3.7292,-3.7078,0.0,0.0,0.0,0.0,0.0,0.0,0.0,0.0,0.0,0.0,0.0,0.0,0.0,0.0,0.0,0.0,0.0,0.0,0.0,0.0,0.0,-1.5221,-1.5592,-1.5792,-1.5792,-1.6271,-1.6499,-1.6499,0.0,-1.7183,-1.7183,-1.7183,-1.7448,-1.7893,-1.7893,-1.8145,-1.8542,-1.8085,-1.7893,-1.7808,-1.6871,-1.6499,-1.6451,0.0,-1.5792,-1.5792,-1.5792,0.0,0.0,0.0,-2.1452,-2.2678,-2.3697,-2.4687,-2.5721,-2.6705,-2.7006,-2.7222,-2.8246,-2.851,-2.851,-2.851,-2.8462,-2.7981,-2.6358,-2.548,-2.4278,-2.1716,0.0,-2.0694,-1.9772,-2.073,-2.2408,-2.4736,0.0,-2.7801,-3.1045,-3.1263,-3.1407,-3.2202,-3.2067,-3.2213,-3.3019,-3.2782,-3.316,-3.4497,-3.424,-3.3989,-3.3989,-3.435,-3.4524,-3.4524,-3.4524,-3.4524,-3.4635,-3.4524,-3.4524,-3.4635,-3.4524,-3.4524,-3.4524,-3.4524,-3.4524,-3.4524,0.0,0.0,-3.5598,-3.6742,-3.697,-3.6646,-3.7613,-3.7667,-3.7292,-3.772,-3.788,-3.7826,0.0,0.0,0.0,0.0,0.0,0.0,0.0,0.0,0.0,0.0,-1.3435,-1.3492,0.0,0.0,0.0,0.0,0.0,0.0,0.0,0.0,0.0,-1.5681,-1.577,-1.5792,-1.5792,0.0,0.0,0.0,0.0,0.0,-1.609,-1.609,-1.6139,-1.6223,-1.6223,-1.6271,-1.6355,-1.6271,-1.6223,-1.6211,-1.6008,-1.5946,-1.5924,-1.585,0.0,0.0,0.0,0.0,0.0,-1.9949,-2.2142,-2.423,-2.4843,-2.5781,-2.6741,-2.7366,-2.7546,-2.7678,-2.8342,-2.851,-2.851,-2.851,-2.8186,-2.744,-2.5817,-2.4374,0.0,0.0,-1.936,-1.8698,-1.8506,-2.0097,0.0,-2.3773,0.0,0.0,0.0,0.0,-3.1657,0.0,0.0,0.0,0.0,0.0,0.0,0.0,0.0,0.0,-3.5134,-3.4747,-3.4524,-3.4524,-3.4524,-3.4736,-3.5212,-3.4736,-3.4736,-3.5212,-3.4736,-3.4524,-3.4524,-3.4524,-3.4524,-3.4579,0.0,0.0,-3.6211,-3.7388,-3.7773,-3.7708,-3.7933,-3.7933,-3.7826,-3.74,-3.7239,-3.7185,0.0,0.0,0.0,0.0,0.0,0.0,0.0,-1.2983,-1.3172,-1.4194,-1.4305,-1.4083,-1.3604,-1.4213,-1.4674,0.0,0.0,0.0,0.0,0.0,0.0,0.0,0.0,0.0,0.0,0.0,0.0,0.0,0.0,0.0,0.0,0.0,0.0,0.0,0.0,0.0,0.0,-1.5792,-1.5792,0.0,0.0,0.0,0.0,0.0,0.0,0.0,0.0,0.0,0.0,0.0,-2.1536,-2.3953,-2.53,-2.6466,-2.7354,-2.7606,-2.7921,-2.8186,-2.8438,-2.851,-2.851,-2.851,-2.8114,-2.7152,-2.4999,0.0,0.0,0.0,-1.8145,-1.7712,-1.7436,0.0,0.0,0.0,0.0,0.0,0.0,0.0,0.0,0.0,0.0,0.0,0.0,0.0,0.0,0.0,0.0,0.0,0.0,-3.5113,-3.4847,-3.4524,-3.478,-3.5113,-3.5378,-3.5102,-3.5102,-3.5378,-3.4791,-3.4524,-3.4524,-3.4524,-3.4524,-3.4579,0.0,0.0,-3.6375,-3.7548,-3.7986,-3.7986,-3.7986,-3.7986,-3.7986,-3.7667,-3.756,-3.7453,0.0,0.0,0.0,0.0,0.0,0.0,0.0,-1.3195,-1.3703,-1.5085,-1.5129,-1.4692,-1.3863,-1.417,-1.4588,0.0,0.0,0.0,0.0,0.0,0.0,0.0,0.0,0.0,0.0,0.0,0.0,0.0,0.0,0.0,0.0,0.0,0.0,0.0,0.0,0.0,0.0,0.0,0.0,0.0,0.0,0.0,0.0,0.0,0.0,0.0,0.0,0.0,0.0,0.0,-2.0394,-2.2498,-2.4602,-2.6238,-2.7392,-2.7474,-2.7933,-2.8366,-2.8474,-2.851,-2.851,-2.851,-2.8029,-2.6887,-2.4384,-2.2806,0.0,0.0,-1.7207,-1.6991,-1.6811,0.0,0.0,0.0,0.0,0.0,0.0,0.0,0.0,0.0,0.0,0.0,0.0,0.0,0.0,0.0,0.0,0.0,0.0,-3.5378,-3.5113,-3.4524,-3.4947,-3.5323,-3.5598,-3.5323,-3.5323,-3.5598,-3.4847,-3.4524,-3.4524,-3.4635,-3.468,-3.4736,0.0,0.0,0.0,-3.7548,-3.7986,-3.7986,-3.7986,-3.7986,-3.7974,-3.7868,-3.7826,-3.7655,0.0,0.0,0.0,0.0,0.0,0.0,0.0,-1.4169,-1.4583,-1.5682,-1.5402,-1.4893,-1.4366,-1.4693,-1.4784,0.0,0.0,0.0,0.0,0.0,0.0,0.0,0.0,0.0,0.0,0.0,0.0,0.0,0.0,0.0,0.0,0.0,0.0,0.0,0.0,0.0,0.0,0.0,0.0,0.0,0.0,0.0,0.0,0.0,0.0,0.0,0.0,0.0,0.0,0.0,0.0,-1.9732,-2.1873,-2.4254,-2.6346,-2.6825,0.0,0.0,-2.8378,-2.851,-2.851,-2.851,-2.7714,-2.6405,-2.43,0.0,0.0,-1.7869,-1.6631,-1.6235,-1.7147,-1.7893,0.0,0.0,0.0,-2.4748,0.0,0.0,0.0,0.0,0.0,0.0,0.0,0.0,0.0,0.0,0.0,0.0,0.0,-3.5378,-3.5113,-3.4524,-3.4579,-3.5124,-3.6211,-3.5124,-3.5124,-3.6211,-3.5069,-3.4524,-3.4524,-3.5058,-3.5323,-3.5378,0.0,0.0,0.0,-3.772,-3.7986,-3.7986,-3.7986,-3.7986,-3.7921,-3.74,-3.7185,-3.7078,0.0,0.0,0.0,0.0,0.0,0.0,-1.4132,-1.4308,-1.478,-1.6138,-1.5819,-1.5547,-1.575,-1.5024,-1.4342,-1.3913,0.0,0.0,0.0,0.0,0.0,0.0,0.0,0.0,0.0,0.0,0.0,0.0,0.0,0.0,0.0,0.0,0.0,0.0,0.0,0.0,0.0,0.0,0.0,0.0,0.0,0.0,0.0,0.0,0.0,0.0,0.0,0.0,0.0,0.0,0.0,0.0,-1.9143,-2.0923,0.0,0.0,-2.6285,-2.733,-2.7858,-2.827,-2.851,-2.851,-2.7464,-2.5961,-2.4215,0.0,-1.9615,-1.7784,-1.6547,-1.6139,-1.7195,-1.7555,-1.8506,-2.0863,-2.1596,-2.2787,-2.5397,0.0,0.0,0.0,0.0,0.0,0.0,0.0,0.0,0.0,0.0,0.0,0.0,0.0,-3.5113,-3.4524,-3.5179,-3.5829,-3.632,-3.5829,-3.5829,-3.6266,-3.5069,-3.4524,-3.4524,-3.5102,-3.5378,-3.5488,0.0,0.0,0.0,-3.7761,-3.7986,-3.7986,-3.7986,-3.7986,-3.7986,-3.772,-3.7667,-3.756,0.0,0.0,0.0,0.0,0.0,-1.3011,-1.3915,-1.4325,-1.4905,-1.6017,-1.5927,-1.5941,-1.6418,-1.5003,-1.3965,-1.3852,-1.3693,0.0,0.0,0.0,0.0,0.0,0.0,0.0,0.0,0.0,0.0,0.0,0.0,0.0,0.0,0.0,0.0,0.0,0.0,0.0,0.0,0.0,0.0,0.0,0.0,0.0,0.0,0.0,0.0,0.0,0.0,0.0,0.0,0.0,0.0,0.0,0.0,0.0,0.0,0.0,-2.4963,-2.6369,-2.7222,-2.7834,-2.827,-2.827,-2.7176,-2.5648,0.0,-2.1614,-1.9399,-1.7941,-1.6787,-1.6367,-1.7423,-1.7652,-1.8241,-2.0081,-2.0634,-2.1674,-2.4136,0.0,0.0,0.0,0.0,0.0,0.0,0.0,0.0,0.0,0.0,0.0,0.0,0.0,-3.5334,-3.4524,-3.5499,-3.6102,-3.632,-3.6102,-3.6102,-3.6266,-3.5279,-3.468,-3.4524,-3.5488,-3.5817,0.0,0.0,0.0,0.0,-3.7826,-3.7986,-3.7986,-3.7986,-3.7986,-3.7986,-3.7986,-3.7986,-3.7933,0.0,0.0,0.0,0.0,0.0,0.0,-1.3433,-1.4337,-1.501,-1.5096,-1.5579,-1.5893,-1.5905,-1.4517,-1.3831,-1.4341,-1.3893,0.0,0.0,0.0,0.0,0.0,0.0,0.0,0.0,0.0,-1.6056,-1.6595,-1.6595,0.0,0.0,0.0,0.0,0.0,0.0,0.0,0.0,0.0,0.0,0.0,0.0,0.0,0.0,0.0,0.0,0.0,0.0,0.0,0.0,0.0,0.0,0.0,0.0,0.0,-1.8746,-2.144,-2.3328,-2.4856,-2.6465,-2.7294,-2.769,-2.769,-2.6911,-2.5552,0.0,-2.1349,-1.948,-1.841,-1.7327,-1.6919,-1.8001,-1.8193,-1.8542,-1.964,-2.0694,-2.2125,-2.423,0.0,0.0,0.0,0.0,0.0,0.0,0.0,0.0,0.0,0.0,0.0,0.0,0.0,-3.5719,-3.4524,-3.5113,-3.5708,-3.6266,-3.5708,-3.5708,-3.6266,-3.5708,-3.5058,-3.4579,-3.632,0.0,0.0,0.0,0.0,0.0,-3.7986,-3.7986,-3.7986,-3.7986,-3.7986,-3.7986,-3.7986,-3.7986,-3.7986,0.0,0.0,0.0,0.0,0.0,0.0,0.0,-1.354,-1.3803,-1.4476,-1.4222,-1.4328,-1.5242,-1.4045,-1.3512,-1.432,-1.3622,0.0,0.0,0.0,0.0,0.0,0.0,0.0,0.0,-1.6175,-1.6439,-1.6607,-1.6967,-1.7219,-1.7375,-1.6847,0.0,0.0,0.0,0.0,0.0,0.0,0.0,0.0,0.0,0.0,0.0,0.0,0.0,0.0,0.0,0.0,0.0,0.0,0.0,0.0,0.0,0.0,0.0,-1.8566,-2.0827,0.0,-2.4001,-2.4867,-2.5456,-2.5107,-2.4218,-2.3159,-2.2137,-2.0526,-1.9047,-1.835,-1.7652,-1.7351,-1.8073,-1.8205,-1.8903,-2.1079,-2.1716,-2.2666,0.0,0.0,0.0,0.0,0.0,0.0,0.0,0.0,0.0,0.0,0.0,0.0,0.0,0.0,0.0,-3.5168,-3.6036,-3.6634,-3.6862,-3.6646,-3.6472,-3.6266,-3.5708,-3.5323,-3.5168,-3.6102,0.0,0.0,0.0,0.0,0.0,-3.7986,-3.7986,-3.7986,-3.7986,-3.7986,-3.7986,-3.7986,-3.7986,-3.7986,0.0,0.0,0.0,0.0,0.0,0.0,0.0,-1.3155,-1.322,-1.3446,-1.322,-1.3353,-1.425,-1.3364,-1.3109,-1.4105,-1.3385,0.0,0.0,0.0,0.0,0.0,0.0,0.0,-1.5792,-1.6139,-1.6595,-1.7195,-1.7544,-1.7917,-1.8289,-1.7772,-1.7279,-1.6883,0.0,0.0,0.0,0.0,0.0,0.0,0.0,0.0,0.0,0.0,0.0,0.0,0.0,0.0,0.0,0.0,0.0,0.0,0.0,0.0,0.0,0.0,-1.8674,-2.0682,0.0,-2.3147,-2.3869,-2.3589,-2.2855,-2.1945,-2.1007,-1.9708,-1.8542,-1.8013,-1.764,-1.7568,-1.8109,-1.8374,-1.9107,-2.0983,-2.1632,0.0,0.0,0.0,0.0,0.0,0.0,0.0,0.0,0.0,0.0,0.0,0.0,0.0,0.0,0.0,0.0,-3.6091,-3.6742,-3.7078,-3.7078,-3.7078,-3.6916,-3.6592,-3.6036,-3.5763,-3.5763,0.0,0.0,0.0,0.0,0.0,0.0,-3.7986,-3.7986,-3.7986,-3.7986,-3.7986,-3.7986,-3.7986,-3.7986,-3.7986,0.0,0.0,0.0,0.0,0.0,0.0,0.0,-1.3065,-1.3044,-1.2162,-1.2435,-1.2775,-1.2971,-1.2491,-1.2563,-1.3609,0.0,0.0,0.0,0.0,0.0,0.0,0.0,0.0,-1.5748,-1.5864,-1.6655,-1.8145,-1.8253,-1.8819,-1.9796,-1.9302,-1.8482,-1.7423,-1.6895,0.0,0.0,0.0,0.0,0.0,0.0,0.0,0.0,0.0,0.0,0.0,0.0,0.0,0.0,0.0,0.0,0.0,0.0,0.0,0.0,0.0,0.0,0.0,0.0,-2.1837,0.0,-2.2594,-2.2221,-2.1464,-1.9989,-1.8855,0.0,-1.7495,-1.7423,-1.764,-1.8205,-1.871,-1.9275,-2.0037,0.0,0.0,0.0,0.0,0.0,0.0,0.0,0.0,0.0,0.0,0.0,0.0,0.0,0.0,0.0,0.0,0.0,0.0,-3.7131,-3.7185,-3.7185,-3.7185,-3.7131,-3.7078,-3.6592,-3.6386,-3.6375,0.0,0.0,0.0,0.0,0.0,0.0,-3.7986,-3.7986,-3.7986,-3.7986,-3.7986,-3.7986,-3.7986,-3.7986,-3.7986,0.0,0.0,0.0,0.0,0.0,0.0,0.0,0.0,0.0,0.0,-1.1204,-1.1155,-1.1799,-1.1807,-1.1962,0.0,0.0,0.0,0.0,0.0,0.0,0.0,0.0,0.0,-1.5244,-1.642,-1.7207,-1.7579,-1.8819,-1.9567,-1.9808,-1.9676,-1.9035,-1.8001,-1.746,-1.6691,0.0,0.0,0.0,0.0,0.0,0.0,0.0,0.0,0.0,0.0,0.0,0.0,0.0,0.0,0.0,0.0,0.0,0.0,0.0,0.0,-1.6379,-1.6931,-1.7555,0.0,-1.9227,-1.8831,-1.8626,-1.8446,0.0,-1.7772,-1.7543,-1.7436,-1.7736,-1.8301,-1.9266,-1.9543,-2.043,0.0,0.0,0.0,0.0,0.0,0.0,0.0,0.0,0.0,0.0,0.0,0.0,0.0,0.0,0.0,0.0,0.0,0.0,0.0,-3.756,-3.7773,-3.7773,-3.7773,-3.756,-3.7078,-3.697,-3.6916,0.0,0.0,0.0,0.0,0.0,0.0,-3.7986,-3.7986,-3.7986,-3.7986,-3.7986,-3.7986,-3.7986,-3.7986,-3.7986,-3.7986,0.0,0.0,0.0,0.0,0.0,0.0,0.0,0.0,0.0,0.0,0.0,-1.0673,-1.0924,-1.135,0.0,0.0,0.0,0.0,0.0,0.0,0.0,0.0,0.0,-1.4651,-1.5401,-1.6467,-1.7267,-1.7772,-1.8879,-1.9672,-2.0153,-1.9929,-1.9375,-1.8518,-1.7496,-1.6571,0.0,0.0,0.0,0.0,0.0,0.0,0.0,0.0,0.0,0.0,0.0,-1.5792,0.0,-1.6379,-1.6379,-1.6223,0.0,0.0,0.0,0.0,-1.6018,-1.6235,-1.6235,-1.7543,-1.8855,-1.8566,-1.8698,-1.8746,-1.8253,-1.776,-1.7315,-1.7075,-1.7472,-1.8157,-1.9254,0.0,0.0,0.0,0.0,0.0,0.0,0.0,0.0,0.0,0.0,0.0,0.0,0.0,0.0,0.0,0.0,0.0,0.0,0.0,0.0,0.0,0.0,-3.7986,-3.7986,-3.7986,-3.7826,-3.7507,-3.7239,-3.7239,-3.7507,0.0,0.0,0.0,0.0,0.0,-3.7986,-3.7986,-3.7986,-3.7986,-3.7986,-3.7986,-3.7986,-3.7986,-3.7986,-3.7986,0.0,0.0,0.0,0.0,0.0,0.0,0.0,0.0,0.0,0.0,0.0,0.0,0.0,0.0,0.0,0.0,0.0,0.0,0.0,0.0,0.0,0.0,-1.4374,-1.4823,-1.5654,-1.6254,-1.7075,-1.8066,-1.8759,-1.9626,-2.0581,-2.02,-1.9582,-1.8782,-1.7255,-1.6307,0.0,0.0,0.0,0.0,0.0,0.0,0.0,0.0,0.0,0.0,0.0,0.0,0.0,-1.6847,-1.6907,-1.6667,-1.7039,0.0,0.0,0.0,0.0,0.0,-1.6102,-1.8013,-1.9832,-1.9396,-1.9901,-2.0201,-1.9119,-1.8241,-1.7532,0.0,0.0,0.0,0.0,-2.0298,0.0,0.0,0.0,0.0,0.0,0.0,0.0,0.0,0.0,0.0,0.0,0.0,0.0,0.0,0.0,0.0,0.0,0.0,0.0,0.0,0.0,0.0,-3.7986,-3.7986,-3.7986,-3.7974,-3.7507,-3.7507,-3.7974,-3.7453,0.0,0.0,0.0,0.0,-3.7986,-3.7986,-3.7986,-3.7986,-3.7986,-3.7986,-3.7986,-3.7986,-3.7986,-3.7986,0.0,0.0,0.0,0.0,0.0,0.0,0.0,0.0,0.0,0.0,0.0,0.0,0.0,0.0,0.0,0.0,0.0,0.0,0.0,0.0,0.0,-1.4271,-1.4731,-1.5015,-1.5121,-1.6051,-1.6811,-1.7451,-1.8876,-1.9941,-2.0605,-2.0801,-1.9915,-1.8101,-1.7048,-1.6307,-1.5792,-1.5792,0.0,0.0,0.0,0.0,0.0,0.0,0.0,0.0,0.0,0.0,0.0,-1.5984,-1.6307,-1.6547,-1.6175,0.0,0.0,0.0,0.0,0.0,-1.7447,-1.9119,-1.9941,-1.7664,-1.8518,-1.9624,-1.8566,-1.8542,-1.8722,0.0,0.0,0.0,0.0,-2.2197,0.0,0.0,0.0,0.0,0.0,0.0,0.0,0.0,0.0,0.0,0.0,0.0,0.0,0.0,0.0,0.0,0.0,0.0,0.0,0.0,0.0,0.0,0.0,-3.7986,-3.7986,-3.7986,-3.7933,-3.7933,-3.7986,-3.7921,-3.7933,0.0,0.0,0.0,-3.7986,-3.7986,-3.7986,-3.7986,-3.7986,-3.7986,-3.7986,-3.7986,-3.7986,-3.7986,0.0,0.0,0.0,0.0,0.0,0.0,0.0,0.0,0.0,0.0,0.0,0.0,0.0,0.0,0.0,0.0,0.0,0.0,0.0,0.0,-1.4189,-1.4651,-1.5171,-1.5401,-1.5376,-1.6087,-1.6879,-1.7722,-1.8609,-1.9531,-2.0415,-2.0289,-1.9327,-1.7664,-1.723,-1.6571,-1.5792,-1.5792,-1.5792,0.0,0.0,0.0,0.0,0.0,0.0,0.0,0.0,0.0,0.0,0.0,-1.6595,-1.6931,-1.6403,0.0,0.0,0.0,0.0,0.0,-1.6703,-1.8289,-1.9447,-1.8205,-1.9937,-2.1831,-2.1349,-2.073,-2.0382,-2.0658,0.0,0.0,0.0,0.0,0.0,0.0,0.0,0.0,0.0,0.0,0.0,0.0,0.0,0.0,0.0,0.0,0.0,0.0,0.0,0.0,0.0,0.0,0.0,0.0,0.0,0.0,0.0,-3.7986,-3.7986,-3.7986,-3.7986,-3.7986,-3.7986,-3.7986,-3.7986,0.0,0.0,-3.7986,-3.7986,-3.7986,-3.7986,-3.7986,-3.7986,-3.7986,-3.7986,-3.7986,-3.7986,-3.7986,0.0,0.0,0.0,0.0,0.0,0.0,0.0,0.0,0.0,0.0,0.0,0.0,0.0,0.0,0.0,0.0,0.0,0.0,0.0,-1.3558,-1.4195,-1.4645,-1.5103,-1.5439,-1.5637,-1.6114,-1.6841,-1.7851,-1.827,-1.9026,-2.0059,-1.959,-1.8655,-1.7358,-1.7255,-1.6691,-1.5792,-1.5792,-1.5792,0.0,0.0,0.0,0.0,0.0,0.0,0.0,0.0,0.0,0.0,0.0,0.0,0.0,0.0,0.0,0.0,-1.609,-1.5792,-1.5876,-1.6271,-1.7639,-1.9083,-1.9456,-2.1404,-2.3348,-2.371,-2.2739,-2.1993,-2.2763,0.0,0.0,0.0,0.0,0.0,0.0,0.0,0.0,0.0,0.0,0.0,0.0,0.0,0.0,0.0,0.0,0.0,0.0,0.0,0.0,0.0,0.0,0.0,0.0,0.0,0.0,0.0,-3.7926,-3.7986,-3.7986,-3.7986,-3.7986,-3.7986,-3.7986,-3.7986,-3.7986,-3.7986,-3.7986,-3.7986,-3.7986,-3.7986,-3.7986,-3.7986,-3.7986,-3.7986,-3.7986,-3.7986,-3.7986,0.0,0.0,0.0,0.0,0.0,0.0,0.0,0.0,0.0,0.0,0.0,0.0,0.0,0.0,0.0,0.0,0.0,0.0,0.0,-1.2774,-1.3288,-1.3689,-1.408,-1.4702,-1.5487,-1.5955,-1.6498,-1.7091,-1.7968,-1.8723,-1.9353,-1.9151,-1.8378,-1.7203,-1.6823,-1.6343,-1.5792,-1.5792,-1.5792,-1.5792,-1.5792,0.0,0.0,0.0,0.0,0.0,0.0,0.0,0.0,0.0,0.0,0.0,0.0,0.0,-1.6547,-1.596,-1.5792,-1.6139,-1.7603,-1.8506,-1.9348,-2.0851,-2.1404,-2.1957,-2.3469,-2.3336,-2.3292,-2.4783,-2.5059,0.0,0.0,0.0,0.0,0.0,0.0,0.0,0.0,0.0,0.0,0.0,0.0,0.0,0.0,0.0,0.0,0.0,0.0,0.0,0.0,0.0,0.0,0.0,0.0,0.0,0.0,-3.7733,-3.7986,-3.7986,-3.7986,-3.7986,-3.7986,-3.7986,-3.7986,-3.7986,-3.7986,-3.7986,-3.7986,-3.7986,-3.7986,-3.7986,-3.7986,-3.7986,-3.7986,-3.7986,-3.7986,-3.7986,0.0,0.0,0.0,0.0,0.0,0.0,0.0,0.0,0.0,0.0,0.0,0.0,0.0,0.0,0.0,0.0,0.0,0.0,0.0,-1.2583,-1.3178,-1.3576,-1.3996,-1.4343,-1.4626,-1.563,-1.6597,-1.7501,-1.8479,-1.8771,-1.8439,-1.8726,-1.8327,-1.7304,-1.717,-1.6799,-1.6283,-1.5936,-1.5984,-1.6283,-1.5924,0.0,0.0,0.0,0.0,0.0,0.0,0.0,0.0,0.0,-1.6175,-1.6511,-1.596,-1.6175,-1.6499,-1.5948,-1.5792,-1.5924,-1.6547,-1.8073,-1.9736,-2.0687,-2.1644,-2.2799,-2.4374,-2.5095,-2.5793,-2.7043,-2.7043,0.0,0.0,0.0,0.0,0.0,0.0,0.0,0.0,0.0,0.0,0.0,0.0,0.0,0.0,0.0,0.0,0.0,0.0,0.0,0.0,0.0,0.0,0.0,0.0,0.0,0.0,-3.6904,-3.7168,-3.7493,-3.7829,-3.7986,-3.7986,-3.7986,-3.7986,-3.7986,-3.7986,-3.7986,-3.7986,-3.7986,-3.7986,-3.7986,-3.7986,-3.7986,-3.7986,-3.7986,-3.7986,-3.7986,0.0,0.0,0.0,0.0,0.0,0.0,0.0,0.0,0.0,0.0,0.0,0.0,0.0,0.0,0.0,0.0,0.0,0.0,-1.1601,-1.2066,-1.2581,-1.3125,-1.3547,-1.3816,-1.3899,-1.5195,-1.6247,-1.7032,-1.8272,-1.8649,-1.8183,-1.8473,-1.8266,-1.7664,-1.7484,-1.7195,-1.6811,-1.6283,-1.6271,-1.6559,-1.603,-1.5792,0.0,0.0,0.0,0.0,0.0,0.0,0.0,0.0,-1.6032,-1.6283,-1.5934,-1.6054,-1.6283,-1.5922,-1.6032,-1.6319,-1.6319,-1.8025,-1.9977,-2.0687,-2.2072,-2.3673,-2.5204,-2.6009,-2.6825,-2.8438,-2.8474,-2.8222,-2.8222,0.0,0.0,0.0,0.0,0.0,0.0,0.0,0.0,0.0,0.0,0.0,0.0,0.0,0.0,0.0,0.0,0.0,0.0,0.0,0.0,0.0,0.0,0.0,0.0,-3.6326,-3.6579,-3.6952,-3.7312,-3.7661,-3.7986,-3.7986,-3.7986,-3.7986,-3.7986,-3.7986,-3.7986,-3.7986,-3.7986,-3.7986,-3.7986,-3.7986,-3.7986,-3.7986,-3.7986,-3.7933,0.0,0.0,0.0,0.0,0.0,0.0,0.0,0.0,0.0,0.0,0.0,0.0,0.0,0.0,0.0,0.0,0.0,0.0,-1.1449,-1.1124,-1.1277,-1.2164,-1.2646,-1.3066,-1.3496,-1.4746,-1.54,-1.541,-1.7088,-1.8183,-1.8759,-1.8372,-1.8193,-1.8144,-1.7627,-1.7387,-1.7351,-1.6823,-1.6607,-1.6559,-1.603,-1.5792,-1.5792,0.0,0.0,0.0,0.0,0.0,0.0,0.0,-1.5792,-1.5792,-1.5792,-1.5804,-1.5804,-1.5792,-1.6559,-1.7399,-1.7412,-1.8578,-2.0085,-2.1139,0.0,0.0,-2.5757,-2.5721,-2.6093,-2.8763,-2.9316,-2.9316,-2.9304,0.0,0.0,0.0,0.0,0.0,0.0,0.0,0.0,0.0,0.0,0.0,0.0,0.0,0.0,0.0,0.0,0.0,0.0,0.0,0.0,0.0,0.0,0.0,0.0,-3.6134,-3.6386,-3.6398,-3.6398,-3.6952,-3.7962,-3.7962,-3.7962,-3.7962,-3.7962,-3.7962,-3.7974,-3.7974,-3.7974,-3.7974,-3.7986,-3.7986,-3.7986,-3.7986,-3.7974,-3.7814,0.0,0.0,0.0,0.0,0.0,0.0,0.0,0.0,0.0,0.0,0.0,0.0,0.0,0.0,0.0,0.0,0.0,0.0,-1.0636,-1.0803,-1.1162,-1.1751,-1.2187,-1.2627,-1.3057,-1.373,-1.4512,-1.541,-1.675,-1.7134,-1.6643,-1.7364,-1.7277,-1.6551,-1.7531,-1.7347,-1.636,-1.6527,-1.6607,-1.6559,-1.603,-1.5792,-1.5792,0.0,0.0,0.0,0.0,0.0,0.0,0.0,0.0,0.0,-1.5792,-1.6331,-1.6775,-1.6008,-1.6823,-1.7808,-1.7039,-1.9119,0.0,-2.1873,0.0,0.0,0.0,-2.7693,0.0,0.0,-3.041,-3.029,-2.9917,0.0,0.0,0.0,0.0,0.0,0.0,0.0,0.0,0.0,0.0,0.0,0.0,0.0,0.0,0.0,0.0,0.0,0.0,0.0,0.0,0.0,0.0,0.0,0.0,0.0,-3.5485,-3.5857,-3.5857,-3.6206,-3.6867,-3.6867,-3.6867,-3.6867,-3.6867,-3.6867,-3.6904,-3.7276,-3.7433,-3.7457,-3.7841,-3.7986,-3.7921,-3.7054,-3.6719,-3.6557,0.0,0.0,0.0,0.0,0.0,0.0,0.0,0.0,0.0,0.0,-1.0303,-1.0448,0.0,0.0,0.0,0.0,0.0,0.0,0.0,-1.0617,-1.0948,-1.1577,-1.1839,-1.2334,-1.3115,-1.3786,-1.431,-1.4658,-1.5762,-1.6143,-1.5797,-1.6706,-1.677,-1.6166,-1.7557,-1.7517,-1.6453,-1.6584,-1.6622,-1.6536,-1.5816,-1.5637,-1.5792,0.0,0.0,0.0,0.0,0.0,0.0,0.0,0.0,0.0,-1.5792,-1.6247,-1.6715,-1.6511,-1.7411,-1.8518,-1.8492,-2.0622,0.0,-2.3592,-2.5348,-2.715,-2.8138,0.0,0.0,0.0,0.0,0.0,0.0,0.0,0.0,0.0,0.0,0.0,0.0,0.0,0.0,0.0,0.0,0.0,0.0,0.0,0.0,0.0,0.0,0.0,0.0,0.0,0.0,0.0,0.0,0.0,0.0,0.0,0.0,-3.5304,-3.5304,-3.5473,-3.5797,-3.6218,-3.6411,-3.6411,-3.6411,-3.6411,-3.6435,-3.6747,-3.6879,-3.6852,-3.6799,-3.6748,-3.6614,-3.5625,-3.526,-3.5119,0.0,0.0,0.0,0.0,0.0,0.0,0.0,0.0,0.0,0.0,-1.0303,-1.0448,0.0,0.0,0.0,0.0,0.0,0.0,0.0,-1.0505,-1.0704,-1.1622,-1.1741,-1.2342,-1.3544,-1.4444,-1.4444,-1.3523,-1.4471,-1.5204,-1.5691,-1.6208,-1.6437,-1.6432,-1.7472,-1.7619,-1.6993,-1.6727,-1.6572,-1.6394,-1.5497,-1.5424,-1.5792,-1.5792,0.0,0.0,0.0,0.0,0.0,0.0,0.0,0.0,-1.5792,-1.5886,-1.6126,-1.6991,-1.8121,-1.9372,-2.0803,0.0,0.0,-2.5648,-2.655,0.0,-2.8967,-2.9677,-3.0182,0.0,0.0,0.0,0.0,0.0,0.0,0.0,0.0,0.0,0.0,0.0,0.0,0.0,0.0,0.0,0.0,0.0,0.0,0.0,0.0,0.0,0.0,0.0,0.0,0.0,0.0,0.0,0.0,0.0,0.0,0.0,-3.4775,-3.4775,-3.4811,-3.5821,-3.6266,-3.6266,-3.6266,-3.6266,-3.6266,-3.6314,-3.6276,-3.6072,-3.516,-3.4757,-3.4541,-3.3864,-3.3584,-3.3486,0.0,0.0,0.0,0.0,0.0,0.0,0.0,0.0,0.0,0.0,0.0,0.0,0.0,0.0,0.0,0.0,0.0,0.0,0.0,-1.0341,-1.0855,-1.2097,-1.2791,-1.3478,-1.4116,-1.3621,-1.3438,-1.3573,-1.421,-1.4363,-1.4053,-1.492,-1.5074,-1.4707,-1.6251,-1.6149,-1.4917,-1.5734,-1.5822,-1.5451,-1.5583,-1.5703,-1.5792,-1.5792,-1.5792,0.0,0.0,0.0,0.0,0.0,0.0,0.0,-1.5792,-1.6379,-1.6931,-1.6331,-1.7808,-1.9627,-1.9528,-2.1596,0.0,0.0,-2.6839,-2.8366,-2.9124,-2.9388,0.0,0.0,0.0,0.0,0.0,0.0,0.0,0.0,0.0,0.0,0.0,0.0,0.0,0.0,0.0,0.0,0.0,0.0,0.0,0.0,0.0,0.0,0.0,0.0,0.0,0.0,0.0,0.0,-3.4775,-3.4775,-3.4775,0.0,-3.4775,-3.4775,-3.4787,-3.5015,-3.5111,-3.5111,-3.5111,-3.5111,-3.5196,-3.5617,-3.5272,-3.4523,-3.4711,-3.4275,-3.3389,-3.2307,-3.1915,-3.1772,0.0,0.0,0.0,0.0,0.0,0.0,0.0,0.0,0.0,0.0,0.0,0.0,0.0,0.0,0.0,0.0,0.0,0.0,0.0,-1.0486,-1.1094,-1.2203,-1.3342,-1.3847,-1.3634,-1.3358,-1.3248,-1.3272,-1.3553,-1.3626,-1.3516,-1.4516,-1.4789,-1.4508,-1.5967,-1.5968,-1.4887,-1.5331,-1.5485,-1.5424,-1.5458,-1.5614,-1.5792,-1.5792,-1.5792,-1.5792,-1.5792,0.0,0.0,0.0,0.0,0.0,0.0,0.0,-1.6631,-1.6583,-1.7748,-1.9191,-1.9937,0.0,0.0,-2.6382,0.0,0.0,0.0,0.0,0.0,0.0,0.0,0.0,0.0,0.0,0.0,0.0,0.0,0.0,0.0,0.0,0.0,0.0,0.0,0.0,0.0,0.0,0.0,0.0,0.0,0.0,0.0,0.0,0.0,0.0,0.0,0.0,-3.4402,-3.4655,-3.4775,-3.4775,-3.4775,-3.4775,-3.4775,-3.4775,-3.4775,-3.4775,-3.4775,-3.4775,-3.4799,-3.4558,-3.4105,-3.3513,-3.2779,-3.2097,-3.1498,-3.056,-3.0217,-3.0138,0.0,0.0,0.0,0.0,0.0,0.0,0.0,0.0,0.0,0.0,0.0,0.0,0.0,0.0,0.0,0.0,0.0,0.0,0.0,-1.0769,-1.1393,-1.2184,-1.3332,-1.3594,-1.2813,-1.3101,-1.3094,-1.2773,-1.2773,-1.317,-1.3902,-1.4546,-1.4831,-1.4841,-1.5746,-1.5917,-1.5457,-1.5097,-1.5184,-1.5501,-1.5117,-1.5206,-1.5538,-1.5465,-1.5473,-1.555,-1.5624,-1.566,-1.5672,-1.5768,0.0,0.0,0.0,0.0,-1.596,-1.6859,-1.758,-1.847,-2.0346,0.0,-2.5084,-2.7621,0.0,0.0,0.0,0.0,0.0,0.0,0.0,0.0,0.0,0.0,0.0,0.0,0.0,0.0,0.0,0.0,0.0,0.0,0.0,0.0,0.0,0.0,0.0,0.0,0.0,0.0,0.0,0.0,0.0,0.0,0.0,-3.3862,-3.3862,-3.4294,-3.4607,-3.4643,-3.4787,-3.4775,-3.4775,-3.4775,-3.4775,-3.4775,-3.4617,-3.4519,-3.4421,-3.3362,-3.2789,-3.2437,-3.0587,-2.9775,-2.9564,-2.8996,-2.8809,-2.8867,0.0,0.0,0.0,0.0,0.0,0.0,0.0,0.0,0.0,0.0,-1.0341,-1.038,-1.038,-1.038,0.0,0.0,0.0,0.0,-1.0303,0.0,0.0,-1.2267,-1.2467,-1.2507,-1.2388,-1.2049,-1.2014,-1.2291,-1.2291,-1.3391,-1.5469,-1.4617,-1.4419,-1.4793,-1.4547,-1.4633,-1.4956,-1.458,-1.4452,-1.4492,-1.4504,-1.4497,-1.4451,-1.4115,-1.4198,-1.4554,-1.4962,-1.5109,-1.5181,-1.5636,-1.5792,0.0,0.0,0.0,0.0,0.0,-1.6715,-1.7676,0.0,0.0,0.0,0.0,0.0,0.0,0.0,0.0,0.0,0.0,0.0,0.0,0.0,0.0,0.0,0.0,0.0,0.0,0.0,0.0,0.0,0.0,0.0,0.0,0.0,0.0,0.0,0.0,0.0,0.0,0.0,0.0,0.0,-3.3272,-3.3356,0.0,-3.3392,-3.3452,-3.3717,-3.4102,-3.4558,-3.4775,-3.4775,-3.4775,-3.4775,-3.4726,-3.3819,-3.34,-3.335,-3.2235,-3.1206,-3.0338,-3.0026,-2.9313,-2.8504,-2.8403,-2.8379,-2.8389,0.0,0.0,0.0,0.0,0.0,0.0,0.0,0.0,0.0,0.0,0.0,-1.0544,-1.0322,-1.0505,0.0,0.0,0.0,0.0,-1.0621,-1.1518,0.0,-1.1871,-1.2142,-1.2181,-1.1912,-1.1705,-1.18,-1.2203,-1.1973,-1.3021,-1.5237,-1.4718,-1.5206,-1.6454,-1.6042,-1.5621,-1.5196,-1.4878,-1.4439,-1.3981,-1.4235,-1.4705,-1.5164,-1.4349,-1.4878,-1.5955,-1.5241,-1.5193,-1.548,-1.572,-1.5792,-1.5792,0.0,0.0,0.0,0.0,0.0,0.0,-1.9805,0.0,0.0,0.0,0.0,0.0,0.0,0.0,0.0,0.0,0.0,0.0,0.0,0.0,0.0,0.0,0.0,0.0,0.0,0.0,0.0,0.0,0.0,0.0,0.0,0.0,0.0,0.0,0.0,0.0,0.0,-3.2034,-3.2142,-3.2415,-3.2683,0.0,-3.2851,-3.314,-3.3404,-3.3621,-3.409,-3.4342,-3.4342,-3.4643,-3.4775,-3.4775,-3.4323,-3.4115,-3.3967,-3.2286,-3.1319,-3.0753,-2.9471,-2.8698,-2.8291,-2.8291,-2.8291,-2.8291,0.0,0.0,0.0,0.0,0.0,0.0,0.0,0.0,0.0,0.0,0.0,0.0,-1.0322,0.0,0.0,0.0,0.0,0.0,-1.118,0.0,0.0,0.0,-1.1695,-1.1632,-1.1283,-1.1273,-1.1477,-1.1872,-1.1692,-1.2785,-1.5054,-1.4977,-1.6077,-1.8072,-1.7375,-1.6497,-1.5478,-1.5175,-1.4712,-1.4199,-1.444,-1.5108,-1.5916,-1.5355,-1.6081,-1.7231,-1.6032,-1.5768,-1.5972,0.0,0.0,0.0,0.0,0.0,0.0,0.0,0.0,0.0,0.0,0.0,0.0,0.0,0.0,0.0,0.0,0.0,0.0,0.0,0.0,0.0,0.0,0.0,0.0,0.0,0.0,0.0,0.0,0.0,0.0,0.0,0.0,0.0,0.0,0.0,0.0,0.0,0.0,0.0,0.0,-3.1705,-3.1705,-3.1705,-3.207,-3.2286,-3.2286,-3.2815,-3.3092,-3.3092,-3.3609,-3.3802,-3.3861,-3.4258,-3.4354,-3.4182,-3.4056,-3.3967,-3.3808,-3.1677,-3.0753,-3.0608,-2.8963,-2.8291,-2.8291,-2.8291,-2.8291,-2.8291,0.0,0.0,0.0,0.0,0.0,0.0,0.0,0.0,0.0,0.0,0.0,0.0,-1.0303,-1.0322,-1.0322,-1.0303,-1.0659,0.0,0.0,0.0,0.0,0.0,0.0,0.0,-1.0371,-1.0371,-1.0557,-1.0977,-1.1389,-1.3027,-1.5748,-1.549,-1.6647,-1.8864,-1.7384,-1.6278,-1.5461,-1.5079,-1.5127,-1.5492,-1.5328,-1.5522,-1.6029,-1.7057,-1.7413,-1.7375,-1.7327,-1.6967,0.0,0.0,0.0,0.0,0.0,0.0,-1.5792,0.0,0.0,0.0,0.0,0.0,0.0,0.0,0.0,0.0,0.0,0.0,0.0,0.0,0.0,0.0,0.0,0.0,0.0,0.0,0.0,0.0,0.0,0.0,0.0,0.0,0.0,0.0,0.0,0.0,0.0,0.0,0.0,0.0,-3.1705,-3.1705,-3.1705,-3.1705,-3.1741,-3.1753,-3.1753,-3.2262,-3.2539,-3.2551,-3.308,-3.3332,-3.3332,-3.3356,-3.309,-3.2523,-3.1984,-3.1779,-3.1575,-2.9375,-2.8451,-2.8441,-2.8344,-2.8291,-2.8291,-2.8291,-2.8291,-2.8291,0.0,0.0,0.0,0.0,0.0,0.0,0.0,0.0,0.0,0.0,0.0,0.0,0.0,-1.0303,-1.0303,-1.0303,-1.0678,0.0,0.0,0.0,0.0,0.0,0.0,0.0,-1.0303,-1.0303,-1.0508,-1.0908,-1.0811,-1.1992,-1.4323,-1.4218,-1.4944,-1.6327,-1.6729,-1.6507,-1.5858,-1.5274,-1.4949,-1.4838,-1.4941,-1.5995,-1.7447,-1.7005,-1.8128,-1.9841,-1.8794,0.0,0.0,0.0,0.0,0.0,-1.59,-1.5552,-1.5289,-1.5289,-1.5528,-1.6104,0.0,0.0,0.0,0.0,0.0,0.0,0.0,0.0,0.0,0.0,0.0,0.0,0.0,0.0,0.0,0.0,0.0,0.0,0.0,0.0,0.0,0.0,0.0,0.0,0.0,0.0,0.0,0.0,0.0,0.0,-3.1705,-3.1705,-3.1705,-3.1705,-3.1705,-3.1705,-3.1705,-3.191,-3.2006,-3.1973,-3.2527,-3.2791,-3.2791,-3.3128,-3.3194,-3.2877,-3.1319,-3.0996,-3.1472,-2.9984,-2.9313,-2.926,-2.8548,-2.8291,-2.8291,-2.8291,-2.8291,-2.8291,0.0,0.0,0.0,0.0,0.0,0.0,0.0,0.0,-1.0303,-1.0303,0.0,0.0,0.0,0.0,-1.0567,-1.0686,-1.0702,-1.0697,-1.0697,-1.0697,0.0,0.0,0.0,0.0,-1.0303,-1.0303,-1.044,-1.0703,-1.0566,-1.1377,-1.3061,-1.3511,-1.4113,-1.4851,-1.568,-1.5999,-1.5831,-1.5392,-1.5242,-1.5315,-1.5489,-1.6884,-1.8846,-1.8619,-1.9831,-2.1548,0.0,0.0,0.0,0.0,0.0,0.0,-1.6559,-1.584,-1.5277,-1.5277,-1.5516,-1.602,-1.7099,0.0,0.0,0.0,0.0,0.0,0.0,0.0,0.0,0.0,0.0,0.0,0.0,0.0,0.0,0.0,0.0,0.0,0.0,0.0,0.0,0.0,0.0,0.0,0.0,0.0,0.0,0.0,0.0,0.0,-3.1175,-3.1175,-3.1259,-3.144,-3.1621,-3.1705,-3.1705,-3.1705,-3.1705,-3.1717,-3.2046,-3.2214,-3.2226,-3.2243,-3.2158,-3.1844,-3.0108,-3.0104,-3.1233,-2.9756,-2.9233,-2.9313,-2.8601,-2.8291,-2.8291,-2.8291,-2.8291,-2.8291,0.0,0.0,0.0,0.0,0.0,0.0,0.0,0.0,-1.0303,-1.0322,0.0,0.0,0.0,0.0,0.0,-1.147,-1.0775,-1.066,-1.1426,-1.0736,0.0,0.0,0.0,0.0,-1.0303,-1.0303,-1.0303,-1.0303,-1.0693,-1.1316,-1.2184,-1.3482,-1.4326,-1.4696,-1.4321,-1.4586,-1.5352,-1.5332,-1.6032,-1.7117,0.0,-1.8183,-2.0045,0.0,-2.2458,0.0,-2.2827,-2.2378,0.0,-2.0261,0.0,0.0,-1.7724,-1.6655,-1.5792,-1.578,-1.5792,-1.5816,0.0,0.0,0.0,0.0,0.0,0.0,0.0,0.0,0.0,0.0,0.0,0.0,0.0,0.0,0.0,0.0,0.0,0.0,0.0,0.0,0.0,0.0,0.0,0.0,0.0,0.0,0.0,0.0,0.0,0.0,-3.0086,-3.0086,-3.0326,-3.0874,-3.1392,-3.1657,-3.1657,-3.1681,-3.1681,-3.1681,-3.1705,-3.1705,-3.1661,-3.0678,-2.9929,-2.9258,-2.832,-2.8993,-3.0571,-2.8489,-2.7891,-2.8271,-2.8271,-2.8281,-2.8291,-2.8291,-2.8291,-2.8291,0.0,0.0,0.0,0.0,0.0,-0.9828,-1.0078,-1.0224,-1.041,0.0,0.0,0.0,-1.1359,-1.1408,-1.1441,-1.157,-1.1069,-1.0834,-1.1045,-1.0587,-1.0341,-1.0467,-1.0361,-1.0303,-1.0303,-1.0303,-1.0303,-1.0303,-1.042,-1.0742,-1.1279,-1.1644,-1.2204,-1.2939,-1.3155,-1.3535,-1.4021,-1.3771,0.0,-1.7274,-1.678,-1.8222,0.0,0.0,0.0,0.0,0.0,-2.373,-2.3556,0.0,-2.1801,-2.0286,0.0,-1.6355,-1.572,-1.5336,-1.5768,-1.6307,-1.5922,0.0,0.0,0.0,0.0,0.0,0.0,0.0,0.0,0.0,0.0,0.0,0.0,0.0,0.0,0.0,0.0,0.0,0.0,0.0,0.0,0.0,0.0,0.0,0.0,0.0,0.0,0.0,0.0,-3.0086,-3.0086,-3.0086,-3.0158,-3.0302,-3.0446,-3.0518,-3.0518,-3.0946,-3.1139,-3.1139,-3.1524,-3.1705,-3.1705,-3.1427,-3.0804,-2.9919,-2.8888,-2.8535,-2.8603,-2.7611,-2.7451,-2.7894,-2.7894,-2.8027,-2.8291,-2.8291,-2.8291,-2.8291,0.0,0.0,0.0,-0.9249,-0.9692,-1.0066,-1.0263,-1.0606,-1.086,0.0,0.0,0.0,-1.1797,-1.2025,-1.2064,-1.1878,-1.127,-1.0908,-1.0908,-1.0518,-1.0303,-1.0303,-1.0303,-1.0381,-1.0557,-1.0391,-1.0391,-1.0547,-1.0391,-1.043,-1.0674,-1.1044,-1.1392,-1.1689,-1.2191,-1.2613,-1.293,-1.2559,0.0,0.0,-1.6783,0.0,0.0,-2.0994,-2.2133,0.0,0.0,0.0,-2.5131,-2.4843,-2.34,0.0,0.0,-1.74,-1.6895,-1.5684,-1.6259,-1.7099,-1.6355,-1.6535,-1.6967,0.0,0.0,0.0,0.0,0.0,0.0,0.0,0.0,0.0,0.0,0.0,0.0,0.0,0.0,0.0,0.0,0.0,0.0,0.0,0.0,0.0,0.0,0.0,0.0,0.0,-2.9436,-2.9436,-2.9436,-2.9641,-2.9761,-2.9761,-2.9965,-3.0086,-3.0086,-3.0398,-3.0585,-3.0555,-3.1127,-3.138,-3.1336,-3.0718,-3.0125,-2.9464,-2.8085,-2.727,-2.6937,-2.6616,-2.6846,-2.7393,-2.7393,-2.7539,-2.7783,-2.7969,-2.8027,-2.8057,0.0,0.0,-0.9459,-0.9675,-1.0146,-1.0449,-1.0381,-1.1077,-1.1467,0.0,-1.1496,-1.1966,-1.2369,-1.2744,-1.2793,-1.2379,-1.1541,-1.1035,-1.0986,-1.0586,-1.0352,-1.0303,-1.0352,-1.0508,-1.084,-1.0586,-1.0566,-1.084,-1.0508,-1.0352,-1.0312,-1.1153,-1.1297,-1.086,-1.1429,-1.1857,-1.2116,-1.1952,-1.3319,-1.5711,-1.6825,-1.8115,0.0,0.0,-2.3218,0.0,-2.607,-2.662,-2.6274,-2.6214,-2.453,0.0,0.0,-1.93,-1.8855,-1.6763,-1.7243,-1.8229,-1.7159,-1.7255,-1.7857,-1.8626,0.0,0.0,0.0,-1.948,0.0,0.0,0.0,0.0,0.0,0.0,0.0,0.0,0.0,0.0,0.0,0.0,0.0,0.0,0.0,0.0,0.0,0.0,0.0,-2.851,-2.851,-2.851,-2.851,-2.8955,-2.9208,-2.9208,-2.9665,-2.9875,-2.978,-2.984,-2.9822,-2.9738,-3.0262,-3.0513,-3.0481,-2.9218,-2.8558,-2.8372,-2.6638,-2.5781,-2.5693,-2.5693,-2.6161,-2.6943,-2.6943,-2.6973,-2.706,-2.7451,-2.7598,-2.7646,0.0,-1.0311,-1.0532,-1.0423,-1.1055,-1.1423,-1.086,-1.1252,-1.1682,-1.1921,-1.2646,-1.3291,-1.3685,-1.351,-1.335,-1.3237,-1.2447,-1.1816,-1.1477,-1.1046,-1.0635,-1.0322,-1.0605,-1.0664,-1.043,-1.1027,-1.1036,-1.042,-1.0664,-1.0615,-1.0303,-1.0479,-1.0518,-1.0459,-1.1206,-1.1612,-1.1802,-1.3063,0.0,-1.5058,-1.609,0.0,-2.0264,-2.1801,-2.3119,-2.4432,-2.6014,-2.6936,-2.7306,0.0,-2.5529,-2.3773,0.0,0.0,-2.0598,-1.8879,-1.9218,-1.9904,-1.8819,-1.8915,-1.9059,-1.7989,0.0,0.0,0.0,-1.7567,0.0,0.0,0.0,0.0,0.0,0.0,0.0,0.0,0.0,0.0,0.0,0.0,0.0,0.0,0.0,0.0,0.0,0.0,0.0,-2.851,-2.851,-2.851,-2.851,-2.8607,-2.8667,-2.8667,-2.8763,-2.8476,-2.7772,-2.8178,-2.8027,-2.7283,-2.7818,-2.8096,-2.8075,-2.8164,-2.7793,-2.6997,-2.695,-2.6466,-2.5693,-2.5693,-2.6045,-2.6514,-2.6514,-2.6719,-2.7021,-2.7109,-2.7139,-2.7158,-1.0164,-1.0778,-1.1338,-1.1124,-1.1682,-1.2007,-1.1623,-1.2001,-1.2476,-1.2812,-1.3877,-1.4466,-1.4133,-1.4008,-1.3828,-1.3525,-1.2701,-1.2106,-1.1904,-1.127,-1.082,-1.0605,-1.0596,-1.0714,-1.0939,-1.0939,-1.0939,-1.0939,-1.0703,-1.0508,-1.0303,-1.0303,-1.0528,-1.0959,-1.1134,-1.158,-1.2292,-1.2891,-1.3831,-1.5046,-1.6538,0.0,-2.0657,-2.26,-2.3957,-2.5025,-2.6862,-2.7747,-2.787,-2.6537,-2.5757,0.0,0.0,-2.2546,-2.244,0.0,-2.0457,-2.1356,-1.9415,-1.9547,-2.0013,-1.9203,0.0,0.0,0.0,0.0,0.0,0.0,0.0,0.0,0.0,0.0,0.0,0.0,0.0,0.0,0.0,0.0,0.0,0.0,0.0,0.0,0.0,0.0,-2.8222,-2.8486,-2.851,-2.851,-2.851,-2.851,-2.851,-2.851,-2.851,-2.8299,-2.7846,-2.8104,-2.7812,-2.6917,-2.7453,-2.7463,-2.6998,-2.6992,-2.6721,-2.6252,-2.6205,-2.5849,-2.542,-2.5644,-2.582,-2.6064,-2.6064,-2.6191,-2.6356,-2.6621,-2.6699,-2.6728,-1.0404,-1.1166,-1.1922,-1.1737,-1.2163,-1.248,-1.2273,-1.2716,-1.3219,-1.3698,-1.4806,-1.5318,-1.4687,-1.4835,-1.4848,-1.445,-1.364,-1.3071,-1.2882,-1.2011,-1.1349,-1.1045,-1.0791,-1.0919,-1.1447,-1.0948,-1.089,-1.1361,-1.0723,-1.0381,-1.0303,-1.0391,-1.0853,-1.1619,-1.1367,-1.198,-1.3115,0.0,0.0,-1.5593,0.0,-1.8797,-2.046,-2.3237,-2.4471,-2.5026,-2.7387,-2.8351,-2.8234,-2.6394,0.0,-2.5791,-2.3523,-2.3625,0.0,0.0,0.0,0.0,0.0,0.0,0.0,0.0,0.0,-1.9666,0.0,0.0,0.0,-1.9365,0.0,0.0,0.0,0.0,0.0,0.0,0.0,0.0,0.0,0.0,0.0,0.0,0.0,0.0,0.0,0.0,0.0,-2.815,-2.8005,-2.8029,-2.8342,-2.845,-2.851,-2.851,-2.8339,-2.8179,-2.7966,-2.7794,-2.7296,-2.6434,-2.6867,-2.6664,-2.5905,-2.5625,-2.5485,-2.547,-2.5109,-2.5037,-2.5145,-2.5459,-2.5615,-2.5693,-2.5693,-2.5693,-2.5732,-2.6133,-2.6269,-2.6309,-1.1437,-1.1871,-1.2212,-1.2083,-1.264,-1.2936,-1.2441,-1.2683,-1.3336,-1.451,-1.4952,-1.5485,-1.6318,-1.6907,-1.7342,-1.7633,-1.7022,-1.6225,-1.5275,-1.423,-1.301,-1.1579,-1.1826,-1.1667,-1.0996,-1.1638,-1.1472,-1.0449,-1.0703,-1.0645,-1.0312,-1.0664,-1.1135,-1.1705,-1.231,-1.3124,-1.4026,0.0,-1.5154,0.0,-1.7367,-1.7895,0.0,-2.219,-2.321,-2.3306,-2.6278,-2.7846,-2.8402,0.0,-2.7002,-2.6267,0.0,-2.4909,-2.4494,0.0,0.0,0.0,0.0,0.0,0.0,0.0,-2.0999,0.0,0.0,0.0,-1.8249,-1.6528,0.0,0.0,0.0,0.0,0.0,0.0,0.0,0.0,0.0,0.0,0.0,0.0,0.0,0.0,0.0,0.0,0.0,0.0,-2.6214,-2.6298,-2.7702,-2.8258,-2.851,-2.851,-2.7765,-2.6958,-2.611,-2.5326,-2.4498,-2.356,-2.361,-2.3587,-2.3519,-2.3875,-2.4037,-2.4057,-2.4352,-2.4717,-2.5116,-2.5174,-2.5381,-2.5693,-2.5693,-2.5693,-2.5693,-2.5742,-2.5762,-2.5771,-1.1139,-1.1912,-1.2373,-1.1693,-1.2476,-1.303,-1.2484,-1.3842,-1.4923,-1.4925,-1.6188,-1.7062,-1.7103,-1.7201,0.0,-1.8056,0.0,-1.6901,0.0,0.0,-1.3948,-1.2753,-1.2171,-1.1927,-1.2051,-1.167,-1.1318,-1.1046,-1.0723,-1.0479,-1.0312,-1.0713,-1.1287,-1.2039,-1.2839,0.0,-1.5539,0.0,0.0,0.0,0.0,0.0,0.0,-2.2746,-2.4826,-2.6115,-2.6915,-2.7765,-2.833,0.0,-2.6757,0.0,0.0,0.0,0.0,0.0,0.0,0.0,0.0,0.0,0.0,0.0,0.0,0.0,0.0,0.0,-1.7462,0.0,0.0,0.0,0.0,0.0,0.0,0.0,0.0,0.0,0.0,0.0,0.0,0.0,0.0,0.0,0.0,0.0,0.0,0.0,0.0,-2.5338,-2.6426,-2.6999,-2.7157,-2.6946,-2.6588,-2.6205,-2.5777,-2.5997,-2.5326,-2.3897,-2.4445,-2.4102,-2.3101,-2.3286,-2.3408,-2.3437,-2.3867,-2.416,-2.4346,-2.459,-2.4795,-2.4953,-2.5254,-2.5508,-2.5693,-2.5693,-2.5693,-2.5693,-1.1027,-1.1799,-1.2259,-1.1612,-1.238,-1.3027,-1.2849,-1.4463,-1.564,-1.5395,-1.6908,-1.8018,-1.7939,-1.7994,0.0,0.0,-1.8928,-1.827,0.0,0.0,-1.5174,-1.4419,-1.3036,0.0,0.0,-1.2115,-1.1506,-1.1606,-1.0958,-1.0655,-1.0665,-1.1074,-1.1743,-1.2657,-1.3686,-1.5258,-1.7162,0.0,0.0,-1.8989,-1.8292,-1.9206,-2.1269,-2.3486,-2.6085,-2.8391,-2.751,-2.7765,-2.8306,-2.6983,-2.6653,0.0,-2.6416,0.0,0.0,0.0,0.0,0.0,-2.1412,0.0,0.0,0.0,0.0,0.0,0.0,0.0,0.0,0.0,0.0,0.0,0.0,0.0,0.0,0.0,0.0,0.0,0.0,0.0,0.0,0.0,0.0,0.0,0.0,0.0,0.0,0.0,0.0,0.0,-2.5115,-2.5631,-2.5788,-2.5653,-2.5514,-2.5453,-2.5453,-2.5872,-2.5421,-2.4112,-2.4776,-2.4349,-2.3091,-2.3091,-2.3091,-2.311,-2.3477,-2.3682,-2.3809,-2.4121,-2.4316,-2.4443,-2.4766,-2.5088,-2.5352,-2.5596,-2.5693,-2.5693,-1.1571,-1.1612,-1.1768,-1.2182,-1.2571,-1.3049,-1.3746,-1.3912,-1.4533,-1.6049,0.0,0.0,0.0,0.0,0.0,0.0,0.0,-2.1409,-2.1063,0.0,-1.7161,-1.662,-1.4948,-1.4144,0.0,-1.3395,-1.2426,-1.1606,-1.1577,-1.1567,-1.1577,-1.1973,-1.2691,-1.3706,-1.5099,-1.6846,-1.8748,-1.884,-1.9695,-2.0943,-2.008,-2.1577,-2.4326,0.0,-2.5853,-2.8391,-2.751,0.0,0.0,-2.7861,-2.7152,0.0,0.0,0.0,0.0,0.0,0.0,0.0,0.0,0.0,0.0,-1.9885,0.0,0.0,0.0,0.0,-1.785,0.0,0.0,0.0,0.0,0.0,-1.6632,-1.6326,-1.6784,0.0,0.0,0.0,0.0,0.0,0.0,0.0,0.0,0.0,0.0,0.0,0.0,0.0,-2.3969,-2.4397,-2.477,-2.5212,-2.4766,-2.4541,-2.4541,-2.3691,-2.3222,-2.3135,-2.3178,-2.3178,-2.3091,-2.3091,-2.3091,-2.3091,-2.311,-2.3398,-2.3789,-2.3809,-2.4053,-2.4414,-2.4434,-2.4443,-2.456,-2.5372,-2.5693,-2.5693,-1.2048,-1.2048,-1.2099,0.0,0.0,-1.3501,-1.4348,-1.5243,-1.6526,0.0,0.0,0.0,0.0,0.0,-2.3275,0.0,0.0,-2.3127,-2.2058,-2.0051,0.0,0.0,0.0,-1.5453,0.0,0.0,-1.3008,-1.2455,-1.1868,-1.1606,-1.1616,-1.2373,-1.2903,-1.3314,-1.531,-1.7396,0.0,0.0,0.0,0.0,0.0,-2.4043,-2.582,0.0,0.0,-2.8471,-2.8179,-2.8259,0.0,-2.8306,-2.7809,-2.7379,-2.7804,-2.7296,-2.6406,-2.6047,-2.5823,0.0,0.0,0.0,-2.4959,-2.1364,0.0,0.0,0.0,0.0,0.0,0.0,0.0,0.0,0.0,-1.6512,-1.6188,-1.5761,-1.5396,-1.4951,0.0,0.0,0.0,0.0,0.0,0.0,0.0,0.0,0.0,0.0,0.0,0.0,0.0,-2.2719,-2.32,-2.343,-2.3503,-2.356,-2.356,-2.3854,-2.3734,-2.3101,-2.3734,-2.3691,-2.3091,-2.3091,-2.3091,-2.3091,-2.3091,-2.3179,-2.3359,-2.3359,-2.3403,-2.3549,-2.3887,-2.4004,-2.4102,-2.4971,-2.5293,-2.5332,-1.2514,-1.2649,0.0,0.0,0.0,0.0,0.0,0.0,0.0,0.0,-2.0948,0.0,-2.3727,0.0,-2.4236,0.0,-2.4365,-2.3869,-2.2358,-2.1317,0.0,-2.1075,-1.8907,0.0,0.0,-1.6409,-1.4722,-1.3785,-1.2912,-1.2347,-1.2077,-1.2846,-1.3301,-1.3547,-1.5564,-1.7662,-1.9688,0.0,-2.1203,0.0,0.0,-2.5084,0.0,0.0,-2.851,0.0,0.0,-2.851,-2.851,-2.851,-2.8282,-2.8026,-2.8402,-2.8041,-2.7409,-2.7023,-2.6808,-2.6442,-2.5245,-2.5712,0.0,0.0,-2.2006,0.0,-1.8273,0.0,0.0,0.0,0.0,0.0,0.0,0.0,-1.6572,-1.6585,-1.5489,-1.441,0.0,0.0,0.0,0.0,0.0,0.0,0.0,0.0,-1.6939,-1.8097,0.0,0.0,0.0,0.0,-2.166,-2.2031,-2.2574,-2.2945,-2.3091,-2.3691,-2.3691,-2.3101,-2.3691,-2.3691,-2.3091,-2.3091,-2.3091,-2.3091,-2.3091,-2.3091,-2.3091,-2.3091,-2.3091,-2.312,-2.3447,-2.3555,-2.3662,-2.4521,-2.4979,-2.5184,0.0,0.0,0.0,0.0,-1.4097,0.0,0.0,0.0,-1.905,0.0,-2.1204,-2.2387,-2.5081,-2.4553,-2.4576,-2.587,-2.5165,0.0,-2.231,-2.2709,0.0,0.0,-2.1829,-2.1704,-2.138,-1.926,-1.7291,-1.5497,-1.4526,-1.3646,-1.2935,-1.3392,-1.3847,-1.4336,-1.5862,0.0,-1.9463,-2.1279,-2.2007,-2.2091,-2.3911,-2.4864,-2.5451,-2.7658,0.0,-2.851,-2.851,-2.851,-2.851,-2.851,-2.851,-2.851,-2.851,-2.851,-2.8414,-2.787,-2.8114,-2.8124,-2.6325,-2.6212,-2.6094,-2.3944,0.0,0.0,0.0,0.0,-1.9774,0.0,0.0,0.0,0.0,0.0,-1.772,-1.8538,-1.6863,-1.52,-1.44,0.0,0.0,0.0,0.0,0.0,0.0,0.0,-1.456,-1.6817,-1.5997,0.0,0.0,0.0,0.0,-2.1161,-2.207,-2.2672,-2.3091,-2.3091,-2.3091,-2.3091,-2.3091,-2.3091,-2.3091,-2.3091,-2.3091,-2.3091,-2.3091,-2.3091,-2.3091,-2.3091,-2.3091,-2.3091,-2.3091,-2.3091,-2.3198,-2.4082,-2.4678,-2.5127,-1.3421,-1.3807,-1.42,0.0,-1.448,-1.4961,0.0,0.0,0.0,0.0,-2.4374,-2.5696,-2.747,-2.7451,-2.6908,-2.5953,-2.6221,0.0,0.0,0.0,0.0,-2.6308,-2.4061,-2.3039,-2.3631,-1.9739,0.0,-1.696,-1.4427,-1.3252,-1.334,-1.351,-1.3658,-1.3842,0.0,0.0,-1.85,-2.0625,-2.2293,-2.3738,-2.5555,-2.6029,0.0,0.0,-2.851,-2.851,-2.851,-2.851,-2.851,-2.851,-2.851,-2.851,-2.851,-2.851,-2.8486,-2.8342,-2.8402,-2.841,-2.7925,-2.787,-2.7458,-2.5266,-2.4508,-2.3653,0.0,0.0,0.0,0.0,0.0,0.0,0.0,0.0,0.0,-1.6971,-1.5787,-1.4788,0.0,0.0,0.0,0.0,0.0,0.0,0.0,0.0,-1.5195,-1.538,0.0,0.0,0.0,0.0,0.0,-2.1151,-2.207,-2.2672,-2.3091,-2.3091,-2.3091,-2.3091,-2.3091,-2.3091,-2.3091,-2.3091,-2.3091,-2.3091,-2.3091,-2.3091,-2.3091,-2.3091,-2.3091,-2.3091,-2.3091,-2.3091,-2.3159,-2.375,-2.4424,-2.5135,-1.3879,0.0,0.0,-1.5815,0.0,0.0,-1.8314,0.0,0.0,-2.4378,-2.5269,0.0,-2.8104,-2.8056,-2.7637,-2.7017,-2.7058,0.0,0.0,0.0,0.0,-2.7152,-2.6203,-2.5528,-2.5384,-2.2168,0.0,-1.8063,0.0,-1.4098,-1.3248,-1.348,-1.3705,-1.3949,0.0,-1.6192,0.0,-1.9962,-2.2302,-2.452,-2.5451,0.0,0.0,-2.7377,-2.7926,-2.7966,-2.8339,-2.851,-2.851,-2.851,-2.851,-2.851,-2.851,-2.851,-2.851,-2.851,-2.851,-2.851,-2.851,-2.851,-2.8187,-2.695,-2.6064,-2.4893,-2.2775,-2.2307,-2.2,0.0,0.0,0.0,0.0,0.0,0.0,-1.585,-1.4941,-1.4414,0.0,0.0,0.0,0.0,0.0,0.0,0.0,0.0,0.0,0.0,0.0,0.0,0.0,0.0,0.0,0.0,-2.1592,-2.2441,-2.2818,-2.3003,-2.3091,-2.3091,-2.3091,-2.3091,-2.3091,-2.3091,-2.3091,-2.3091,-2.3091,-2.3091,-2.3091,-2.3091,-2.3091,-2.3091,-2.3091,-2.3091,-2.312,-2.3418,-2.3935,-2.4578,0.0,0.0,0.0,0.0,0.0,0.0,0.0,-2.1074,0.0,-2.5218,0.0,-2.5947,-2.794,-2.7506,-2.7435,-2.8251,0.0,-2.676,-2.5942,-2.7659,-2.8043,-2.6553,-2.8052,-2.8222,-2.6738,-2.503,0.0,0.0,0.0,-1.5262,-1.2983,-1.329,-1.3677,-1.4127,0.0,0.0,0.0,-1.9519,-2.2154,0.0,-2.4548,-2.4978,-2.5902,-2.6712,-2.7092,-2.7307,-2.8059,-2.8391,-2.851,-2.851,-2.851,-2.851,-2.851,-2.851,-2.851,-2.851,-2.851,-2.851,-2.851,-2.8431,-2.8299,-2.8179,-2.6958,-2.5529,-2.453,-2.3237,-2.2217,-2.2092,-2.1435,0.0,0.0,0.0,0.0,-1.5516,0.0,0.0,0.0,0.0,0.0,0.0,0.0,0.0,0.0,0.0,0.0,0.0,0.0,0.0,0.0,0.0,0.0,0.0,-2.0918,0.0,-2.251,0.0,-2.3091,-2.3091,-2.3091,-2.3091,-2.3091,-2.3091,-2.3091,-2.3091,-2.3091,-2.3091,-2.3091,-2.3091,-2.3091,-2.3091,-2.3091,-2.3091,-2.3091,-2.3091,-2.3379,-2.3769,0.0,0.0,0.0,0.0,0.0,-2.1677,-2.414,-2.4682,-2.5254,-2.6638,-2.7995,0.0,-2.846,-2.7653,-2.7191,-2.7313,-2.7191,0.0,0.0,0.0,0.0,-2.9161,-2.8962,-2.8549,-2.7833,-2.4847,-2.2254,0.0,-1.673,-1.4545,-1.3379,-1.2738,-1.2695,-1.3158,0.0,0.0,-1.9234,-1.9716,0.0,-2.539,-2.4692,-2.4978,-2.583,-2.5986,-2.6547,-2.7226,-2.7389,-2.7886,-2.851,-2.851,-2.851,-2.851,-2.851,-2.851,-2.851,-2.851,-2.851,-2.851,-2.851,-2.7966,-2.7255,-2.6453,-2.6027,-2.5357,-2.3738,-2.3717,-2.3803,-2.304,-2.275,-2.2516,-2.1958,0.0,0.0,0.0,0.0,0.0,0.0,0.0,0.0,0.0,0.0,0.0,0.0,0.0,0.0,0.0,0.0,0.0,0.0,0.0,0.0,0.0,0.0,0.0,0.0,0.0,0.0,-2.3091,-2.3091,-2.3091,-2.3091,-2.3091,-2.3091,-2.3091,-2.3091,-2.3091,-2.3091,-2.3091,-2.3091,-2.3091,-2.3091,-2.3091,-2.3091,-2.3091,-2.314,-2.3276,0.0,0.0,0.0,0.0,0.0,0.0,0.0,-2.7152,0.0,-2.7644,-2.8063,-2.8194,-2.7671,-2.7759,-2.7851,-2.7851,-2.7851,-2.8211,-2.9131,-2.9585,-2.9792,-2.9792,-2.9528,0.0,-2.8549,-2.6375,-2.3969,-2.1278,-1.8321,-1.5918,-1.4048,-1.3045,-1.2819,-1.3323,0.0,-1.7066,0.0,0.0,0.0,-2.5768,-2.5009,-2.5156,-2.5777,-2.5777,-2.5788,-2.5883,-2.6299,-2.7051,-2.7886,-2.8351,-2.851,-2.851,-2.851,-2.851,-2.851,-2.851,-2.851,-2.8391,-2.7966,-2.751,-2.6969,-2.6038,-2.5453,-2.4914,-2.4026,-2.382,-2.3647,-2.3178,-2.3091,-2.2633,-2.1162,-1.9793,0.0,0.0,0.0,0.0,0.0,0.0,0.0,0.0,0.0,0.0,0.0,0.0,0.0,0.0,0.0,0.0,0.0,0.0,0.0,0.0,0.0,0.0,0.0,0.0,0.0,-2.3091,-2.3091,-2.3091,-2.3091,-2.3091,-2.3091,-2.3091,-2.3091,-2.3091,-2.3091,-2.3091,-2.3091,-2.3091,-2.3091,-2.3091,-2.3091,-2.3091,-2.3091,-2.312,0.0,-2.1455,0.0,0.0,-2.4531,0.0,0.0,-2.8748,-2.9478,-2.8574,-2.799,-2.7552,-2.7188,-2.7957,-2.8502,-2.8502,-2.8502,-2.887,-2.9753,-2.9792,-2.9792,-2.9792,-2.9792,-2.9528,-2.89,-2.7959,-2.5803,0.0,0.0,-1.7537,-1.4736,-1.3565,-1.3466,0.0,0.0,0.0,0.0,0.0,-2.3832,-2.6093,-2.5362,-2.5363,-2.5777,-2.5777,-2.5368,-2.4872,-2.5526,-2.6287,-2.701,-2.7672,-2.8167,-2.851,-2.851,-2.851,-2.851,-2.851,-2.851,-2.8339,-2.7684,-2.7185,-2.6723,-2.5986,-2.4988,-2.4198,-2.4198,-2.3647,-2.3091,-2.3091,-2.3023,-2.248,-2.0742,-2.0012,0.0,0.0,0.0,0.0,0.0,0.0,0.0,0.0,0.0,0.0,0.0,0.0,0.0,0.0,0.0,0.0,-1.4211,-1.5244,0.0,0.0,0.0,0.0,-2.1602,0.0,-2.3003,0.0,-2.3091,-2.3091,-2.3091,-2.3091,-2.3091,-2.3091,-2.3091,-2.3091,-2.3091,-2.3091,-2.3091,-2.3091,-2.3091,-2.3091,-2.3091,-2.3091,-2.3091,-2.3091,0.0,0.0,0.0,0.0,0.0,0.0,0.0,-2.9026,-2.9754,-2.9641,-2.959,-2.9217,-2.8436,-2.8442,-2.8502,-2.8502,-2.8502,-2.887,-2.9753,-2.9792,-2.9792,-2.9792,-2.9792,-2.9528,-2.89,-2.8335,-2.6375,0.0,0.0,0.0,0.0,-1.4033,0.0,0.0,0.0,0.0,0.0,-2.254,-2.3981,-2.629,-2.5491,-2.5445,-2.5777,-2.5777,-2.5746,-2.5704,-2.5777,-2.5861,-2.5955,-2.6038,-2.7121,-2.851,-2.851,-2.851,-2.851,-2.851,-2.851,-2.8471,-2.8391,-2.7162,-2.5913,-2.583,-2.452,-2.3222,-2.3222,-2.3178,-2.3091,-2.3091,-2.2789,-2.2041,-2.0293,-2.0537,-2.0579,0.0,0.0,0.0,0.0,0.0,0.0,0.0,0.0,0.0,0.0,0.0,0.0,0.0,0.0,0.0,0.0,-1.4834,0.0,-1.7393,0.0,-1.9862,-2.0723,-2.1943,0.0,-2.3091,-2.3091,-2.3091,-2.3091,-2.3091,-2.3091,-2.3091,-2.3091,-2.3091,-2.3091,-2.3091,-2.3091,-2.3091,-2.3091,-2.3091,-2.3091,-2.3091,-2.3091,-2.3091,0.0,0.0,0.0,0.0,0.0,0.0,0.0,-2.9503,-2.9792,-2.9792,-2.9792,-2.9456,-2.8581,-2.8961,-2.9091,-2.8542,-2.8961,-2.9417,-2.9792,-2.9792,-2.9792,-2.9792,-2.9792,-2.9679,-2.9453,-2.8888,-2.7449,0.0,0.0,0.0,0.0,0.0,0.0,0.0,0.0,-2.2147,-2.3886,-2.4542,-2.5449,-2.6331,-2.5806,-2.5655,-2.5777,-2.5777,-2.5495,-2.5031,-2.5031,-2.5031,-2.5031,-2.5031,-2.583,-2.6876,-2.6876,-2.7255,-2.7725,-2.7725,-2.7725,-2.7592,-2.704,-2.5955,-2.4872,-2.4317,-2.3637,-2.3091,-2.3091,-2.3091,-2.3023,-2.2769,-2.2175,-2.1492,-2.0791,-2.0361,-2.0064,0.0,0.0,0.0,0.0,0.0,0.0,0.0,0.0,0.0,0.0,0.0,0.0,0.0,0.0,0.0,0.0,0.0,0.0,-1.6165,0.0,-1.8816,-2.0595,-2.1855,-2.2682,-2.3091,-2.3091,-2.3091,-2.3091,-2.3091,-2.3091,-2.3091,-2.3091,-2.3091,-2.3091,-2.3091,-2.3091,-2.3091,-2.3091,-2.3091,-2.3091,-2.3091,-2.3091,-2.3091,-2.82,0.0,-2.7125,0.0,-2.8176,-2.794,-2.9565,-2.9792,-2.9792,-2.9792,-2.9792,-2.9585,-2.8961,-2.9417,-2.9546,-2.8922,-2.9456,-2.9792,-2.9792,-2.9792,-2.9792,-2.9792,-2.9792,0.0,-2.9792,-2.939,-2.8448,-2.6977,-2.4355,0.0,0.0,0.0,0.0,0.0,-2.3155,-2.426,-2.5064,-2.6279,-2.6718,-2.66,-2.6319,-2.6038,-2.5819,-2.6121,-2.5663,-2.4914,-2.521,-2.5126,-2.4829,-2.4584,-2.4914,-2.5453,-2.5704,-2.6246,-2.6794,-2.6794,-2.6794,-2.6629,-2.5986,-2.5158,-2.4327,-2.3691,-2.3309,-2.3091,-2.3091,-2.3091,-2.2945,-2.2441,-2.1707,-2.1151,-2.1064,-2.0283,-1.9822,0.0,0.0,0.0,0.0,0.0,0.0,0.0,0.0,-1.6077,0.0,0.0,0.0,0.0,0.0,0.0,0.0,0.0,0.0,0.0,0.0,0.0,0.0,0.0,-2.2493,-2.3091,-2.3091,-2.3091,-2.3091,-2.3091,-2.3091,-2.3091,-2.3091,-2.3091,-2.3091,-2.3091,-2.3091,-2.3091,-2.3091,-2.3091,-2.3091,-2.3091,-2.3091,-2.3091,-2.8775,-2.8863,-2.9051,-2.9679,-2.9767,-2.9767,-2.9792,-2.9792,-2.9792,-2.9792,-2.9792,-2.9792,-2.9792,-2.9792,-2.9792,-2.9792,-2.9792,-2.9792,-2.9792,-2.9792,-2.9792,0.0,0.0,-2.9792,-2.9792,-2.9779,-2.9227,-2.8084,0.0,0.0,-2.3841,0.0,0.0,-2.3415,-2.4551,-2.5554,-2.6444,-2.7304,-2.7494,-2.7174,-2.7174,-2.6629,-2.5902,-2.6846,-2.6588,-2.5913,-2.6846,-2.6588,-2.5652,-2.4787,-2.4498,-2.4669,-2.5537,-2.5819,-2.583,-2.583,-2.583,-2.5819,-2.5777,-2.5158,-2.4498,-2.4498,-2.3777,-2.3091,-2.3091,-2.3091,-2.2857,-2.207,-2.1543,-2.1064,-2.0693,-2.0595,-2.0312,-1.9434,0.0,0.0,0.0,0.0,0.0,0.0,-1.5576,-1.4813,-1.4803,0.0,0.0,0.0,0.0,0.0,0.0,0.0,0.0,-1.8733,-1.7709,0.0,-2.0586,-2.1124,-2.1974,-2.3091,-2.3091,-2.3091,-2.3091,-2.3091,-2.3091,-2.3091,-2.3091,-2.3091,-2.3091,-2.3091,-2.3091,-2.3091,-2.3091,-2.3091,-2.3091,-2.3091,-2.3091,-2.3091,-2.9478,-2.9515,-2.9578,-2.9767,-2.9792,-2.9792,-2.9792,-2.9792,-2.9792,-2.9792,-2.9792,-2.9792,-2.9792,-2.9792,-2.9792,0.0,-2.9792,-2.9792,0.0,-2.9792,-2.9792,-2.9792,-2.9792,-2.9792,-2.9792,-2.9792,-2.9428,-2.8662,0.0,0.0,0.0,-2.4981,-2.5526,-2.6772,-2.7103,-2.7507,-2.785,-2.8139,-2.7853,-2.7185,-2.7185,-2.6629,-2.5819,-2.6121,-2.5704,-2.4956,-2.5253,-2.5168,-2.4872,-2.4584,-2.4872,-2.5453,-2.5694,-2.5411,-2.4904,-2.4904,-2.4904,-2.4904,-2.4904,-2.4231,-2.356,-2.356,-2.3309,-2.3091,-2.3091,-2.2695,-2.2207,-2.1943,-2.1299,-2.0732,-2.0635,-2.0605,-2.0517,-2.0243,0.0,0.0,0.0,0.0,0.0,0.0,0.0,-1.5566,0.0,-1.5352,0.0,0.0,0.0,0.0,0.0,0.0,0.0,0.0,-1.9393,0.0,-2.0595,-2.1115,-2.1974,-2.3091,-2.3091,-2.3091,-2.3091,-2.3091,-2.3091,-2.3091,-2.3091,-2.3091,-2.3091,-2.3091,-2.3091,-2.3091,-2.3091,-2.3091,-2.3091,-2.3091,-2.3091,-2.3091,-2.9792,-2.9792,-2.9792,-2.9792,-2.9792,-2.9792,-2.9792,-2.9792,-2.9792,-2.9792,-2.9792,-2.9792,-2.9792,-2.9792,0.0,-2.9792,-2.9792,0.0,-2.9792,-2.9792,-2.9792,-2.9792,-2.9792,-2.9792,-2.9792,0.0,0.0,-2.9252,-2.8346,-2.7763,-2.7433,-2.7309,-2.7624,-2.8242,-2.8421,-2.8331,-2.8127,-2.8379,-2.8179,-2.7684,-2.7348,-2.6846,-2.6287,-2.5944,-2.5453,-2.4999,-2.4999,-2.4999,-2.4956,-2.4616,-2.4872,-2.5242,-2.4904,-2.4402,-2.4112,-2.4787,-2.4744,-2.4498,-2.4498,-2.382,-2.3091,-2.3091,-2.3091,-2.3091,-2.3091,-2.2607,-2.207,-2.1924,-2.1318,-2.0762,-2.0635,-2.0605,-2.0605,-2.0605,0.0,-1.959,0.0,0.0,0.0,0.0,0.0,0.0,0.0,-1.6232,0.0,0.0,0.0,0.0,0.0,0.0,0.0,-1.9662,-2.0627,0.0,-2.1094,-2.1535,-2.219,-2.3091,-2.3091,-2.3091,-2.3091,-2.3091,-2.3091,-2.3091,-2.3091,-2.3091,-2.3091,-2.3091,-2.3091,-2.3091,-2.3091,-2.3091,-2.3091,-2.3091,-2.3091,-2.3091,-2.9792,-2.9792,0.0,0.0,-2.9792,0.0,-2.9792,-2.9792,-2.9792,-2.9792,-2.9792,-2.9792,-2.9792,-2.9792,-2.9792,-2.9792,0.0,0.0,0.0,-2.9792,-2.9792,-2.9792,-2.9792,0.0,-2.9792,-2.9792,-2.9792,-2.9792,-2.9792,-2.9792,-2.9792,-2.956,-2.9003,-2.8215,-2.8661,-2.8371,-2.7637,-2.8247,-2.851,-2.8471,-2.7644,-2.7267,-2.7092,-2.6246,-2.5861,-2.5777,-2.5777,-2.5819,-2.5777,-2.4956,-2.4712,-2.4531,-2.3647,-2.3343,-2.3594,-2.5158,-2.5031,-2.4413,-2.4413,-2.3777,-2.3091,-2.3091,-2.3091,-2.3091,-2.3091,-2.2769,-2.2402,-2.2012,-2.1562,-2.1103,-2.0723,-2.0625,-2.0595,-2.0566,-1.9862,-1.9277,-1.9248,0.0,0.0,0.0,0.0,0.0,0.0,-1.6985,-1.7275,0.0,0.0,0.0,0.0,0.0,-1.6294,-2.0477,-2.1463,-2.1919,-2.1885,-2.2181,-2.2557,-2.3091,-2.3091,-2.3091,-2.3091,-2.3091,-2.3091,-2.3091,-2.3091,-2.3091,-2.3091,-2.3091,-2.3091,-2.3091,-2.3091,-2.3091,-2.3091,-2.3091,-2.3091,-2.3091,0.0,0.0,-2.9792,-2.9792,-2.9792,-2.9792,-2.9792,-2.9792,-2.9792,-2.9792,-2.9792,-2.9792,-2.9792,-2.9792,-2.9792,-2.9792,-2.9792,-2.9792,-2.9792,-2.9792,-2.9792,-2.9792,-2.9792,-2.9792,-2.9792,-2.9792,-2.9792,-2.9792,-2.9792,-2.9792,-2.9792,-2.974,-2.9482,-2.9081,-2.9223,-2.9067,-2.8712,-2.8724,-2.8724,-2.8685,-2.8339,-2.7805,-2.7185,-2.6969,-2.6412,-2.5777,-2.5777,-2.6246,-2.6846,-2.664,-2.6558,-2.6505,-2.6299,-2.5746,-2.4988,-2.4026,-2.3604,-2.344,-2.344,-2.3266,-2.3091,-2.3091,-2.3091,-2.3091,-2.3091,-2.2769,-2.248,-2.2383,-2.1726,-2.1161,-2.1094,-2.0791,-2.0498,-2.0117,-1.9629,-1.917,-1.8802,0.0,0.0,0.0,-1.7578,-1.7539,-1.7142,-1.7842,-1.8037,0.0,0.0,0.0,0.0,0.0,-1.8166,-2.054,-2.145,-2.1889,-2.1885,-2.2181,-2.2557,-2.3091,-2.3091,-2.3091,-2.3091,-2.3091,-2.3091,-2.3091,-2.3091,-2.3091,-2.3091,-2.3091,-2.3091,-2.3091,-2.3091,-2.3091,-2.3091,-2.3091,-2.3091,-2.3091,-2.9792,-2.9792,-2.9792,-2.9792,-2.9792,-2.9792,-2.9792,-2.9792,-2.9792,-2.9792,-2.9792,-2.9792,-2.9792,-2.9792,-2.9792,-2.9792,-2.9792,-2.9792,-2.9792,-2.9792,-2.9792,-2.9792,-2.9792,-2.9792,-2.9792,-2.9792,-2.9792,-2.9792,-2.9792,-2.9792,-2.9792,-2.9792,-2.9702,-2.956,-2.9457,-2.9341,-2.9236,-2.9,-2.8922,-2.8922,-2.8736,-2.8367,-2.7874,-2.7389,-2.6876,-2.637,-2.5944,-2.6121,-2.6547,-2.6547,-2.6547,-2.6547,-2.6547,-2.6205,-2.561,-2.4606,-2.4059,-2.3734,-2.3734,-2.344,-2.3091,-2.3091,-2.3091,-2.3091,-2.3091,-2.2916,-2.2701,-2.2549,-2.1992,-2.1434,-2.1229,-2.0869,-2.0458,-1.999,-1.9561,-1.9131,-1.8666,-1.8076,0.0,-1.7939,-1.812,-1.8281,-1.8252,-1.8838,-1.8955,-1.8335,0.0,0.0,-1.7952,-1.873,-1.9816,-2.1142,-2.165,-2.1971,-2.2168,-2.2483,-2.2804,-2.3091,-2.3091,-2.3091,-2.3091,-2.3091,-2.3091,-2.3091,-2.3091,-2.3091,-2.3091,-2.3091,-2.3091,-2.3091,-2.3091,-2.3091,-2.3091,-2.3091,-2.3091,-2.3091,-2.9792,-2.9792,-2.9792,-2.9792,-2.9792,-2.9792,-2.9792,-2.9792,-2.9792,-2.9792,-2.9792,-2.9792,-2.9792,-2.9792,-2.9792,-2.9792,-2.9792,-2.9792,-2.9792,-2.9792,-2.9792,-2.9792,-2.9792,-2.9792,-2.9792,-2.9792,-2.9792,-2.9792,-2.9792,-2.9792,-2.9792,-2.9792,-2.9792,-2.9792,-2.956,-2.947,-2.947,-2.9236,-2.917,-2.9131,-2.8922,-2.8843,-2.8712,-2.7794,-2.7429,-2.7307,-2.6494,-2.6205,-2.6205,-2.6205,-2.6121,-2.5986,-2.5986,-2.5913,-2.5777,-2.5777,-2.5284,-2.4659,-2.4541,-2.382,-2.3091,-2.3091,-2.3091,-2.3091,-2.3091,-2.3091,-2.2994,-2.2643,-2.2275,-2.1846,-2.1375,-2.0967,-2.0517,-1.9912,-1.9521,-1.9111,-1.8578,0.0,-1.8208,-1.8559,-1.8715,-1.8939,-1.9346,-1.9707,-1.9795,-1.9502,-2.0136,0.0,0.0,-2.0207,-2.0986,-2.1864,-2.2028,-2.2232,-2.2607,-2.2916,-2.3091,-2.3091,-2.3091,-2.3091,-2.3091,-2.3091,-2.3091,-2.3091,-2.3091,-2.3091,-2.3091,-2.3091,-2.3091,-2.3091,-2.3091,-2.3091,-2.3091,-2.3091,-2.3091,-2.3091,-2.9792,-2.9792,-2.9792,-2.9792,-2.9792,-2.9792,-2.9792,-2.9792,-2.9792,-2.9792,-2.9792,-2.9792,-2.9792,-2.9792,-2.9792,-2.9792,-2.9792,-2.9792,-2.9792,-2.9792,-2.9792,-2.9792,-2.9792,-2.9792,-2.9792,-2.9792,-2.9792,-2.9792,-2.9792,-2.9792,-2.9792,-2.9792,-2.9792,-2.9792,-2.9753,-2.974,-2.9702,-2.947,-2.9341,-2.9341,-2.9118,-2.8961,-2.8791,-2.8633,-2.8447,-2.8259,-2.8139,-2.8087,-2.8087,-2.8087,-2.7592,-2.6969,-2.6969,-2.6464,-2.5777,-2.5777,-2.5704,-2.5453,-2.4701,-2.382,-2.3091,-2.3091,-2.3091,-2.3091,-2.3091,-2.3091,-2.3081,-2.3013,-2.2705,-2.2285,-2.1865,-2.1426,-2.0752,-1.957,-1.9326,-1.9014,0.0,0.0,-1.8529,-1.8598,-1.9241,-1.9746,-1.9814,-1.9873,-2.0039,-2.038,-2.0146,-2.0137,-2.0381,-2.0518,-2.1007,-2.1873,-2.254,-2.2938,-2.2994,-2.3062,-2.3091,-2.3091,-2.3091,-2.3091,-2.3091,-2.3091,-2.3091,-2.3091,-2.3091,-2.3091,-2.3091,-2.3091,-2.3091,-2.3091,-2.3091,-2.3091,-2.3091,-2.3091,-2.3091,-2.3091,-2.9792,-2.9792,-2.9792,-2.9792,-2.9792,-2.9792,-2.9792,-2.9792,-2.9792,-2.9792,-2.9792,-2.9792,-2.9792,-2.9792,-2.9792,-2.9792,-2.9792,-2.9792,-2.9792,-2.9792,-2.9792,-2.9792,-2.9792,-2.9792,-2.9792,-2.9792,-2.9792,-2.9792,-2.9792,-2.9792,-2.9792,-2.9792,-2.9792,-2.9792,-2.9792,-2.9792,-2.9792,-2.9663,-2.9611,-2.9611,-2.9353,-2.9197,-2.9106,-2.9,-2.8843,-2.8657,-2.8657,-2.8578,-2.851,-2.851,-2.8219,-2.7886,-2.7886,-2.7592,-2.7244,-2.7244,-2.6246,-2.4999,-2.4616,-2.382,-2.3091,-2.3091,-2.3091,-2.3091,-2.3091,-2.3091,-2.3091,-2.3091,-2.276,-2.2451,-2.2266,-2.1639,-2.1005,-2.043,-1.9746,0.0,0.0,-1.8773,-1.8773,-1.9231,-1.9678,-2.001,-2.0244,-2.0264,-2.039,-2.0586,-2.0419,-2.0352,-2.0595,-2.0605,-2.08,-2.1192,-2.2434,-2.31,-2.3091,-2.3091,-2.3091,-2.3091,-2.3091,-2.3091,-2.3091,-2.3091,-2.3091,-2.3091,-2.3091,-2.3091,-2.3091,-2.3091,-2.3091,-2.3091,-2.3091,-2.3091,-2.3091,-2.3091,-2.3091,-2.3091,-2.9792,-2.9792,-2.9792,-2.9792,-2.9792,-2.9792,-2.9792,-2.9792,-2.9792,-2.9792,-2.9792,-2.9792,-2.9792,-2.9792,-2.9792,-2.9792,-2.9792,-2.9792,-2.9792,-2.9792,-2.9792,-2.9792,-2.9792,-2.9792,-2.9792,-2.9792,-2.9792,-2.9792,-2.9792,-2.9792,-2.9792,-2.9792,-2.9792,-2.9792,-2.9792,-2.9792,-2.9792,-2.9792,-2.9792,-2.9792,-2.956,-2.947,-2.938,-2.9236,-2.904,-2.8882,-2.8843,-2.8685,-2.8538,-2.851,-2.851,-2.851,-2.851,-2.851,-2.851,-2.851,-2.6917,-2.5084,-2.4872,-2.4112,-2.344,-2.344,-2.3266,-2.3091,-2.3091,-2.3091,-2.3091,-2.3091,-2.2838,-2.2627,-2.2529,-2.1931,-2.1395,-2.1093,0.0,0.0,0.0,-1.9251,-1.9143,-1.9834,-2.0,-2.0195,-2.0576,-2.0605,-2.0605,-2.0605,-2.0605,-2.0605,-2.0605,-2.0605,-2.0703,-2.0897,-2.2223,-2.3003,-2.3091,-2.3091,-2.3091,-2.3091,-2.3091,-2.3091,-2.3091,-2.3091,-2.3091,-2.3091,-2.3091,-2.3091,-2.3091,-2.3091,-2.3091,-2.3091,-2.3091,-2.3091,-2.3091,-2.3091,-2.3091,-2.3091,-2.9792,-2.9792,-2.9792,-2.9792,-2.9792,-2.9792,-2.9792,-2.9792,-2.9792,-2.9792,-2.9792,-2.9792,-2.9792,-2.9792,-2.9792,-2.9792,-2.9792,-2.9792,-2.9792,-2.9792,-2.9792,-2.9792,-2.9792,-2.9792,-2.9792,-2.9792,-2.9792,-2.9792,-2.9792,-2.9792,-2.9792,-2.9792,-2.9792,-2.9792,-2.9792,-2.9792,-2.9792,-2.9792,-2.9792,-2.9792,-2.9792,-2.9611,-2.9419,-2.938,-2.9275,-2.9052,-2.8882,-2.8803,-2.8764,-2.8538,-2.851,-2.851,-2.851,-2.851,-2.851,-2.851,-2.7805,-2.6794,-2.5955,-2.5073,-2.4413,-2.4413,-2.3734,-2.3091,-2.3091,-2.3091,-2.3091,-2.3091,-2.3071,-2.2925,-2.2588,-2.2461,-2.2021,-2.085,0.0,0.0,-1.9443,-1.9619,-1.9844,-1.9902,-2.0273,-2.0566,-2.0595,-2.0605,-2.0605,-2.0605,-2.0605,-2.0605,-2.0605,-2.0605,-2.0957,-2.1797,-2.2305,-2.2701,-2.3091,-2.3091,-2.3091,-2.3091,-2.3091,-2.3091,-2.3091,-2.3091,-2.3091,-2.3091,-2.3091,-2.3091,-2.3091,-2.3091,-2.3091,-2.3091,-2.3091,-2.3091,-2.3091,-2.3091,-2.3091,-2.3091,-2.9792,-2.9792,-2.9792,-2.9792,-2.9792,-2.9792,-2.9792,-2.9792,-2.9792,-2.9792,-2.9792,-2.9792,-2.9792,-2.9792,-2.9792,-2.9792,-2.9792,-2.9792,-2.9792,-2.9792,-2.9792,-2.9792,-2.9792,-2.9792,-2.9792,-2.9792,-2.9792,-2.9792,-2.9792,-2.9792,-2.9792,-2.9792,-2.9792,-2.9792,-2.9792,-2.9792,-2.9792,-2.9792,-2.9792,-2.9792,-2.9792,-2.974,-2.965,-2.965,-2.9417,-2.9091,-2.9013,-2.8816,-2.8618,-2.855,-2.851,-2.851,-2.851,-2.851,-2.8379,-2.7846,-2.747,-2.701,-2.6038,-2.5158,-2.437,-2.3777,-2.3353,-2.3091,-2.3091,-2.3091,-2.3091,-2.3091,-2.3091,-2.3042,-2.2886,-2.2685,-2.2353,-2.1855,0.0,-2.0586,-2.0508,-2.0118,-2.0019,-2.0283,-2.0507,-2.0605,-2.0605,-2.0605,-2.0605,-2.0605,-2.0605,-2.0605,-2.0605,-2.0605,-2.0742,-2.1084,-2.1783,-2.2451,-2.3091,-2.3091,-2.3091,-2.3091,-2.3091,-2.3091,-2.3091,-2.3091,-2.3091,-2.3091,-2.3091,-2.3091,-2.3091,-2.3091,-2.3091,-2.3091,-2.3091,-2.3091,-2.3091,-2.3091,-2.3091,-2.3091,-2.9792,-2.9792,-2.9792,-2.9792,-2.9792,-2.9792,-2.9792,-2.9792,-2.9792,-2.9792,-2.9792,-2.9792,-2.9792,-2.9792,-2.9792,-2.9792,-2.9792,-2.9792,-2.9792,-2.9792,-2.9792,-2.9792,-2.9792,-2.9792,-2.9792,-2.9792,-2.9792,-2.9792,-2.9792,-2.9792,-2.9792,-2.9792,-2.9792,-2.9792,-2.9792,-2.9792,-2.9792,-2.9792,-2.9792,-2.9792,-2.9792,-2.9792,-2.9792,-2.9792,-2.9585,-2.93,-2.9209,-2.9,-2.8776,-2.8657,-2.8578,-2.8578,-2.851,-2.851,-2.8351,-2.747,-2.7185,-2.6928,-2.5704,-2.4956,-2.437,-2.3691,-2.3309,-2.3091,-2.3091,-2.3091,-2.3091,-2.3091,-2.3091,-2.3091,-2.3091,-2.2857,-2.2627,-2.2353,-2.1562,-2.0996,-2.1016,-2.0498,-2.0225,-2.0566,-2.0605,-2.0605,-2.0605,-2.0605,-2.0605,-2.0605,-2.0605,-2.0605,-2.0605,-2.0605,-2.0605,-2.0595,-2.1448,-2.2227,-2.2886,-2.3033,-2.3091,-2.3091,-2.3091,-2.3091,-2.3091,-2.3091,-2.3091,-2.3091,-2.3091,-2.3091,-2.3091,-2.3091,-2.3091,-2.3091,-2.3091,-2.3091,-2.3091,-2.3091,-2.3091,-2.3091,-2.9792,-2.9792,-2.9792,-2.9792,-2.9792,-2.9792,-2.9792,-2.9792,-2.9792,-2.9792,-2.9792,-2.9792,-2.9792,-2.9792,-2.9792,-2.9792,-2.9792,-2.9792,-2.9792,-2.9792,-2.9792,-2.9792,-2.9792,-2.9792,-2.9792,-2.9792,-2.9792,-2.9792,-2.9792,-2.9792,-2.9792,-2.9792,-2.9792,-2.9792,-2.9792,-2.9792,-2.9792,-2.9792,-2.9792,-2.9792,-2.9792,-2.9792,-2.9792,-2.9792,-2.9792,-2.9753,-2.9509,-2.9419,-2.9341,-2.8961,-2.8791,-2.8764,-2.8578,-2.851,-2.8351,-2.747,-2.7185,-2.6805,-2.4999,-2.4498,-2.4498,-2.4498,-2.382,-2.3091,-2.3091,-2.3091,-2.3091,-2.3091,-2.3091,-2.3091,-2.3091,-2.3091,-2.2818,-2.2031,-2.1885,-2.1623,-2.0732,-2.0605,-2.0605,-2.0605,-2.0605,-2.0605,-2.0605,-2.0605,-2.0605,-2.0605,-2.0605,-2.0605,-2.0605,-2.0605,-2.0605,-2.0595,-2.1438,-2.209,-2.25,-2.2886,-2.3091,-2.3091,-2.3091,-2.3091,-2.3091,-2.3091,-2.3091,-2.3091,-2.3091,-2.3091,-2.3091,-2.3091,-2.3091,-2.3091,-2.3091,-2.3091,-2.3091,-2.3091,-2.3091,-2.3091,-3.0049,-3.0011,-2.9972,-2.983,-2.9792,-2.9792,-2.9792,-2.9792,-2.9792,-2.9792,-2.9792,-2.9792,-2.9792,-2.9792,-2.9792,-2.9792,-2.9792,-2.9792,-2.9792,-2.9792,-2.9792,-2.9792,-2.9792,-2.9792,-2.9792,-2.9792,-2.9792,-2.9792,-2.9792,-2.9792,-2.9792,-2.9792,-2.9792,-2.9792,-2.9792,-2.9792,-2.9792,-2.9792,-2.9792,-2.9792,-2.9792,-2.9792,-2.9792,-2.9792,-2.9702,-2.9509,-2.9419,-2.9314,-2.917,-2.9052,-2.9013,-2.8973,-2.8764,-2.8724,-2.8526,-2.751,-2.7185,-2.6928,-2.5746,-2.4956,-2.4498,-2.4498,-2.4284,-2.4069,-2.4069,-2.4069,-2.3907,-2.3222,-2.3091,-2.3091,-2.3091,-2.3091,-2.2916,-2.2412,-2.208,-2.1689,-2.1113,-2.0762,-2.0605,-2.0605,-2.0605,-2.0605,-2.0605,-2.0605,-2.0605,-2.0605,-2.0605,-2.0605,-2.0605,-2.0605,-2.0615,-2.0595,-2.1142,-2.1631,-2.207,-2.2783,-2.3091,-2.3091,-2.3091,-2.3091,-2.3091,-2.3091,-2.3091,-2.3091,-2.3091,-2.3091,-2.3091,-2.3091,-2.3091,-2.3091,-2.3091,-2.3091,-2.3091,-2.3091,-2.3091,-2.3091,-3.0228,-3.0228,-3.0152,-2.9934,-2.9934,-2.9908,-2.9792,-2.9792,-2.9792,-2.9792,-2.9792,-2.9792,-2.9792,-2.9792,-2.9792,-2.9792,-2.9792,-2.9792,-2.9792,-2.9792,-2.9792,-2.9792,-2.9792,-2.9792,-2.9792,-2.9792,-2.9792,-2.9792,-2.9792,-2.9792,-2.9792,-2.9792,-2.9792,-2.9792,-2.9792,-2.9792,-2.9792,-2.9792,-2.9792,-2.9792,-2.9792,-2.9792,-2.9792,-2.9792,-2.9702,-2.956,-2.956,-2.9482,-2.9378,-2.9236,-2.9118,-2.8961,-2.8843,-2.8764,-2.8486,-2.751,-2.7185,-2.701,-2.6038,-2.5158,-2.4669,-2.5379,-2.4744,-2.395,-2.395,-2.395,-2.3777,-2.3222,-2.3091,-2.3222,-2.3604,-2.3647,-2.3507,-2.3068,-2.268,-2.2128,-2.1289,-2.085,-2.0605,-2.0605,-2.0605,-2.0605,-2.0605,-2.0605,-2.0605,-2.0605,-2.0605,-2.0605,-2.0605,-2.0605,-2.0605,-2.0605,-2.0996,-2.1445,-2.1885,-2.2549,-2.2925,-2.3091,-2.3091,-2.3091,-2.3091,-2.3091,-2.3091,-2.3091,-2.3091,-2.3091,-2.3091,-2.3091,-2.3091,-2.3091,-2.3091,-2.3091,-2.3091,-2.3091,-2.3091,-2.3091,-3.0444,-3.0444,-3.0368,-3.0152,-3.0113,-3.0049,-2.9869,-2.983,-2.983,-2.9792,-2.9792,-2.9792,-2.9792,-2.9792,-2.9792,-2.9792,-2.9792,-2.9792,-2.9792,-2.9792,-2.9792,-2.9792,-2.9792,-2.9792,-2.9792,-2.9792,-2.9792,-2.9792,-2.9792,-2.9792,-2.9792,-2.9792,-2.9792,-2.9792,-2.9792,-2.9792,-2.9792,-2.9792,-2.9792,-2.9792,-2.9792,-2.9792,-2.9792,-2.9792,-2.9792,-2.9792,-2.9792,-2.9792,-2.9753,-2.9509,-2.9145,-2.8831,-2.8791,-2.8657,-2.8379,-2.7551,-2.7307,-2.7133,-2.6287,-2.5411,-2.5126,-2.6805,-2.5242,-2.3343,-2.343,-2.3474,-2.343,-2.3353,-2.3343,-2.3604,-2.4456,-2.4531,-2.4353,-2.3939,-2.3453,-2.2686,-2.1428,-2.0908,-2.0644,-2.0605,-2.0605,-2.0605,-2.0605,-2.0605,-2.0605,-2.0605,-2.0605,-2.0605,-2.0605,-2.0605,-2.0605,-2.0605,-2.0967,-2.1387,-2.1816,-2.2246,-2.2685,-2.3091,-2.3091,-2.3091,-2.3091,-2.3091,-2.3091,-2.3091,-2.3091,-2.3091,-2.3091,-2.3091,-2.3091,-2.3091,-2.3091,-2.3091,-2.3091,-2.3091,-2.3091,-2.3091,-3.066,-3.0609,-3.0571,-3.0368,-3.033,-3.0254,-3.0075,-3.0049,-2.9972,-2.983,-2.9792,-2.9792,-2.9792,-2.9792,-2.9792,-2.9792,-2.9792,-2.9792,-2.9792,-2.9792,-2.9792,-2.9792,-2.9792,-2.9792,-2.9792,-2.9792,-2.9792,-2.9792,-2.9792,-2.9792,-2.9792,-2.9792,-2.9792,-2.9792,-2.9792,-2.9792,-2.9792,-2.9792,-2.9792,-2.9792,-2.9792,-2.9792,-2.9792,-2.9792,-2.9792,-2.9792,-2.9792,-2.9792,-2.9753,-2.9509,-2.9341,-2.9223,-2.891,-2.8764,-2.8685,-2.8339,-2.8219,-2.8179,-2.7966,-2.7296,-2.6723,-2.7103,-2.6205,-2.5411,-2.6121,-2.6299,-2.608,-2.5368,-2.5189,-2.5284,-2.5495,-2.4956,-2.4467,-2.4364,-2.3392,-2.2426,-2.1848,-2.1367,-2.0957,-2.0644,-2.0605,-2.0605,-2.0605,-2.0605,-2.0605,-2.0605,-2.0605,-2.0605,-2.0605,-2.0605,-2.0605,-2.0605,-2.0693,-2.0928,-2.1327,-2.1807,-2.2402,-2.3091,-2.3091,-2.3091,-2.3091,-2.3091,-2.3091,-2.3091,-2.3091,-2.3091,-2.3091,-2.3091,-2.3091,-2.3091,-2.3091,-2.3091,-2.3091,-2.3091,-2.3091,-2.3091,-3.0836,-3.0849,-3.0761,-3.0571,-3.0533,-3.0495,-3.0254,-3.0152,-3.0049,-2.9972,-2.9869,-2.9792,-2.9792,-2.9792,-2.9792,-2.9792,-2.9792,-2.9792,-2.9792,-2.9792,-2.9792,-2.9792,-2.9792,-2.9792,-2.9792,-2.9792,-2.9792,-2.9792,-2.9792,-2.9792,-2.9792,-2.9792,-2.9792,-2.9792,-2.9792,-2.9792,-2.9792,-2.9792,-2.9792,-2.9792,-2.9792,-2.9792,-2.9792,-2.9792,-2.9792,-2.9792,-2.9792,-2.9702,-2.9611,-2.947,-2.9263,-2.9067,-2.887,-2.8724,-2.8657,-2.855,-2.851,-2.851,-2.851,-2.7846,-2.7307,-2.7725,-2.7133,-2.6505,-2.6505,-2.6547,-2.6287,-2.5368,-2.5158,-2.5158,-2.5158,-2.4829,-2.4498,-2.4498,-2.3746,-2.2876,-2.2259,-2.1641,-2.1103,-2.0908,-2.0732,-2.0605,-2.0605,-2.0605,-2.0605,-2.0605,-2.0605,-2.0605,-2.0605,-2.0605,-2.0585,-2.0605,-2.0605,-2.0789,-2.119,-2.167,-2.2207,-2.2799,-2.3003,-2.3091,-2.3091,-2.3091,-2.3091,-2.3091,-2.3091,-2.3091,-2.3091,-2.3091,-2.3091,-2.3091,-2.3091,-2.3091,-2.3091,-2.3091,-2.3091,-2.3091,-3.0986,-3.0986,-3.0949,-3.0773,-3.0736,-3.0685,-3.0482,-3.0267,-3.0152,-3.0113,-2.9934,-2.9792,-2.9792,-2.9792,-2.9792,-2.9792,-2.9792,-2.9792,-2.9792,-2.9792,-2.9792,-2.9792,-2.9792,-2.9792,-2.9792,-2.9792,-2.9792,-2.9792,-2.9792,-2.9792,-2.9792,-2.9792,-2.9792,-2.9792,-2.9792,-2.9792,-2.9792,-2.9792,-2.9792,-2.9792,-2.9792,-2.9792,-2.9792,-2.9792,-2.9792,-2.9792,-2.9792,-2.965,-2.947,-2.9419,-2.9184,-2.891,-2.887,-2.8736,-2.859,-2.8538,-2.855,-2.855,-2.851,-2.7966,-2.7551,-2.8139,-2.7846,-2.7133,-2.6038,-2.5902,-2.583,-2.5126,-2.4829,-2.4701,-2.4701,-2.4616,-2.4498,-2.4498,-2.4051,-2.3406,-2.2605,-2.1863,-2.1356,-2.121,-2.084,-2.0605,-2.0605,-2.0605,-2.0605,-2.0605,-2.0605,-2.0605,-2.0605,-2.0603,-2.0681,-2.0819,-2.0672,-2.0756,-2.1073,-2.1553,-2.1982,-2.2412,-2.2789,-2.3023,-2.3091,-2.3091,-2.3091,-2.3091,-2.3091,-2.3091,-2.3091,-2.3091,-2.3091,-2.3091,-2.3091,-2.3091,-2.3091,-2.3091,-2.3091,-2.3091,-3.0986,-3.0986,-3.0986,-3.0949,-3.0949,-3.0874,-3.0698,-3.0495,-3.0292,-3.0113,-2.9934,-2.9792,-2.9792,-2.9792,-2.9792,-2.9792,-2.9792,-2.9792,-2.9792,-2.9792,-2.9792,-2.9792,-2.9792,-2.9792,-2.9792,-2.9792,-2.9792,-2.9792,-2.9792,-2.9792,-2.9792,-2.9792,-2.9792,-2.9792,-2.9792,-2.9792,-2.9792,-2.9792,-2.9792,-2.9792,-2.9792,-2.9792,-2.9792,-2.9792,-2.9792,-2.9792,-2.9792,-2.9792,-2.9702,-2.947,-2.938,-2.9302,-2.9118,-2.9052,-2.8973,-2.8803,-2.8764,-2.8724,-2.855,-2.8431,-2.8179,-2.751,-2.7846,-2.7886,-2.6205,-2.6423,-2.6969,-2.6846,-2.6205,-2.561,-2.561,-2.4999,-2.4498,-2.4498,-2.377,-2.3006,-2.2568,-2.2412,-2.2019,-2.1278,-2.084,-2.0605,-2.0605,-2.0605,-2.0605,-2.0605,-2.0605,-2.0605,-2.0605,-2.0605,-2.0937,-2.171,-2.0986,-2.0644,-2.0693,-2.1103,-2.1543,-2.1982,-2.2402,-2.274,-2.3091,-2.3091,-2.3091,-2.3091,-2.3091,-2.3091,-2.3091,-2.3091,-2.3091,-2.3091,-2.3091,-2.3091,-2.3091,-2.3091,-2.3091,-2.3091,-3.0986,-3.0986,-3.0986,-3.0986,-3.0986,-3.0986,-3.0874,-3.0685,-3.0533,-3.047,-3.0164,-2.9972,-2.9972,-2.9869,-2.9792,-2.9792,-2.9792,-2.9792,-2.9792,-2.9792,-2.9792,-2.9792,-2.9792,-2.9792,-2.9792,-2.9792,-2.9792,-2.9792,-2.9792,-2.9792,-2.9792,-2.9792,-2.9792,-2.9792,-2.9792,-2.9792,-2.9792,-2.9792,-2.9792,-2.9792,-2.9792,-2.9792,-2.9792,-2.9792,-2.9792,-2.9792,-2.9792,-2.9702,-2.956,-2.9419,-2.9341,-2.9236,-2.9131,-2.9091,-2.9052,-2.8882,-2.8791,-2.8764,-2.855,-2.851,-2.8431,-2.8007,-2.8219,-2.8299,-2.7499,-2.7255,-2.6928,-2.5883,-2.5379,-2.4904,-2.4402,-2.3983,-2.3734,-2.3734,-2.3353,-2.3033,-2.2847,-2.2656,-2.2197,-2.1298,-2.084,-2.0605,-2.0605,-2.0605,-2.0605,-2.0605,-2.0605,-2.0605,-2.0605,-2.0595,-2.0771,-2.1181,-2.081,-2.0605,-2.0605,-2.1016,-2.1288,-2.1523,-2.1953,-2.251,-2.3091,-2.3091,-2.3091,-2.3091,-2.3091,-2.2964,-2.2769,-2.3003,-2.2955,-2.2769,-2.3003,-2.3091,-2.3091,-2.3091,-2.3091,-2.3091]},{"header":{"parameterUnit":"m.s-1","parameterCategory":1,"la1":30.6,"la2":28.766,"lo1":-90.7593,"lo2":-88.6598,"dy":0.0162,"dx":0.0183,"nx":116,"ny":114,"refTime":"2024-06-01T12:00:00:Z","depth":0,"parameterNumber":3,"parameterNumberName":"V-component_of_WINDS"},"data":[0.0,0.0,0.0,0.0,0.0,0.0,0.0,0.0,0.0,0.0,0.0,0.0,0.0,0.0,0.0,0.0,0.0,0.0,0.0,0.0,0.0,0.0,0.0,0.0,0.0,0.0,0.0,0.0,0.0,0.0,0.0,0.0,0.0,0.0,0.0,0.0,0.0,0.0,0.0,0.0,0.0,0.0,0.0,0.0,0.0,0.0,0.0,0.0,0.0,0.0,0.0,0.0,0.0,0.0,0.0,0.0,0.0,0.0,0.0,0.0,0.0,0.0,0.0,0.0,0.0,0.0,0.0,0.0,0.0,0.0,0.0,0.0,0.0,0.0,0.0,0.0,0.0,0.0,0.0,0.0,0.0,0.0,0.0,0.0,0.0,0.0,0.0,0.0,0.0,0.0,0.0,0.0,0.0,0.0,0.0,0.0,0.0,0.0,0.0,0.0,0.0,0.0,0.0,0.0,0.0,0.0,0.0,0.0,0.0,0.0,0.0,0.0,0.0,0.0,0.0,0.0,0.0,0.0,0.0,0.0,0.0,0.0,0.0,0.0,0.0,0.0,0.0,0.0,0.0,0.0,0.0,0.0,0.0,0.0,0.0,0.0,0.0,0.0,0.0,0.0,0.0,0.0,0.0,0.0,0.0,0.0,0.0,0.0,0.0,0.0,0.0,0.0,0.0,0.0,0.0,0.0,0.0,0.0,0.0,0.0,0.0,0.0,0.0,0.0,0.0,0.0,0.0,0.0,0.0,0.0,0.0,0.0,0.0,0.0,0.0,0.0,0.0,0.0,0.0,0.0,0.0,0.0,0.0,0.0,0.0,0.0,0.0,0.0,0.0,0.0,0.0,0.0,0.0,0.0,0.0,0.0,0.0,0.0,0.0,0.0,0.0,0.0,0.0,0.0,0.0,0.0,0.0,0.0,0.0,0.0,0.0,0.0,0.0,0.0,0.0,0.0,0.0,0.0,0.0,0.0,0.0,0.0,0.0,0.0,0.0,0.0,0.0,0.0,0.0,0.0,0.0,0.0,0.0,0.0,0.0,0.0,0.0,0.0,0.0,0.0,0.0,0.0,0.0,0.0,0.0,0.0,0.0,0.0,0.0,0.0,0.0,0.0,0.0,0.0,0.0,0.0,0.0,0.0,0.0,0.0,0.0,0.0,0.0,0.0,0.0,0.0,0.0,0.0,0.0,0.0,0.0,0.0,0.0,0.0,0.0,0.0,0.0,0.0,0.0,0.0,0.0,0.0,0.0,0.0,0.0,0.0,0.0,0.0,0.0,0.0,0.0,0.0,0.0,0.0,0.0,0.0,0.0,0.0,0.0,0.0,0.0,0.0,0.0,0.0,0.0,0.0,0.0,0.0,0.0,0.0,0.0,0.0,0.0,0.0,0.0,0.0,0.0,0.0,0.0,0.0,0.0,0.0,0.0,0.0,0.0,0.0,0.0,0.0,0.0,0.0,0.0,0.0,0.0,0.0,0.0,0.0,0.0,0.0,0.0,0.0,0.0,0.0,0.0,0.0,0.0,0.0,0.0,0.0,0.0,0.0,0.0,0.0,0.0,0.0,0.0,0.0,0.0,0.0,0.0,0.0,0.0,0.0,0.0,0.0,0.0,0.0,0.0,0.0,0.0,0.0,0.0,0.0,0.0,0.0,0.0,0.0,0.0,0.0,0.0,0.0,0.0,0.0,0.0,0.0,0.0,0.0,0.0,0.0,0.0,0.0,0.0,0.0,0.0,0.0,0.0,0.0,0.0,0.0,0.0,0.0,0.0,0.0,0.0,0.0,0.0,0.0,0.0,0.0,0.0,0.0,0.0,0.0,0.0,0.0,0.0,0.0,0.0,0.0,0.0,0.0,0.0,0.0,0.0,0.0,0.0,0.0,0.0,0.0,0.0,0.0,0.0,0.0,0.0,0.0,0.0,0.0,0.0,0.0,0.0,0.0,0.0,0.0,0.0,0.0,0.0,0.0,0.0,0.0,0.0,0.0,0.0,0.0,0.0,0.0,0.0,0.0,0.0,0.0,0.0,0.0,0.0,0.0,0.0,0.0,0.0,0.0,0.0,0.0,0.0,0.0,0.0,0.0,0.0,0.0,0.0,0.0,0.0,0.0,0.0,0.0,0.0,0.0,0.0,0.0,0.0,0.0,0.0,0.0,0.0,0.0,0.0,0.0,0.0,0.0,0.0,0.0,0.0,0.0,0.0,0.0,0.0,0.0,0.0,0.0,0.0,0.0,0.0,0.0,0.0,0.0,0.0,0.0,0.0,0.0,0.0,0.0,0.0,0.0,0.0,0.0,0.0,0.0,0.0,0.0,0.0,0.0,0.0,0.0,0.0,0.0,0.0,0.0,0.0,0.0,0.0,0.0,0.0,0.0,0.0,0.0,0.0,0.0,0.0,0.0,0.0,0.0,0.0,0.0,0.0,0.0,0.0,0.0,0.0,0.0,0.0,0.0,0.0,0.0,0.0,0.0,0.0,0.0,0.0,0.0,0.0,0.0,0.0,0.0,0.0,0.0,0.0,0.0,0.0,0.0,0.0,0.0,0.0,0.0,0.0,0.0,0.0,0.0,0.0,0.0,0.0,0.0,0.0,0.0,0.0,0.0,0.0,0.0,0.0,0.0,0.0,0.0,0.0,0.0,0.0,0.0,0.0,0.0,0.0,0.0,0.0,0.0,0.0,0.0,0.0,0.0,0.0,0.0,0.0,0.0,0.0,0.0,0.0,0.0,0.0,0.0,0.0,0.0,0.0,0.0,0.0,0.0,0.0,0.0,0.0,0.0,0.0,0.0,0.0,0.0,0.0,0.0,0.0,0.0,0.0,0.0,0.0,0.0,0.0,0.0,0.0,0.0,0.0,0.0,0.0,0.0,0.0,0.0,0.0,0.0,0.0,0.0,0.0,0.0,0.0,0.0,0.0,0.0,0.0,0.0,0.0,0.0,0.0,0.0,0.0,0.0,0.0,0.0,0.0,0.0,0.0,0.0,0.0,0.0,0.0,0.0,0.0,0.0,0.0,0.0,0.0,0.0,0.0,0.0,0.0,0.0,0.0,0.0,0.0,0.0,0.0,0.0,0.0,0.0,0.0,0.0,0.0,0.0,0.0,0.0,0.0,0.0,0.0,0.0,0.0,0.0,0.0,0.0,0.0,0.0,0.0,0.0,0.0,0.0,0.0,0.0,0.0,0.0,0.0,0.0,0.0,0.0,0.0,0.0,0.0,0.0,0.0,0.0,0.0,0.0,0.0,0.0,0.0,0.0,0.0,0.0,0.0,0.0,0.0,0.0,0.0,0.0,0.0,0.0,0.0,0.0,0.0,0.0,0.0,0.0,0.0,0.0,0.0,0.0,0.0,0.0,0.0,0.0,0.0,0.0,0.0,0.0,0.0,0.0,0.0,0.0,0.0,0.0,0.0,0.0,0.0,0.0,0.0,0.0,0.0,0.0,0.0,0.0,0.0,0.0,0.0,0.0,0.0,0.0,0.0,0.0,0.0,0.0,0.0,0.0,0.0,0.0,0.0,0.0,0.0,0.0,0.0,0.0,0.0,0.0,0.0,0.0,0.0,0.0,0.0,0.0,0.0,0.0,0.0,0.0,0.0,0.0,0.0,0.0,0.0,0.0,0.0,0.0,0.0,0.0,0.0,0.0,0.0,0.0,0.0,0.0,0.0,0.0,0.0,0.0,0.0,0.0,0.0,0.0,0.0,0.0,0.0,0.0,0.0,0.0,0.0,0.0,0.0,0.0,0.0,0.0,0.0,0.0,0.0,0.0,0.0,0.0,0.0,0.0,0.0,0.0,0.0,0.0,0.0,0.0,0.0,0.0,0.0,0.0,0.0,0.0,0.0,0.0,0.0,0.0,0.0,0.0,0.0,0.0,0.0,0.0,0.0,0.0,0.0,0.0,0.0,0.0,0.0,0.0,0.0,0.0,0.0,0.0,0.0,0.0,0.0,0.0,0.0,0.0,0.0,0.0,0.0,0.0,0.0,0.0,0.0,0.0,0.0,0.0,0.0,0.0,0.0,0.0,0.0,0.0,0.0,0.0,0.0,0.0,0.0,0.0,0.0,0.0,0.0,0.0,0.0,0.0,0.0,0.0,0.0,0.0,0.0,0.0,0.0,0.0,0.0,0.0,0.0,0.0,0.0,0.0,0.0,0.0,0.0,0.0,0.0,0.0,0.0,0.0,0.0,0.0,0.0,0.0,0.0,0.0,0.0,0.0,0.0,0.0,0.0,0.0,0.0,0.0,0.0,0.0,0.0,0.0,0.0,0.0,0.0,0.0,0.0,0.0,0.0,0.0,0.0,0.0,0.0,0.0,0.0,0.0,0.0,0.0,0.0,0.0,0.0,0.0,0.0,0.0,0.0,0.0,0.0,0.0,0.0,0.0,0.0,0.0,0.0,0.0,0.0,0.0,0.0,0.0,0.0,0.0,0.0,0.0,0.0,0.0,0.0,0.0,0.0,0.0,0.0,0.0,0.0,0.0,0.0,0.0,0.0,0.0,0.0,0.0,0.0,0.0,0.0,0.0,0.0,0.0,0.0,0.0,0.0,0.0,0.0,0.0,0.0,0.0,0.0,0.0,0.0,0.0,0.0,0.0,0.0,0.0,0.0,0.0,0.0,0.0,0.0,0.0,0.0,0.0,0.0,0.0,0.0,0.0,0.0,0.0,0.0,0.0,0.0,0.0,0.0,0.0,0.0,0.0,0.0,0.0,0.0,0.0,0.0,0.0,0.0,0.0,0.0,0.0,0.0,0.0,0.0,0.0,0.0,0.0,0.0,0.0,0.0,0.0,0.0,0.0,0.0,0.0,0.0,0.0,0.0,0.0,0.0,0.0,0.0,0.0,0.0,0.0,0.0,0.0,0.0,0.0,0.0,0.0,0.0,0.0,0.0,0.0,0.0,0.0,0.0,0.0,0.0,0.0,0.0,0.0,0.0,0.0,0.0,0.0,0.0,0.0,0.0,0.0,0.0,0.0,0.0,0.0,0.0,0.0,0.0,0.0,0.0,0.0,0.0,0.0,0.0,0.0,0.0,0.0,0.0,0.0,0.0,0.0,0.0,0.0,0.0,0.0,0.0,0.0,0.0,0.0,0.0,0.0,0.0,0.0,0.0,0.0,0.0,0.0,0.0,0.0,0.0,0.0,0.0,0.0,0.0,0.0,0.0,0.0,0.0,0.0,0.0,0.0,0.0,0.0,0.0,0.0,0.0,0.0,0.0,0.0,0.0,0.0,0.0,0.0,0.0,0.0,0.0,0.0,0.0,0.0,0.0,0.0,0.0,0.0,0.0,0.0,0.0,0.0,0.0,0.0,0.0,0.0,0.0,0.0,0.0,0.0,0.0,0.0,0.0,0.0,0.0,0.0,0.0,0.0,0.0,0.0,0.0,0.0,0.0,0.0,0.0,0.0,0.0,0.0,0.0,0.0,0.0,0.0,0.0,0.0,0.0,0.0,0.0,0.0,0.0,0.0,0.0,0.0,0.0,0.0,0.0,0.0,0.0,0.0,0.0,0.0,0.0,0.0,0.0,0.0,0.0,0.0,0.0,0.0,0.0,0.0,0.0,0.0,0.0,0.0,0.0,0.0,0.0,0.0,0.0,0.0,0.0,0.0,0.0,0.0,0.0,0.0,0.0,0.0,0.0,0.0,0.0,0.0,0.0,0.0,0.0,0.0,0.0,0.0,0.0,0.0,0.0,0.0,0.0,0.0,0.0,0.0,0.0,0.0,0.0,0.0,0.0,0.0,0.0,0.0,0.0,0.0,0.0,0.0,0.0,0.0,0.0,0.0,0.0,0.0,0.0,0.0,0.0,0.0,0.0,0.0,0.0,0.0,0.0,0.0,0.0,0.0,0.0,0.0,0.0,0.0,0.0,0.0,0.0,0.0,0.0,0.0,0.0,0.0,0.0,0.0,0.0,0.0,0.0,0.0,0.0,0.0,0.0,0.0,0.0,0.0,0.0,0.0,0.0,0.0,0.0,0.0,0.0,0.0,0.0,0.0,0.0,0.0,0.0,0.0,0.0,0.0,0.0,0.0,0.0,0.0,0.0,0.0,0.0,0.0,0.0,0.0,0.0,0.0,0.0,0.0,-2.4419,0.0,0.0,0.0,0.0,0.0,0.0,0.0,0.0,0.0,0.0,0.0,0.0,0.0,0.0,0.0,0.0,0.0,0.0,0.0,0.0,0.0,0.0,0.0,0.0,-1.3024,-1.3947,-1.3973,-1.4296,-1.4382,-1.4101,0.0,0.0,0.0,0.0,0.0,-1.3032,-1.3028,-1.3405,-1.4124,-1.4882,-1.6029,-1.7501,-1.5934,-1.5012,-1.4632,0.0,0.0,0.0,0.0,0.0,0.0,0.0,0.0,0.0,0.0,0.0,0.0,0.0,0.0,0.0,0.0,0.0,0.0,0.0,0.0,0.0,0.0,0.0,0.0,0.0,0.0,0.0,0.0,0.0,0.0,0.0,0.0,0.0,0.0,0.0,0.0,0.0,0.0,0.0,0.0,0.0,0.0,0.0,0.0,0.0,0.0,0.0,0.0,0.0,0.0,0.0,0.0,0.0,0.0,0.0,0.0,0.0,0.0,0.0,0.0,0.0,0.0,0.0,0.0,0.0,0.0,0.0,0.0,0.0,0.0,0.0,-2.6639,0.0,0.0,0.0,0.0,0.0,0.0,0.0,0.0,0.0,0.0,0.0,0.0,0.0,0.0,0.0,0.0,0.0,0.0,0.0,0.0,0.0,-1.1628,-1.2414,-1.3701,-1.4625,-1.4954,-1.5413,-1.5517,-1.5112,-1.4897,0.0,0.0,0.0,-1.3989,-1.3989,-1.477,-1.5478,-1.6088,-1.7242,-1.8586,-2.0096,-2.0234,-1.9975,-1.9303,-1.7363,0.0,0.0,0.0,0.0,0.0,0.0,0.0,0.0,0.0,0.0,0.0,0.0,0.0,0.0,0.0,0.0,0.0,0.0,0.0,0.0,0.0,0.0,0.0,0.0,0.0,0.0,0.0,0.0,0.0,0.0,0.0,0.0,0.0,0.0,0.0,0.0,0.0,0.0,0.0,0.0,0.0,0.0,0.0,0.0,0.0,0.0,0.0,0.0,0.0,0.0,0.0,0.0,0.0,0.0,0.0,0.0,0.0,0.0,0.0,0.0,0.0,0.0,0.0,0.0,0.0,-3.2037,-3.2765,-3.3518,-3.4068,-3.1695,-3.0895,-3.1082,0.0,0.0,0.0,0.0,0.0,0.0,0.0,0.0,0.0,0.0,0.0,0.0,0.0,0.0,0.0,0.0,0.0,0.0,0.0,0.0,-1.2456,-1.3242,-1.4023,-1.5039,-1.6387,-1.5966,-1.5908,-1.6577,-1.5955,0.0,0.0,-1.5597,-1.5597,-1.5597,-1.6329,-1.676,-1.6863,-1.9631,-2.1751,-2.3233,-2.3922,-2.4212,-2.3953,-2.0423,-1.8844,-1.873,0.0,0.0,0.0,0.0,0.0,0.0,0.0,0.0,0.0,0.0,0.0,0.0,0.0,0.0,0.0,0.0,0.0,0.0,0.0,0.0,0.0,0.0,0.0,0.0,0.0,0.0,0.0,0.0,0.0,0.0,0.0,0.0,0.0,0.0,0.0,0.0,0.0,0.0,0.0,0.0,0.0,-2.1066,-2.0127,0.0,0.0,0.0,0.0,0.0,0.0,0.0,0.0,0.0,0.0,0.0,0.0,0.0,0.0,-3.0613,-3.2481,-3.3453,-3.3566,-3.5515,-3.6454,-3.647,-3.7226,-3.7938,-3.8553,-3.8213,0.0,-3.2676,-3.1017,0.0,0.0,0.0,0.0,0.0,0.0,0.0,0.0,0.0,0.0,0.0,0.0,0.0,0.0,0.0,0.0,0.0,0.0,0.0,0.0,0.0,-1.569,-1.6807,-1.7929,-1.8099,-1.7968,-1.7599,-1.725,-1.6715,-1.5924,-1.5899,-1.6088,-1.6519,-1.7277,-1.8706,-2.0825,-2.3003,-2.4876,-2.6402,-2.6747,-2.6902,-2.6833,-2.516,-2.3216,-2.1113,-1.9568,0.0,0.0,0.0,0.0,0.0,0.0,0.0,0.0,0.0,0.0,0.0,0.0,0.0,0.0,0.0,0.0,0.0,0.0,0.0,0.0,0.0,0.0,0.0,0.0,0.0,0.0,0.0,0.0,0.0,0.0,0.0,0.0,0.0,0.0,0.0,0.0,0.0,0.0,0.0,-2.0806,-2.2799,-2.2183,-2.3333,-2.3479,0.0,0.0,0.0,0.0,0.0,0.0,0.0,0.0,0.0,-3.172,-3.2773,-3.3906,-3.5104,-3.6448,-3.7307,-3.7695,-3.8651,-3.9104,-3.912,-3.9428,-3.9735,-4.0011,-4.0043,-3.8991,-3.708,-3.4862,-3.3275,-3.2109,0.0,0.0,0.0,0.0,0.0,-3.1477,0.0,0.0,0.0,0.0,0.0,0.0,0.0,0.0,0.0,0.0,0.0,0.0,-1.6031,-1.749,-1.8782,-1.9804,-2.0212,-2.0079,-1.9293,-1.8704,-1.7902,-1.6829,-1.6588,-1.6829,-1.7569,-1.8941,-2.1302,-2.4698,-2.5979,-2.732,-2.8678,-2.8678,-2.8678,-2.8678,-2.8678,-2.6902,-2.3781,-2.2233,-2.0716,-1.9148,0.0,0.0,0.0,0.0,0.0,0.0,0.0,0.0,0.0,0.0,0.0,0.0,0.0,0.0,0.0,0.0,0.0,0.0,0.0,0.0,0.0,0.0,0.0,0.0,0.0,0.0,0.0,0.0,0.0,0.0,0.0,0.0,0.0,0.0,0.0,0.0,0.0,-2.2653,-2.4436,-2.4079,-2.594,-2.6328,0.0,0.0,0.0,0.0,0.0,0.0,-3.0901,-3.1979,-3.3347,-3.5137,-3.606,-3.7307,-3.8926,-3.946,-4.0024,-4.0496,-4.0675,-4.0772,-4.0802,-4.095,-4.1047,-4.1047,-4.1047,-4.0934,-4.0577,-3.8132,-3.6465,-3.5347,-3.4117,-3.3647,-3.3793,-3.5024,-3.5153,-3.5065,0.0,0.0,0.0,0.0,0.0,0.0,0.0,0.0,0.0,0.0,0.0,-1.6082,-1.7611,-1.9036,-2.0556,-2.218,-2.1659,-2.1553,-2.2321,-2.0357,-1.9144,-1.9131,-1.8459,-1.8424,-1.9183,-2.2031,-2.4698,-2.7109,-2.7902,-2.8678,-2.9455,-2.9455,-2.9455,-2.9455,-2.9455,-2.8558,-2.6971,-2.5419,-2.3884,-2.2268,-1.9993,0.0,0.0,0.0,0.0,0.0,0.0,0.0,0.0,0.0,0.0,0.0,0.0,0.0,0.0,0.0,0.0,0.0,0.0,0.0,0.0,0.0,0.0,0.0,0.0,0.0,0.0,0.0,0.0,0.0,0.0,0.0,0.0,0.0,0.0,0.0,0.0,0.0,0.0,-2.5646,-2.9141,0.0,0.0,0.0,0.0,-3.0532,-3.1325,-3.24,-3.3809,-3.5839,-3.7355,-3.8165,-3.9509,-4.0286,-4.0383,-4.0415,-4.0464,-4.0496,-4.1223,-4.1547,-4.1579,-4.2213,-4.2489,-4.2489,-4.2489,-4.2148,-4.1434,-3.9959,-3.9311,-3.9165,-3.8375,-3.8084,-3.8165,-3.8926,-3.9214,-3.9295,0.0,0.0,0.0,0.0,0.0,-1.0159,-1.0639,-1.1603,-1.2737,-1.3954,-1.5402,-1.7061,-1.9036,-2.0633,-2.2139,-2.365,-2.3164,-2.2706,-2.2559,-2.0886,-2.0163,-2.0751,-2.0027,-2.0629,-2.2781,-2.4883,-2.6808,-2.8647,-2.9386,-3.0161,-3.0972,-3.0972,-3.0972,-3.0972,-3.0972,-3.042,-2.9386,-2.7833,-2.6023,-2.4008,-2.2216,-2.0406,0.0,0.0,0.0,0.0,0.0,0.0,0.0,0.0,0.0,0.0,0.0,0.0,0.0,0.0,0.0,0.0,0.0,0.0,0.0,0.0,0.0,0.0,0.0,0.0,0.0,0.0,0.0,0.0,0.0,0.0,0.0,0.0,0.0,0.0,0.0,0.0,0.0,-2.9076,-3.1591,0.0,0.0,-3.1364,-3.2417,-3.3582,-3.4764,-3.6044,-3.7485,-3.8699,-3.9476,-3.9735,-4.1128,-4.1842,-4.1842,-4.2796,-4.3265,-4.3265,-4.3524,-4.3654,-4.3686,-4.3913,-4.4026,-4.4026,-4.4026,-4.3881,-4.3605,-4.3135,-4.1808,-4.0108,-3.9849,-3.9752,-3.9768,-4.0043,-4.0124,-4.0173,0.0,0.0,0.0,0.0,-0.9822,-1.0633,-1.1383,-1.2381,-1.3565,-1.5054,-1.6536,-1.8285,-2.0538,-2.218,-2.3614,-2.4871,-2.4354,-2.3779,-2.337,-2.17,-2.0982,-2.154,-2.1523,-2.2684,-2.515,-2.6981,-2.8527,-2.9763,-3.0554,-3.121,-3.1744,-3.2023,-3.2162,-3.2179,-3.2438,-3.2145,-3.1369,-3.0351,-2.8454,-2.6023,-2.4456,-2.3095,-2.1682,0.0,0.0,0.0,0.0,0.0,0.0,0.0,0.0,0.0,0.0,0.0,0.0,0.0,0.0,0.0,0.0,0.0,0.0,0.0,0.0,0.0,0.0,0.0,0.0,0.0,0.0,0.0,0.0,0.0,0.0,0.0,0.0,0.0,0.0,0.0,-3.1632,-3.1632,-3.4182,-3.5266,-3.3615,-3.4748,-3.5989,-3.6929,-3.7857,-3.8812,-3.9797,-4.0707,-4.1209,-4.1209,-4.2618,-4.3331,-4.3331,-4.4318,-4.4787,-4.4787,-4.4787,-4.4787,-4.4787,-4.4787,-4.4787,-4.4787,-4.4787,-4.4787,-4.4787,-4.4787,-4.367,-4.1938,-4.1938,-4.1938,-4.1938,-4.1938,-4.1938,-4.1905,0.0,0.0,0.0,-0.9847,-1.0616,-1.1367,-1.2178,-1.3557,-1.5028,-1.6512,-1.7975,-1.9773,-2.2076,-2.3644,-2.4873,-2.5811,-2.5164,-2.4765,-2.4942,-2.2854,-2.1605,-2.161,-2.3038,-2.4548,-2.6107,-2.837,-2.9868,-3.0569,-3.1417,-3.1779,-3.1684,-3.2536,-3.2919,-3.2953,-3.3749,-3.3662,-3.2938,-3.2938,-3.1248,-2.8403,-2.6835,-2.5749,-2.4747,0.0,0.0,0.0,0.0,0.0,0.0,0.0,0.0,0.0,0.0,0.0,0.0,0.0,0.0,0.0,0.0,0.0,0.0,0.0,0.0,0.0,0.0,0.0,0.0,0.0,0.0,0.0,0.0,0.0,0.0,0.0,0.0,0.0,-2.9864,-3.1841,-3.3234,-3.3242,-3.6961,-3.8683,-3.6643,-3.8893,-4.0496,-4.0529,-4.0545,-4.0577,-4.0594,-4.1907,-4.2667,-4.2667,-4.4091,-4.482,-4.482,-4.4852,-4.4852,-4.4852,-4.4852,-4.4852,-4.4852,-4.4852,-4.4852,-4.4852,-4.4852,-4.4852,-4.4852,-4.4852,-4.4852,-4.4852,-4.4804,-4.4787,-4.4787,-4.4787,-4.4787,-4.469,0.0,0.0,-0.9059,-0.9728,-1.0545,-1.1367,-1.2178,-1.3557,-1.5028,-1.6512,-1.7975,-1.9959,-2.2784,-2.4071,-2.4999,-2.5684,-2.5195,-2.4604,-2.4024,-2.2438,-2.2284,-2.396,-2.5855,-2.7605,-2.916,-2.9883,-3.0826,-3.2015,-3.2353,-3.2769,-3.3265,-3.3411,-3.3477,-3.3494,-3.3817,-3.3819,-3.3633,-3.3729,-3.2938,-3.1472,-2.9403,-2.7799,-2.6454,0.0,0.0,0.0,0.0,0.0,0.0,0.0,0.0,0.0,0.0,0.0,0.0,0.0,0.0,0.0,0.0,0.0,0.0,0.0,0.0,0.0,0.0,0.0,0.0,0.0,0.0,0.0,0.0,0.0,0.0,0.0,0.0,-3.1186,-3.1396,-3.3728,-3.5801,-3.6821,-3.8408,-3.9412,-3.9347,-4.0043,-4.0707,-4.1272,-4.1759,-4.2246,-4.2796,-4.3702,-4.4204,-4.4204,-4.5063,-4.5532,-4.5532,-4.605,-4.6309,-4.6309,-4.6309,-4.6309,-4.6309,-4.6309,-4.6309,-4.6309,-4.6309,-4.6309,-4.6309,-4.6309,-4.6309,-4.6212,-4.5192,-4.4787,-4.4787,-4.4787,-4.4787,-4.4755,0.0,-0.8854,-0.9394,-1.0131,-1.0937,-1.1765,-1.2635,-1.4005,-1.5494,-1.6976,-1.8454,-2.0399,-2.3105,-2.3888,-2.4492,-2.5177,-2.4671,-2.4118,-2.3642,-2.3098,-2.3673,-2.5666,-2.752,-2.909,-3.0299,-3.1006,-3.1775,-3.2565,-3.2975,-3.3371,-3.3796,-3.4107,-3.4244,-3.4264,-3.471,-3.4737,-3.4461,-3.4522,-3.4111,-3.3266,-3.1555,-3.0195,-2.8972,-2.6966,-2.602,-2.547,-2.33,-2.2257,-2.1749,-2.0809,0.0,0.0,0.0,0.0,0.0,0.0,0.0,0.0,0.0,0.0,0.0,0.0,0.0,0.0,0.0,0.0,0.0,0.0,0.0,0.0,0.0,0.0,0.0,0.0,-3.2206,-3.3906,-3.4198,-3.5671,-3.7258,-3.8683,-3.9444,-4.0156,-4.0869,-4.1484,-4.2019,-4.2439,-4.3136,-4.3719,-4.414,-4.4836,-4.5208,-4.5208,-4.5888,-4.6261,-4.6261,-4.6989,-4.7362,-4.7362,-4.7637,-4.7783,-4.7783,-4.7783,-4.7783,0.0,-4.7783,-4.7621,-4.7362,-4.7362,-4.7168,0.0,0.0,0.0,0.0,0.0,-4.5678,-4.5629,0.0,-0.9181,-0.9951,-1.0886,-1.1592,-1.2348,-1.3253,-1.4657,-1.6136,-1.7614,-1.9072,-2.0876,-2.3139,-2.3408,-2.3691,-2.4411,-2.3884,-2.3539,-2.3579,-2.4292,-2.5382,-2.6876,-2.8388,-2.9595,-3.0445,-3.1849,-3.2633,-3.2757,-3.3451,-3.3809,-3.3862,-3.4681,-3.5073,-3.509,-3.5885,-3.5876,-3.5256,-3.5277,-3.4866,-3.4125,-3.3296,-3.2475,-3.1522,-2.9072,-2.8488,-2.8703,-2.675,-2.5264,-2.4211,-2.3921,0.0,0.0,0.0,0.0,0.0,0.0,0.0,0.0,0.0,0.0,0.0,0.0,0.0,0.0,0.0,0.0,0.0,0.0,0.0,0.0,0.0,0.0,0.0,0.0,-3.4651,-3.6691,-3.7452,-3.7538,-3.8068,-3.9457,-4.0218,-4.0934,-4.1774,-4.2974,-4.3735,-4.3832,-4.4496,-4.4901,-4.4901,0.0,0.0,0.0,0.0,-4.7054,-4.7135,-4.7799,-4.8123,-4.8123,-4.8738,-4.8994,-4.8994,-4.8994,-4.8994,-4.8994,-4.8994,-4.8673,-4.8123,-4.8123,-4.7734,-4.7103,-4.6941,-4.6876,-4.6876,-4.6876,-4.6876,0.0,0.0,-1.0013,-1.0861,-1.1857,-1.2157,-1.2502,-1.3286,-1.4657,-1.6136,-1.7614,-1.9072,-2.0876,-2.3139,-2.3451,-2.3546,-2.3697,-2.3578,-2.351,-2.3507,-2.4706,-2.6147,-2.7777,-2.9168,-3.059,-3.2026,-3.2369,-3.3101,-3.427,-3.4423,-3.4797,-3.537,-3.5445,-3.5491,-3.5508,-3.5776,-3.582,-3.5684,-3.5814,-3.5454,-3.4775,-3.41,-3.3026,-3.1642,-3.0156,-2.922,-2.8513,-2.7309,-2.6891,-2.6821,-2.6037,-2.5205,-2.4337,-2.3256,-2.176,0.0,0.0,0.0,0.0,0.0,0.0,0.0,0.0,0.0,0.0,0.0,0.0,0.0,0.0,0.0,0.0,0.0,0.0,0.0,-3.4336,-3.6011,-3.7582,-3.8877,-3.9055,-3.9363,-4.0205,-4.0964,-4.1904,-4.3168,-4.3557,-4.3962,-4.4544,-4.5225,-4.5613,-4.5613,-4.6277,0.0,-4.7572,-4.7718,-4.8058,-4.8609,-4.8754,-4.8819,-4.8799,0.0,0.0,-4.8994,-4.8994,-4.8994,-4.8994,-4.8994,-4.8913,-4.8819,-4.8819,-4.8738,-4.8495,-4.733,-4.6876,-4.6876,-4.6876,-4.6876,-4.686,-1.0646,-1.1072,-1.1569,-1.2103,-1.2481,-1.2849,-1.3329,-1.4657,-1.6001,-1.7101,-1.8865,-2.0589,-2.2138,-2.2335,-2.2346,-2.2346,-2.2688,-2.3384,0.0,-2.5912,-2.7419,-2.9034,-3.0453,-3.1585,-3.2371,-3.3117,-3.374,-3.4208,-3.4572,-3.4804,-3.4904,-3.5178,-3.5293,-3.5316,-3.5734,-3.5905,-3.5888,-3.5975,-3.5797,-3.5403,-3.4409,-3.3367,-3.2238,-3.085,-2.9811,-2.9014,-2.8352,-2.8093,-2.7986,-2.7507,-2.6972,-2.6298,-2.5086,-2.3994,-2.2831,0.0,0.0,0.0,0.0,0.0,0.0,0.0,0.0,0.0,0.0,0.0,0.0,0.0,0.0,-3.0295,0.0,0.0,-3.504,-3.6076,-3.7469,-3.8651,-3.9408,-4.0121,-4.0688,-4.1029,-4.1385,-4.2132,-4.3573,-4.4043,-4.4544,-4.5257,-4.5953,-4.6504,-4.6892,-4.7249,-4.7767,-4.8495,-4.8512,-4.8673,-4.8994,-4.9386,-4.9564,-4.9564,-4.9936,-5.0098,-5.0098,-5.0098,-5.0098,-5.0098,-5.0098,-4.9904,-4.9532,-4.9139,-4.8994,-4.8913,-4.8236,-4.7751,-4.741,-4.7022,-4.6876,-4.6876,-1.1892,-1.2106,-1.2249,-1.2339,-1.2798,-1.3199,-1.332,-1.4511,-1.5687,-1.6528,-1.8363,-1.993,-2.0856,-2.097,-2.1021,-2.119,-2.187,-2.3243,0.0,-2.6979,-2.8447,-2.989,-3.1455,-3.2279,-3.2211,-3.3624,-3.4209,-3.3915,-3.4511,-3.4625,-3.4333,-3.4745,-3.4951,-3.4975,-3.5521,-3.5761,-3.5783,-3.5888,-3.5888,-3.571,-3.4441,-3.3415,-3.2531,-3.1096,-3.0165,-2.9546,-2.9062,-2.8586,-2.8142,-2.8098,-2.7646,-2.6941,-2.5865,-2.5368,-2.4695,-2.2419,-2.1854,0.0,0.0,0.0,0.0,0.0,0.0,0.0,0.0,0.0,-2.8547,-3.0707,-3.2141,-3.3388,-3.4522,-3.5817,-3.6934,-3.763,-3.8715,-3.9603,-3.9878,-4.0883,-4.1661,-4.179,-4.1776,-4.2342,-4.3783,-4.4447,-4.5127,-4.5953,-4.6552,-4.7216,-4.7977,-4.801,-4.8382,-4.9172,-4.9188,-4.9269,-4.9451,-5.0017,-5.0309,-5.0325,-5.0908,-5.1183,-5.1183,-5.1183,-5.1183,-5.1183,-5.1183,-5.0859,-5.0276,-4.9677,-4.9451,-4.9418,-4.9289,-4.89,-4.8333,-4.7572,-4.7216,-4.7103,0.0,-1.2844,-1.3039,-1.3219,-1.332,-1.3311,-1.3155,-1.3973,-1.5054,-1.6269,-1.7362,-1.8577,-1.9968,-2.012,-2.042,-2.114,-2.187,0.0,-2.5457,-2.6979,-2.8303,-2.943,-3.1298,-3.2206,-3.1955,-3.3172,-3.4084,-3.4677,-3.4759,-3.5021,-3.5424,-3.5021,-3.4833,-3.4833,-3.4904,-3.4911,-3.4975,-3.543,-3.5447,-3.5045,-3.4284,-3.3023,-3.1494,-3.0738,-3.0083,-2.9482,-2.8545,-2.7806,-2.7205,-2.6967,-2.6067,-2.508,-2.5268,-2.4524,-2.3526,-2.3389,-2.2501,-2.1688,-2.222,-2.3127,-2.4534,-2.7134,-2.7557,-2.8514,0.0,0.0,-3.2983,-3.5137,-3.6189,-3.6745,-3.6891,-3.7614,-3.8391,-3.912,-3.9408,-3.9943,-4.1191,-4.1498,-4.1808,-4.2408,-4.2489,-4.3039,-4.4528,-4.4739,-4.5338,-4.6666,-4.6828,-4.7216,-4.7977,-4.801,-4.8625,-4.9936,-4.9985,-5.0293,-5.094,-5.1021,-5.107,-5.107,-5.1135,-5.1183,-5.1183,-5.1183,-5.1183,-5.1183,-5.1183,-5.1135,-5.1054,-5.0973,-5.094,-5.0876,-5.0228,-4.9936,-4.9791,-4.9062,-4.8398,-4.788,0.0,-1.2763,-1.2855,-1.3173,-1.3121,-1.3022,-1.294,-1.3939,-1.4976,-1.5683,-1.7187,-1.849,-1.9275,-1.9367,-1.9672,-2.0433,-2.1211,-2.2784,-2.5439,-2.6979,-2.8411,-2.9738,-3.1516,-3.2414,-3.2315,-3.3336,-3.386,-3.3878,-3.3878,-3.3978,-3.4202,-3.4292,-3.4504,-3.4793,-3.4793,-3.4793,-3.4793,-3.4697,-3.4577,-3.4382,-3.3767,-3.2631,-3.1209,-3.0629,-2.9527,-2.8253,-2.7843,-2.7092,0.0,-2.6608,-2.6177,-2.5527,-2.5665,-2.505,-2.421,-2.388,-2.3552,-2.362,-2.5066,-2.5863,-2.6809,0.0,-3.0359,-3.179,-3.4043,-3.4764,-3.5331,-3.6627,-3.7452,-3.7954,-3.7954,-3.8197,-3.8634,0.0,-3.9846,-4.0445,-4.1466,-4.1596,-4.1709,-4.197,-4.2019,-4.2747,-4.4609,-4.4787,-4.537,-4.6779,-4.7297,-4.7848,-4.8524,-4.8997,-4.9694,-5.0697,-5.073,-5.0876,-5.1183,-5.1183,-5.1183,-5.1183,-5.1183,-5.1183,-5.1183,-5.1183,-5.1183,-5.1183,-5.1183,-5.1183,-5.1183,-5.1183,-5.1183,-5.1151,-5.0843,-5.073,-5.06,-4.9451,-4.8799,-4.8557,0.0,-1.2607,-1.2587,-1.2883,-1.2763,-1.2659,-1.2706,-1.3781,-1.4756,-1.5164,-1.679,-1.8064,-1.8549,-1.8589,-1.8978,-1.9917,-2.0737,-2.2417,-2.526,-2.6605,-2.7993,-2.947,-3.1021,-3.18,-3.1716,-3.2894,-3.33,-3.2914,-3.3103,-3.3277,-3.3433,-3.3665,-3.3995,-3.4366,-3.4512,-3.4504,-3.4366,-3.4243,-3.3947,-3.3469,-3.3069,-3.2031,-3.0629,-3.0072,-2.8596,-2.6826,-2.6826,-2.6044,-2.5082,-2.5394,-2.5175,-2.4803,-2.4936,-2.4634,-2.4229,-2.4065,-2.4541,-2.5402,-2.6748,-2.7713,0.0,-3.0508,-3.2574,-3.4255,-3.4657,-3.5776,-3.6878,-3.7362,-3.7879,-3.8307,-3.8363,-3.8335,-3.8569,-3.9505,-4.0113,-4.0774,-4.1604,-4.1664,-4.1677,-4.184,-4.1725,-4.2373,-4.4302,-4.4674,-4.5289,-4.6504,-4.7475,-4.8301,-4.8945,-4.971,-5.0438,-5.1167,-5.1183,-5.1183,-5.1183,-5.1183,-5.1183,-5.1183,-5.1183,-5.1183,-5.1183,-5.1183,-5.1183,-5.1183,-5.1183,-5.1183,-5.1183,-5.1183,-5.1183,-5.1183,-5.1183,-5.1183,-5.1054,-5.0001,-4.9499,-4.9321,0.0,0.0,-1.2489,-1.2524,-1.2348,-1.2277,-1.2485,-1.3263,-1.412,-1.4913,-1.5803,-1.6736,-1.7727,-1.7834,-1.8425,-1.9866,-2.0737,-2.2286,-2.4845,-2.5723,-2.676,-2.8106,-2.9329,-2.9845,-2.9487,-3.1312,-3.226,-3.2234,-3.2882,-3.3485,-3.3944,-3.3459,-3.3235,-3.3261,-3.3793,-3.3742,-3.3313,-3.4342,-3.3803,-3.226,-3.2234,-3.1127,-2.9366,-2.8719,-2.718,-2.5358,-2.5358,-2.4518,-2.3291,-2.2644,-2.2,-2.1553,-2.2216,-2.2401,0.0,-2.3922,-2.5262,-2.6356,-2.6418,0.0,-3.022,-3.2289,-3.4026,-3.5433,-3.6169,-3.7125,-3.7851,-3.7883,-3.7899,-3.8001,-3.8335,-3.8132,-3.8379,-3.9743,-4.0271,-4.0861,-4.1949,-4.18,-4.1824,-4.2489,-4.2002,-4.2179,0.0,-4.4383,-4.5079,-4.5775,-4.7184,-4.8301,-4.8945,-4.971,-5.0438,-5.1167,-5.1183,-5.1183,-5.1183,-5.1183,-5.1183,-5.1183,-5.1183,-5.1183,-5.1183,-5.1183,-5.1183,-5.1183,-5.1183,-5.1183,-5.1183,-5.1183,-5.1183,-5.1183,-5.1183,-5.1183,-5.1183,-5.1135,-5.0681,-5.0066,0.0,0.0,0.0,-1.3735,-1.3657,-1.3552,-1.362,-1.3871,-1.4389,-1.528,-1.6201,0.0,0.0,0.0,0.0,0.0,-1.9807,-2.093,-2.2758,-2.4447,-2.5689,-2.6418,-2.8324,-2.9323,-2.9202,-3.0382,-3.0996,-3.0996,-3.1239,-3.1616,-3.2155,-3.1956,-3.2065,-3.2393,-3.2213,-3.204,-3.188,-3.188,-3.1793,-3.1581,-3.0695,-2.9948,-2.9335,-2.8658,-2.6842,-2.4656,0.0,-2.3486,-2.2012,-2.2228,-2.1858,-2.1411,-2.2089,-2.1997,-2.1997,-2.3779,-2.561,-2.7349,-2.8704,0.0,-3.1971,-3.3761,-3.4966,-3.5943,-3.6868,-3.7347,-3.7451,-3.6991,-3.6896,-3.6781,-3.6478,-3.668,-3.7459,-3.9056,-3.9784,-4.0709,-4.2204,-4.2329,-4.2197,-4.1954,-4.2132,0.0,0.0,0.0,0.0,-4.571,-4.7184,-4.8301,-4.8945,-5.0163,-5.0924,-5.1183,-5.1183,-5.1183,-5.1183,-5.1183,-5.1183,-5.1183,-5.1183,-5.1183,-5.1183,-5.1183,-5.1183,-5.1183,-5.1183,-5.1183,-5.1183,-5.1183,-5.1183,-5.1183,-5.1183,-5.1183,-5.1146,-5.0848,-5.0779,-5.0811,0.0,0.0,0.0,0.0,0.0,0.0,0.0,0.0,0.0,0.0,0.0,0.0,0.0,0.0,0.0,0.0,0.0,0.0,-2.1532,-2.3014,-2.4196,-2.4912,-2.6282,-2.7155,-2.7384,-2.8178,-2.8695,-2.8941,-2.9187,-2.9633,-3.0206,-3.0206,-3.0511,-3.1047,-3.0918,-3.0865,-3.0901,-3.0491,-3.033,-3.0197,-2.8873,-2.8181,-2.7834,-2.6934,-2.5333,0.0,-2.3302,-2.2243,-2.1011,-2.1442,-2.1458,-2.1411,-2.2089,-2.269,-2.3429,-2.4964,-2.6688,-2.8611,-3.0848,-3.2105,-3.3193,-3.5033,-3.5807,-3.6286,-3.6934,-3.696,-3.6672,-3.6009,-3.5663,-3.542,-3.5118,-3.5169,-3.6036,-3.8263,-3.8968,-4.0044,-4.2318,-4.2301,-4.2218,-4.2682,-4.2682,0.0,0.0,0.0,0.0,-4.537,-4.7265,-4.856,-4.8961,-5.039,-5.1183,-5.1183,-5.1183,-5.1183,-5.1183,-5.1183,-5.1183,-5.1183,-5.1183,-5.1183,-5.1183,-5.1183,-5.1183,-5.1183,-5.1183,-5.1183,-5.1183,-5.1016,-5.1054,-5.1183,-5.0864,-5.0826,-5.0902,-5.0448,-5.0464,-5.0749,0.0,0.0,0.0,0.0,0.0,0.0,0.0,0.0,0.0,0.0,0.0,0.0,0.0,0.0,0.0,0.0,0.0,0.0,-2.1177,-2.1596,0.0,-2.362,-2.3433,-2.3594,-2.4241,-2.4918,-2.5558,-2.6204,-2.6903,-2.7565,-2.8196,-2.8196,-2.8535,-2.915,-2.9665,-2.9953,-3.0084,-2.9948,-2.9273,-2.8119,-2.678,-2.5841,-2.5118,-2.381,-2.2855,-2.2182,-2.1565,-2.0888,-2.032,-2.0381,-2.0888,0.0,0.0,0.0,-2.6603,-2.7288,-2.8488,-3.0109,-3.2752,-3.3506,-3.4029,-3.5999,-3.6492,-3.6476,-3.6445,-3.615,-3.5628,-3.4865,-3.4192,-3.3803,0.0,0.0,-3.4246,-3.7294,-3.7889,-3.9079,-4.221,-4.1852,-4.2109,0.0,0.0,0.0,0.0,0.0,0.0,-4.4901,0.0,-4.8961,-4.9042,-5.0422,-5.1183,-5.1183,-5.1183,-5.1183,-5.1183,-5.1183,-5.1183,-5.1183,-5.1183,-5.1183,-5.1183,-5.1183,-5.1183,-5.1183,-5.1183,-5.1146,-5.1146,-5.064,-5.0733,-5.107,-5.023,-5.0136,-5.0409,-5.0034,-4.9876,-4.9876,0.0,0.0,0.0,0.0,0.0,0.0,0.0,0.0,0.0,0.0,0.0,0.0,0.0,0.0,0.0,0.0,0.0,0.0,0.0,-2.1308,0.0,-2.1928,-2.2821,-2.3379,-2.3548,-2.421,-2.4656,-2.4804,-2.501,-2.5179,-2.5364,-2.5364,-2.5441,-2.561,-2.5747,-2.5818,-2.5857,-2.5824,-2.5926,-2.5958,-2.4625,-2.4287,-2.4471,-2.3625,-2.2563,-2.1596,-2.1935,-2.1288,-2.0458,0.0,0.0,0.0,0.0,-2.5733,-2.7365,0.0,0.0,-3.2013,-3.3765,-3.4937,-3.583,-3.6368,-3.6492,-3.6368,-3.5861,-3.5304,-3.4374,-3.2659,-3.1751,-3.1005,0.0,0.0,0.0,-3.4763,-3.7088,0.0,-4.1996,-4.2725,0.0,-4.4657,0.0,-4.4666,-4.4771,-4.5743,0.0,0.0,-4.754,-4.8722,-4.9775,-5.0697,-5.1183,-5.1183,-5.1183,-5.1183,-5.1183,-5.1183,-5.1183,-5.1183,-5.1183,-5.1183,-5.1183,-5.1183,-5.1183,-5.1183,-5.081,-5.0679,-5.0656,-5.023,-5.0113,-5.0191,-4.9995,-4.9955,-4.9995,-4.9597,-4.9637,-4.9797,0.0,0.0,0.0,0.0,0.0,0.0,0.0,0.0,0.0,0.0,0.0,0.0,0.0,0.0,0.0,0.0,0.0,0.0,0.0,0.0,-2.1122,-2.107,-2.1654,-2.1981,-2.1981,-2.2624,-2.2978,-2.2978,-2.3271,-2.3425,-2.3425,-2.3425,-2.3579,-2.3871,-2.3871,-2.4025,-2.4287,-2.3994,-2.4087,0.0,0.0,-2.264,-2.2902,-2.2243,-2.1519,-2.0903,-2.1288,-2.1704,0.0,0.0,0.0,-2.6757,-2.7342,-2.8488,-2.9858,-3.1243,0.0,-3.3614,-3.5013,-3.5953,-3.6492,-3.6492,-3.6492,-3.6153,-3.486,-3.4073,-3.2841,-3.0207,-2.935,0.0,0.0,0.0,0.0,0.0,0.0,0.0,-4.1749,-4.276,-4.3754,0.0,-4.5367,0.0,-4.5858,-4.6789,-4.7567,0.0,-4.8582,-4.9273,-5.0066,-5.0795,-5.1183,-5.1183,-5.1183,-5.1183,-5.1183,-5.1183,-5.1183,-5.1183,-5.1183,-5.1183,-5.1183,-5.1183,-5.1183,-5.1183,0.0,-5.0525,-5.0448,-4.9876,-4.9757,-4.9876,-4.9477,-4.9477,-4.9597,-4.9153,-4.9153,-4.9316,0.0,0.0,0.0,0.0,0.0,0.0,0.0,0.0,0.0,0.0,0.0,0.0,0.0,0.0,0.0,0.0,0.0,0.0,0.0,0.0,0.0,-2.0712,-2.0458,-2.0304,-2.0304,-2.0872,-2.1165,-2.1165,0.0,-2.2043,-2.2043,-2.2043,-2.2332,-2.2902,-2.2902,-2.3225,-2.3733,-2.3148,-2.2902,-2.2794,-2.1642,-2.1165,-2.1103,0.0,-2.0304,-2.0304,-2.0304,0.0,0.0,0.0,-2.7457,-2.9027,-3.0263,-3.1597,-3.2921,-3.4258,-3.4643,-3.4921,-3.6153,-3.6492,-3.6492,-3.6492,-3.643,-3.5814,-3.3737,-3.2613,-3.1074,-2.7796,0.0,-2.6488,-2.525,-2.6954,-2.9335,-3.1732,0.0,-3.7571,-4.1291,-4.2249,-4.3427,-4.5882,-4.569,-4.5898,-4.7265,-4.7809,-4.8474,-4.9496,-4.9936,-5.0154,-5.0154,-5.0806,-5.1183,-5.1183,-5.1183,-5.1183,-5.1108,-5.1183,-5.1183,-5.1108,-5.1183,-5.1183,-5.1183,-5.1183,-5.1183,-5.1183,0.0,0.0,-5.037,-4.9541,-4.9396,-4.9637,-4.8908,-4.8867,-4.9153,-4.8826,-4.8702,-4.8744,0.0,0.0,0.0,0.0,0.0,0.0,0.0,0.0,0.0,0.0,-1.8364,-1.8443,0.0,0.0,0.0,0.0,0.0,0.0,0.0,0.0,0.0,-2.039,-2.0321,-2.0304,-2.0304,0.0,0.0,0.0,0.0,0.0,-2.0641,-2.0641,-2.0703,-2.0811,-2.0811,-2.0872,-2.098,-2.0872,-2.0811,-2.0795,-2.0582,-2.0456,-2.0474,-2.0333,0.0,0.0,0.0,0.0,0.0,-2.5533,-2.8405,-3.1012,-3.1797,-3.2998,-3.4305,-3.5106,-3.5337,-3.5506,-3.6276,-3.6492,-3.6492,-3.6492,-3.6076,-3.5122,-3.3044,-3.1197,0.0,0.0,-2.4779,-2.3933,-2.3686,-2.5839,0.0,-3.0428,0.0,0.0,0.0,0.0,-4.2978,0.0,0.0,0.0,0.0,0.0,0.0,0.0,0.0,0.0,-5.041,-5.0914,-5.1183,-5.1183,-5.1183,-5.1016,-5.064,-5.1016,-5.1016,-5.064,-5.1016,-5.1183,-5.1183,-5.1183,-5.1183,-5.1146,0.0,0.0,-4.9955,-4.9056,-4.8785,-4.8811,-4.8661,-4.8661,-4.8744,-4.9072,-4.9194,-4.9235,0.0,0.0,0.0,0.0,0.0,0.0,0.0,-1.7993,-1.8768,-1.9671,-2.0288,-2.0348,-1.961,-2.0018,-2.0337,0.0,0.0,0.0,0.0,0.0,0.0,0.0,0.0,0.0,0.0,0.0,0.0,0.0,0.0,0.0,0.0,0.0,0.0,0.0,0.0,0.0,0.0,-2.0304,-2.0304,0.0,0.0,0.0,0.0,0.0,0.0,0.0,0.0,0.0,0.0,0.0,-2.7565,-3.0658,-3.2382,-3.3875,-3.509,-3.5414,-3.5737,-3.6076,-3.6399,-3.6492,-3.6492,-3.6492,-3.5984,-3.4752,-3.1997,0.0,0.0,0.0,-2.3225,-2.2671,-2.2317,0.0,0.0,0.0,0.0,0.0,0.0,0.0,0.0,0.0,0.0,0.0,0.0,0.0,0.0,0.0,0.0,0.0,0.0,-5.0733,-5.094,-5.1183,-5.0962,-5.0733,-5.0525,-5.0717,-5.0717,-5.0525,-5.0978,-5.1183,-5.1183,-5.1183,-5.1183,-5.1146,0.0,0.0,-4.9836,-4.8934,-4.862,-4.862,-4.862,-4.862,-4.862,-4.8867,-4.8949,-4.9031,0.0,0.0,0.0,0.0,0.0,0.0,0.0,-1.8585,-1.9661,-2.0859,-2.1809,-2.1988,-2.0945,-2.1257,-2.1375,0.0,0.0,0.0,0.0,0.0,0.0,0.0,0.0,0.0,0.0,0.0,0.0,0.0,0.0,0.0,0.0,0.0,0.0,0.0,0.0,0.0,0.0,0.0,0.0,0.0,0.0,0.0,0.0,0.0,0.0,0.0,0.0,0.0,0.0,0.0,-2.6103,-2.8796,-3.149,-3.3583,-3.506,-3.5244,-3.5753,-3.6307,-3.6445,-3.6492,-3.6492,-3.6492,-3.5876,-3.4414,-3.114,-2.9125,0.0,0.0,-2.2074,-2.1797,-2.1565,0.0,0.0,0.0,0.0,0.0,0.0,0.0,0.0,0.0,0.0,0.0,0.0,0.0,0.0,0.0,0.0,0.0,0.0,-5.0525,-5.0733,-5.1183,-5.0848,-5.0563,-5.037,-5.0563,-5.0563,-5.037,-5.094,-5.1183,-5.1183,-5.1108,-5.1054,-5.1016,0.0,0.0,0.0,-4.8934,-4.862,-4.862,-4.862,-4.862,-4.8604,-4.8687,-4.8744,-4.8852,0.0,0.0,0.0,0.0,0.0,0.0,0.0,-1.9061,-2.021,-2.1536,-2.2047,-2.2394,-2.2551,-2.241,-2.2021,0.0,0.0,0.0,0.0,0.0,0.0,0.0,0.0,0.0,0.0,0.0,0.0,0.0,0.0,0.0,0.0,0.0,0.0,0.0,0.0,0.0,0.0,0.0,0.0,0.0,0.0,0.0,0.0,0.0,0.0,0.0,0.0,0.0,0.0,0.0,0.0,-2.5256,-2.7996,-3.1043,-3.3721,-3.4412,0.0,0.0,-3.6322,-3.6492,-3.6492,-3.6492,-3.5552,-3.3873,-3.1032,0.0,0.0,-2.2871,-2.1334,-2.0826,-2.1997,-2.2902,0.0,0.0,0.0,-3.1747,0.0,0.0,0.0,0.0,0.0,0.0,0.0,0.0,0.0,0.0,0.0,0.0,0.0,-5.0525,-5.0733,-5.1183,-5.1146,-5.0749,-4.9955,-5.0749,-5.0749,-4.9955,-5.0788,-5.1183,-5.1183,-5.0771,-5.0563,-5.0525,0.0,0.0,0.0,-4.8826,-4.862,-4.862,-4.862,-4.862,-4.8646,-4.9072,-4.9235,-4.9316,0.0,0.0,0.0,0.0,0.0,0.0,-1.8007,-1.8563,-1.9481,-2.127,-2.1823,-2.2256,-2.2757,-2.2753,-2.2404,-2.1682,0.0,0.0,0.0,0.0,0.0,0.0,0.0,0.0,0.0,0.0,0.0,0.0,0.0,0.0,0.0,0.0,0.0,0.0,0.0,0.0,0.0,0.0,0.0,0.0,0.0,0.0,0.0,0.0,0.0,0.0,0.0,0.0,0.0,0.0,0.0,0.0,-2.4502,-2.678,0.0,0.0,-3.3719,-3.5059,-3.5737,-3.6184,-3.6492,-3.6492,-3.5153,-3.3229,-3.0924,0.0,-2.505,-2.2763,-2.1227,-2.0703,-2.2058,-2.2521,-2.3686,-2.6703,-2.7642,-2.9166,-3.2579,0.0,0.0,0.0,0.0,0.0,0.0,0.0,0.0,0.0,0.0,0.0,0.0,0.0,-5.0733,-5.1183,-5.0711,-5.023,-4.9876,-5.023,-5.023,-4.9916,-5.0788,-5.1183,-5.1183,-5.0717,-5.0525,-5.0448,0.0,0.0,0.0,-4.8769,-4.862,-4.862,-4.862,-4.862,-4.862,-4.8826,-4.8867,-4.8949,0.0,0.0,0.0,0.0,0.0,-1.6578,-1.7731,-1.8253,-1.9163,-2.092,-2.1574,-2.2144,-2.2859,-2.272,-2.2457,-2.2114,-2.1913,0.0,0.0,0.0,0.0,0.0,0.0,0.0,0.0,0.0,0.0,0.0,0.0,0.0,0.0,0.0,0.0,0.0,0.0,0.0,0.0,0.0,0.0,0.0,0.0,0.0,0.0,0.0,0.0,0.0,0.0,0.0,0.0,0.0,0.0,0.0,0.0,0.0,0.0,0.0,-3.1951,-3.3827,-3.4921,-3.5706,-3.6184,-3.6184,-3.4783,-3.2829,0.0,-2.7603,-2.4773,-2.2963,-2.1535,-2.0996,-2.2351,-2.2594,-2.3348,-2.5703,-2.6411,-2.7804,-3.0962,0.0,0.0,0.0,0.0,0.0,0.0,0.0,0.0,0.0,0.0,0.0,0.0,0.0,-5.0579,-5.1183,-5.0464,-5.0034,-4.9876,-5.0034,-5.0034,-4.9916,-5.0618,-5.1054,-5.1183,-5.0448,-5.0214,0.0,0.0,0.0,0.0,-4.8744,-4.862,-4.862,-4.862,-4.862,-4.862,-4.862,-4.862,-4.8661,0.0,0.0,0.0,0.0,0.0,0.0,-1.7116,-1.8392,-1.965,-2.0682,-2.1393,-2.2179,-2.3196,-2.2408,-2.2081,-2.2729,-2.218,0.0,0.0,0.0,0.0,0.0,0.0,0.0,0.0,0.0,-2.0643,-2.1288,-2.1288,0.0,0.0,0.0,0.0,0.0,0.0,0.0,0.0,0.0,0.0,0.0,0.0,0.0,0.0,0.0,0.0,0.0,0.0,0.0,0.0,0.0,0.0,0.0,0.0,0.0,-2.3994,-2.7442,-2.9858,-3.1886,-3.395,-3.5013,-3.5521,-3.5521,-3.4445,-3.2705,0.0,-2.7265,-2.4933,-2.3563,-2.2228,-2.1704,-2.304,-2.3286,-2.3733,-2.5081,-2.6488,-2.8319,-3.1012,0.0,0.0,0.0,0.0,0.0,0.0,0.0,0.0,0.0,0.0,0.0,0.0,0.0,-5.0308,-5.1183,-5.0733,-5.0292,-4.9916,-5.0292,-5.0292,-4.9916,-5.0292,-5.0771,-5.1146,-4.9876,0.0,0.0,0.0,0.0,0.0,-4.862,-4.862,-4.862,-4.862,-4.862,-4.862,-4.862,-4.862,-4.862,0.0,0.0,0.0,0.0,0.0,0.0,0.0,-1.7725,-1.8359,-1.8951,-1.953,-2.032,-2.1467,-2.127,-2.152,-2.2696,-2.2393,0.0,0.0,0.0,0.0,0.0,0.0,0.0,0.0,-2.0749,-2.1088,-2.1304,-2.1766,-2.2089,-2.2289,-2.1612,0.0,0.0,0.0,0.0,0.0,0.0,0.0,0.0,0.0,0.0,0.0,0.0,0.0,0.0,0.0,0.0,0.0,0.0,0.0,0.0,0.0,0.0,0.0,-2.3763,-2.6657,0.0,-3.072,-3.1828,-3.2582,-3.2136,-3.0997,-2.9643,-2.8334,-2.6272,-2.4379,-2.3486,-2.2594,-2.2259,-2.3132,-2.3302,-2.4194,-2.698,-2.7796,-2.9012,0.0,0.0,0.0,0.0,0.0,0.0,0.0,0.0,0.0,0.0,0.0,0.0,0.0,0.0,0.0,-5.0695,-5.0058,-4.9622,-4.9477,-4.9637,-4.9741,-4.9916,-5.0292,-5.0563,-5.0695,-5.0034,0.0,0.0,0.0,0.0,0.0,-4.862,-4.862,-4.862,-4.862,-4.862,-4.862,-4.862,-4.862,-4.862,0.0,0.0,0.0,0.0,0.0,0.0,0.0,-1.7183,-1.7624,-1.8089,-1.8663,-1.9475,-2.0589,-2.0827,-2.1287,-2.2301,-2.2331,0.0,0.0,0.0,0.0,0.0,0.0,0.0,-2.0304,-2.0703,-2.1288,-2.2058,-2.2455,-2.2932,-2.3409,-2.2748,-2.2166,-2.1658,0.0,0.0,0.0,0.0,0.0,0.0,0.0,0.0,0.0,0.0,0.0,0.0,0.0,0.0,0.0,0.0,0.0,0.0,0.0,0.0,0.0,0.0,-2.3902,-2.6472,0.0,-2.9627,-3.0551,-3.0125,-2.9187,-2.8088,-2.6888,-2.5226,-2.3733,-2.3055,-2.2578,-2.2486,-2.3179,-2.3517,-2.4456,-2.6857,-2.7688,0.0,0.0,0.0,0.0,0.0,0.0,0.0,0.0,0.0,0.0,0.0,0.0,0.0,0.0,0.0,0.0,-5.0018,-4.9541,-4.9316,-4.9316,-4.9316,-4.9437,-4.9677,-5.0058,-5.0253,-5.0253,0.0,0.0,0.0,0.0,0.0,0.0,-4.862,-4.862,-4.862,-4.862,-4.862,-4.862,-4.862,-4.862,-4.862,0.0,0.0,0.0,0.0,0.0,0.0,0.0,-1.6759,-1.7389,-1.7947,-1.8611,-1.9393,-2.036,-2.084,-2.1275,-2.1621,0.0,0.0,0.0,0.0,0.0,0.0,0.0,0.0,-2.0339,-2.0397,-2.1365,-2.3225,-2.3363,-2.4087,-2.5281,-2.465,-2.3656,-2.2351,-2.1673,0.0,0.0,0.0,0.0,0.0,0.0,0.0,0.0,0.0,0.0,0.0,0.0,0.0,0.0,0.0,0.0,0.0,0.0,0.0,0.0,0.0,0.0,0.0,0.0,-2.795,0.0,-2.8919,-2.8442,-2.7473,-2.5527,-2.4133,0.0,-2.2443,-2.2351,-2.2578,-2.3302,-2.3948,-2.4671,-2.5588,0.0,0.0,0.0,0.0,0.0,0.0,0.0,0.0,0.0,0.0,0.0,0.0,0.0,0.0,0.0,0.0,0.0,0.0,-4.9275,-4.9235,-4.9235,-4.9235,-4.9275,-4.9316,-4.9677,-4.9852,-4.9836,0.0,0.0,0.0,0.0,0.0,0.0,-4.862,-4.862,-4.862,-4.862,-4.862,-4.862,-4.862,-4.862,-4.862,0.0,0.0,0.0,0.0,0.0,0.0,0.0,0.0,0.0,0.0,-1.7757,-1.8338,-1.8928,-1.9747,-2.0563,0.0,0.0,0.0,0.0,0.0,0.0,0.0,0.0,0.0,-2.0695,-2.1448,-2.2074,-2.2551,-2.4087,-2.4989,-2.5296,-2.5127,-2.4364,-2.304,-2.2347,-2.1411,0.0,0.0,0.0,0.0,0.0,0.0,0.0,0.0,0.0,0.0,0.0,0.0,0.0,0.0,0.0,0.0,0.0,0.0,0.0,0.0,-2.1011,-2.172,-2.2521,0.0,-2.461,-2.4102,-2.384,-2.3609,0.0,-2.2748,-2.2505,-2.2317,-2.2701,-2.3425,-2.4604,-2.4958,-2.6149,0.0,0.0,0.0,0.0,0.0,0.0,0.0,0.0,0.0,0.0,0.0,0.0,0.0,0.0,0.0,0.0,0.0,0.0,0.0,-4.8949,-4.8785,-4.8785,-4.8785,-4.8949,-4.9316,-4.9396,-4.9437,0.0,0.0,0.0,0.0,0.0,0.0,-4.862,-4.862,-4.862,-4.862,-4.862,-4.862,-4.862,-4.862,-4.862,-4.862,0.0,0.0,0.0,0.0,0.0,0.0,0.0,0.0,0.0,0.0,0.0,-1.7763,-1.8136,-1.9269,0.0,0.0,0.0,0.0,0.0,0.0,0.0,0.0,0.0,-2.1071,-2.0578,-2.1412,-2.2151,-2.2748,-2.4164,-2.5179,-2.5795,-2.545,-2.4743,-2.3702,-2.2394,-2.1257,0.0,0.0,0.0,0.0,0.0,0.0,0.0,0.0,0.0,0.0,0.0,-2.0304,0.0,-2.1011,-2.1011,-2.0811,0.0,0.0,0.0,0.0,-2.0549,-2.0826,-2.0826,-2.2505,-2.4133,-2.3763,-2.3933,-2.3994,-2.3363,-2.2732,-2.2212,-2.1904,-2.2363,-2.324,-2.4589,0.0,0.0,0.0,0.0,0.0,0.0,0.0,0.0,0.0,0.0,0.0,0.0,0.0,0.0,0.0,0.0,0.0,0.0,0.0,0.0,0.0,0.0,-4.862,-4.862,-4.862,-4.8744,-4.899,-4.9194,-4.9194,-4.899,0.0,0.0,0.0,0.0,0.0,-4.862,-4.862,-4.862,-4.862,-4.862,-4.862,-4.862,-4.862,-4.862,-4.862,0.0,0.0,0.0,0.0,0.0,0.0,0.0,0.0,0.0,0.0,0.0,0.0,0.0,0.0,0.0,0.0,0.0,0.0,0.0,0.0,0.0,0.0,-2.1261,-2.1022,-2.0632,-2.1231,-2.2152,-2.3385,-2.4282,-2.529,-2.6402,-2.6031,-2.5348,-2.4313,-2.2235,-2.0919,0.0,0.0,0.0,0.0,0.0,0.0,0.0,0.0,0.0,0.0,0.0,0.0,0.0,-2.1612,-2.1689,-2.1381,-2.1858,0.0,0.0,0.0,0.0,0.0,-2.0657,-2.3055,-2.5327,-2.4825,-2.5472,-2.5857,-2.4471,-2.3348,-2.244,0.0,0.0,0.0,0.0,-2.598,0.0,0.0,0.0,0.0,0.0,0.0,0.0,0.0,0.0,0.0,0.0,0.0,0.0,0.0,0.0,0.0,0.0,0.0,0.0,0.0,0.0,0.0,-4.862,-4.862,-4.862,-4.8604,-4.899,-4.899,-4.8604,-4.9031,0.0,0.0,0.0,0.0,-4.862,-4.862,-4.862,-4.862,-4.862,-4.862,-4.862,-4.862,-4.862,-4.862,0.0,0.0,0.0,0.0,0.0,0.0,0.0,0.0,0.0,0.0,0.0,0.0,0.0,0.0,0.0,0.0,0.0,0.0,0.0,0.0,0.0,-2.1307,-2.1039,-2.1245,-2.2052,-2.245,-2.3033,-2.38,-2.5685,-2.6523,-2.6433,-2.7856,-2.7223,-2.48,-2.2369,-2.0919,-2.0304,-2.0304,0.0,0.0,0.0,0.0,0.0,0.0,0.0,0.0,0.0,0.0,0.0,-2.0551,-2.0919,-2.1227,-2.0749,0.0,0.0,0.0,0.0,0.0,-2.2382,-2.4471,-2.5465,-2.2609,-2.3702,-2.5118,-2.3763,-2.3733,-2.3963,0.0,0.0,0.0,0.0,-2.8411,0.0,0.0,0.0,0.0,0.0,0.0,0.0,0.0,0.0,0.0,0.0,0.0,0.0,0.0,0.0,0.0,0.0,0.0,0.0,0.0,0.0,0.0,0.0,-4.862,-4.862,-4.862,-4.8661,-4.8661,-4.862,-4.8646,-4.8661,0.0,0.0,0.0,-4.862,-4.862,-4.862,-4.862,-4.862,-4.862,-4.862,-4.862,-4.862,-4.862,0.0,0.0,0.0,0.0,0.0,0.0,0.0,0.0,0.0,0.0,0.0,0.0,0.0,0.0,0.0,0.0,0.0,0.0,0.0,0.0,-2.1642,-2.1875,-2.1566,-2.1642,-2.2113,-2.3189,-2.3994,-2.4448,-2.6454,-2.7381,-2.734,-2.7797,-2.6419,-2.3495,-2.2353,-2.1257,-2.0304,-2.0304,-2.0304,0.0,0.0,0.0,0.0,0.0,0.0,0.0,0.0,0.0,0.0,0.0,-2.1288,-2.172,-2.1042,0.0,0.0,0.0,0.0,0.0,-2.1427,-2.3409,-2.4835,-2.3302,-2.5518,-2.788,-2.7265,-2.6534,-2.6087,-2.6441,0.0,0.0,0.0,0.0,0.0,0.0,0.0,0.0,0.0,0.0,0.0,0.0,0.0,0.0,0.0,0.0,0.0,0.0,0.0,0.0,0.0,0.0,0.0,0.0,0.0,0.0,0.0,-4.862,-4.862,-4.862,-4.862,-4.862,-4.862,-4.862,-4.862,0.0,0.0,-4.862,-4.862,-4.862,-4.862,-4.862,-4.862,-4.862,-4.862,-4.862,-4.862,-4.862,0.0,0.0,0.0,0.0,0.0,0.0,0.0,0.0,0.0,0.0,0.0,0.0,0.0,0.0,0.0,0.0,0.0,0.0,0.0,-2.1028,-2.1498,-2.2231,-2.2182,-2.2307,-2.2645,-2.4116,-2.5086,-2.5435,-2.7279,-2.8207,-2.8252,-2.7025,-2.5096,-2.2673,-2.2235,-2.1411,-2.0304,-2.0304,-2.0304,0.0,0.0,0.0,0.0,0.0,0.0,0.0,0.0,0.0,0.0,0.0,0.0,0.0,0.0,0.0,0.0,-2.0641,-2.0304,-2.0412,-2.0872,-2.2628,-2.4425,-2.4902,-2.7396,-2.9817,-3.0279,-2.9104,-2.815,-2.9135,0.0,0.0,0.0,0.0,0.0,0.0,0.0,0.0,0.0,0.0,0.0,0.0,0.0,0.0,0.0,0.0,0.0,0.0,0.0,0.0,0.0,0.0,0.0,0.0,0.0,0.0,0.0,-4.8543,-4.862,-4.862,-4.862,-4.862,-4.862,-4.862,-4.862,-4.862,-4.862,-4.862,-4.862,-4.862,-4.862,-4.862,-4.862,-4.862,-4.862,-4.862,-4.862,-4.862,0.0,0.0,0.0,0.0,0.0,0.0,0.0,0.0,0.0,0.0,0.0,0.0,0.0,0.0,0.0,0.0,0.0,0.0,0.0,-2.0897,-2.1061,-2.1801,-2.2478,-2.3471,-2.4845,-2.5658,-2.6402,-2.7021,-2.8546,-2.9108,-2.8692,-2.5822,-2.4278,-2.3787,-2.2123,-2.0965,-2.0304,-2.0304,-2.0304,-2.0304,-2.0304,0.0,0.0,0.0,0.0,0.0,0.0,0.0,0.0,0.0,0.0,0.0,0.0,0.0,-2.1227,-2.052,-2.0304,-2.0703,-2.2582,-2.3686,-2.4764,-2.6688,-2.7396,-2.8104,-2.9971,-2.9802,-2.9812,-3.172,-3.2074,0.0,0.0,0.0,0.0,0.0,0.0,0.0,0.0,0.0,0.0,0.0,0.0,0.0,0.0,0.0,0.0,0.0,0.0,0.0,0.0,0.0,0.0,0.0,0.0,0.0,0.0,-4.8296,-4.862,-4.862,-4.862,-4.862,-4.862,-4.862,-4.862,-4.862,-4.862,-4.862,-4.862,-4.862,-4.862,-4.862,-4.862,-4.862,-4.862,-4.862,-4.862,-4.862,0.0,0.0,0.0,0.0,0.0,0.0,0.0,0.0,0.0,0.0,0.0,0.0,0.0,0.0,0.0,0.0,0.0,0.0,0.0,-2.0235,-2.1038,-2.1779,-2.2507,-2.3463,-2.4706,-2.6336,-2.7419,-2.7871,-2.8661,-2.8494,-2.7401,-2.6012,-2.4487,-2.2911,-2.2226,-2.155,-2.0888,-2.0489,-2.0551,-2.0888,-2.0474,0.0,0.0,0.0,0.0,0.0,0.0,0.0,0.0,0.0,-2.0749,-2.118,-2.052,-2.0749,-2.1165,-2.0505,-2.0304,-2.0474,-2.1227,-2.3132,-2.5204,-2.6419,-2.7703,-2.9181,-3.1197,-3.2121,-3.3013,-3.4614,-3.4614,0.0,0.0,0.0,0.0,0.0,0.0,0.0,0.0,0.0,0.0,0.0,0.0,0.0,0.0,0.0,0.0,0.0,0.0,0.0,0.0,0.0,0.0,0.0,0.0,0.0,0.0,-4.7234,-4.7573,-4.7989,-4.8419,-4.862,-4.862,-4.862,-4.862,-4.862,-4.862,-4.862,-4.862,-4.862,-4.862,-4.862,-4.862,-4.862,-4.862,-4.862,-4.862,-4.862,0.0,0.0,0.0,0.0,0.0,0.0,0.0,0.0,0.0,0.0,0.0,0.0,0.0,0.0,0.0,0.0,0.0,0.0,-1.843,-1.9498,-2.058,-2.1576,-2.2325,-2.3165,-2.4135,-2.6319,-2.7582,-2.7794,-2.8003,-2.7518,-2.6394,-2.5543,-2.424,-2.2609,-2.2378,-2.2058,-2.1565,-2.0888,-2.0872,-2.1242,-2.0564,-2.0304,0.0,0.0,0.0,0.0,0.0,0.0,0.0,0.0,-2.0613,-2.0888,-2.0441,-2.0595,-2.0888,-2.0426,-2.0613,-2.0934,-2.0934,-2.3071,-2.5512,-2.6419,-2.8187,-3.0233,-3.2259,-3.329,-3.4412,-3.6399,-3.6445,-3.6122,-3.6122,0.0,0.0,0.0,0.0,0.0,0.0,0.0,0.0,0.0,0.0,0.0,0.0,0.0,0.0,0.0,0.0,0.0,0.0,0.0,0.0,0.0,0.0,0.0,0.0,-4.6496,-4.6819,-4.7296,-4.7758,-4.8204,-4.862,-4.862,-4.862,-4.862,-4.862,-4.862,-4.862,-4.862,-4.862,-4.862,-4.862,-4.862,-4.862,-4.862,-4.862,-4.8661,0.0,0.0,0.0,0.0,0.0,0.0,0.0,0.0,0.0,0.0,0.0,0.0,0.0,0.0,0.0,0.0,0.0,0.0,-1.8456,-1.8744,-1.9582,-2.1123,-2.1904,-2.2632,-2.3376,-2.5541,-2.6674,-2.6691,-2.663,-2.6394,-2.5939,-2.416,-2.3286,-2.3275,-2.2613,-2.2305,-2.2259,-2.1581,-2.1304,-2.1242,-2.0564,-2.0304,-2.0304,0.0,0.0,0.0,0.0,0.0,0.0,0.0,-2.0304,-2.0304,-2.0304,-2.032,-2.032,-2.0304,-2.1242,-2.232,-2.2286,-2.3779,-2.565,-2.7057,0.0,0.0,-3.2967,-3.2921,-3.3398,-3.6815,-3.7523,-3.7523,-3.7507,0.0,0.0,0.0,0.0,0.0,0.0,0.0,0.0,0.0,0.0,0.0,0.0,0.0,0.0,0.0,0.0,0.0,0.0,0.0,0.0,0.0,0.0,0.0,0.0,-4.6249,-4.6573,-4.6588,-4.6588,-4.7296,-4.8589,-4.8589,-4.8589,-4.8589,-4.8589,-4.8589,-4.8604,-4.8604,-4.8604,-4.8604,-4.862,-4.862,-4.862,-4.862,-4.8604,-4.8728,0.0,0.0,0.0,0.0,0.0,0.0,0.0,0.0,0.0,0.0,0.0,0.0,0.0,0.0,0.0,0.0,0.0,0.0,-1.8012,-1.8571,-1.9333,-2.0302,-2.1109,-2.187,-2.2615,-2.3782,-2.5135,-2.6691,-2.6104,-2.5642,-2.5265,-2.4176,-2.3563,-2.3365,-2.3106,-2.2607,-2.1909,-2.1489,-2.1304,-2.1242,-2.0564,-2.0304,-2.0304,0.0,0.0,0.0,0.0,0.0,0.0,0.0,0.0,0.0,-2.0304,-2.0949,-2.1519,-2.0582,-2.1581,-2.2794,-2.1858,-2.4471,0.0,-2.7996,0.0,0.0,0.0,-3.5445,0.0,0.0,-3.8923,-3.8769,-3.8292,0.0,0.0,0.0,0.0,0.0,0.0,0.0,0.0,0.0,0.0,0.0,0.0,0.0,0.0,0.0,0.0,0.0,0.0,0.0,0.0,0.0,0.0,0.0,0.0,0.0,-4.5418,-4.5895,-4.5895,-4.6342,-4.7188,-4.7188,-4.7188,-4.7188,-4.7188,-4.7188,-4.7234,-4.7711,-4.7912,-4.7942,-4.8435,-4.862,-4.8646,-4.9284,-4.951,-4.963,0.0,0.0,0.0,0.0,0.0,0.0,0.0,0.0,0.0,0.0,-1.78,-1.7692,0.0,0.0,0.0,0.0,0.0,0.0,0.0,-1.8159,-1.8915,-1.9951,-2.0454,-2.1363,-2.2716,-2.2887,-2.3757,-2.5389,-2.5042,-2.4681,-2.4325,-2.4138,-2.3951,-2.3798,-2.3891,-2.3459,-2.2593,-2.2108,-2.1662,-2.126,-2.0705,-2.0424,-2.0304,0.0,0.0,0.0,0.0,0.0,0.0,0.0,0.0,0.0,-2.0304,-2.0841,-2.1442,-2.118,-2.2336,-2.3702,-2.3722,-2.6395,0.0,-3.0197,-3.2444,-3.4828,-3.6014,0.0,0.0,0.0,0.0,0.0,0.0,0.0,0.0,0.0,0.0,0.0,0.0,0.0,0.0,0.0,0.0,0.0,0.0,0.0,0.0,0.0,0.0,0.0,0.0,0.0,0.0,0.0,0.0,0.0,0.0,0.0,0.0,-4.5187,-4.5187,-4.5403,-4.5818,-4.6357,-4.6603,-4.6603,-4.6603,-4.6603,-4.6634,-4.7034,-4.7204,-4.7275,-4.7957,-4.8217,-4.8369,-4.9487,-4.9892,-5.0039,0.0,0.0,0.0,0.0,0.0,0.0,0.0,0.0,0.0,0.0,-1.78,-1.7692,0.0,0.0,0.0,0.0,0.0,0.0,0.0,-1.7658,-1.8447,-1.9879,-2.0081,-2.111,-2.3167,-2.2617,-2.2617,-2.3247,-2.3614,-2.3638,-2.3318,-2.4029,-2.4369,-2.4419,-2.4722,-2.4474,-2.3769,-2.3022,-2.2142,-2.1221,-2.0896,-2.0561,-2.0304,-2.0304,0.0,0.0,0.0,0.0,0.0,0.0,0.0,0.0,-2.0304,-2.0379,-2.0687,-2.1797,-2.3194,-2.4795,-2.6626,0.0,0.0,-3.2829,-3.3983,0.0,-3.7076,-3.7984,-3.8631,0.0,0.0,0.0,0.0,0.0,0.0,0.0,0.0,0.0,0.0,0.0,0.0,0.0,0.0,0.0,0.0,0.0,0.0,0.0,0.0,0.0,0.0,0.0,0.0,0.0,0.0,0.0,0.0,0.0,0.0,0.0,-4.461,-4.461,-4.4656,-4.5849,-4.6419,-4.6419,-4.6419,-4.6419,-4.6419,-4.648,-4.6535,-4.6693,-4.7408,-4.7729,-4.7981,-4.9388,-4.9908,-5.0115,0.0,0.0,0.0,0.0,0.0,0.0,0.0,0.0,0.0,0.0,0.0,0.0,0.0,0.0,0.0,0.0,0.0,0.0,0.0,-1.7777,-1.8336,-1.9548,-2.0772,-2.1518,-2.1737,-2.2119,-2.2254,-2.2149,-2.2742,-2.3153,-2.3388,-2.3818,-2.4182,-2.4476,-2.4494,-2.3998,-2.308,-2.2315,-2.1579,-2.0881,-2.0539,-2.0373,-2.0304,-2.0304,-2.0304,0.0,0.0,0.0,0.0,0.0,0.0,0.0,-2.0304,-2.1011,-2.172,-2.0949,-2.2794,-2.5066,-2.4995,-2.7642,0.0,0.0,-3.4352,-3.6307,-3.7277,-3.7615,0.0,0.0,0.0,0.0,0.0,0.0,0.0,0.0,0.0,0.0,0.0,0.0,0.0,0.0,0.0,0.0,0.0,0.0,0.0,0.0,0.0,0.0,0.0,0.0,0.0,0.0,0.0,0.0,-4.461,-4.461,-4.461,0.0,-4.461,-4.461,-4.4625,-4.4918,-4.5041,-4.5041,-4.5041,-4.5041,-4.5049,-4.5588,-4.6175,-4.6762,-4.7448,-4.8052,-4.8695,-4.963,-4.9976,-5.0113,0.0,0.0,0.0,0.0,0.0,0.0,0.0,0.0,0.0,0.0,0.0,0.0,0.0,0.0,0.0,0.0,0.0,0.0,0.0,-1.767,-1.8193,-1.9482,-2.0842,-2.1631,-2.1766,-2.1959,-2.2049,-2.2034,-2.2389,-2.2847,-2.341,-2.3747,-2.4312,-2.5002,-2.4587,-2.3955,-2.3145,-2.2358,-2.1461,-2.0561,-2.056,-2.0441,-2.0304,-2.0304,-2.0304,-2.0304,-2.0304,0.0,0.0,0.0,0.0,0.0,0.0,0.0,-2.1334,-2.1273,-2.2717,-2.4564,-2.5518,0.0,0.0,-3.3767,0.0,0.0,0.0,0.0,0.0,0.0,0.0,0.0,0.0,0.0,0.0,0.0,0.0,0.0,0.0,0.0,0.0,0.0,0.0,0.0,0.0,0.0,0.0,0.0,0.0,0.0,0.0,0.0,0.0,0.0,0.0,0.0,-4.4132,-4.4456,-4.461,-4.461,-4.461,-4.461,-4.461,-4.461,-4.461,-4.461,-4.461,-4.461,-4.4641,-4.5344,-4.588,-4.6339,-4.7361,-4.8037,-4.8502,-4.9626,-5.0042,-5.0158,0.0,0.0,0.0,0.0,0.0,0.0,0.0,0.0,0.0,0.0,0.0,0.0,0.0,0.0,0.0,0.0,0.0,0.0,0.0,-1.7659,-1.81,-1.9263,-2.0383,-2.1236,-2.1807,-2.159,-2.1685,-2.2124,-2.2124,-2.2639,-2.3659,-2.3912,-2.4561,-2.5576,-2.4775,-2.4106,-2.352,-2.254,-2.1485,-2.0478,-2.057,-2.0456,-2.0204,-2.0064,-1.9983,-1.9948,-2.0088,-2.0135,-2.015,-2.0273,0.0,0.0,0.0,0.0,-2.052,-2.1627,-2.2501,-2.364,-2.6041,0.0,-3.2179,-3.5353,0.0,0.0,0.0,0.0,0.0,0.0,0.0,0.0,0.0,0.0,0.0,0.0,0.0,0.0,0.0,0.0,0.0,0.0,0.0,0.0,0.0,0.0,0.0,0.0,0.0,0.0,0.0,0.0,0.0,0.0,0.0,-4.3439,-4.3439,-4.3994,-4.4295,-4.444,-4.4526,-4.461,-4.461,-4.461,-4.461,-4.461,-4.4708,-4.4783,-4.4858,-4.5604,-4.5969,-4.6218,-4.7439,-4.7999,-4.8244,-4.9472,-4.9898,-4.9999,0.0,0.0,0.0,0.0,0.0,0.0,0.0,0.0,0.0,0.0,-1.7777,-1.7755,-1.7755,-1.7755,0.0,0.0,0.0,0.0,-1.78,0.0,0.0,-1.823,-1.9198,-1.9775,-1.9873,-2.0103,-2.06,-2.1343,-2.1343,-2.2509,-2.4696,-2.4507,-2.485,-2.5559,-2.482,-2.4293,-2.3819,-2.2133,-2.1326,-2.1086,-2.0194,-1.9862,-1.9799,-1.9076,-1.8672,-1.8545,-1.9193,-1.9425,-1.9518,-2.0104,-2.0304,0.0,0.0,0.0,0.0,0.0,-2.1442,-2.2624,0.0,0.0,0.0,0.0,0.0,0.0,0.0,0.0,0.0,0.0,0.0,0.0,0.0,0.0,0.0,0.0,0.0,0.0,0.0,0.0,0.0,0.0,0.0,0.0,0.0,0.0,0.0,0.0,0.0,0.0,0.0,0.0,0.0,-4.2586,-4.2694,0.0,-4.274,-4.2817,-4.3156,-4.3747,-4.4332,-4.461,-4.461,-4.461,-4.461,-4.4648,-4.529,-4.5551,-4.5588,-4.6359,-4.7035,-4.7622,-4.7819,-4.8306,-4.8877,-4.9072,-4.9154,-4.9171,0.0,0.0,0.0,0.0,0.0,0.0,0.0,0.0,0.0,0.0,0.0,-1.7635,-1.7789,-1.7658,0.0,0.0,0.0,0.0,-1.7589,-1.795,0.0,-1.828,-1.9059,-1.9588,-1.9775,-1.9921,-2.0386,-2.119,-2.0737,-2.2161,-2.5297,-2.5173,-2.5815,-2.7049,-2.5673,-2.4877,-2.4497,-2.2639,-2.1406,-2.0631,-2.0003,-2.0194,-2.0681,-1.8999,-1.9258,-2.0375,-1.9595,-1.9533,-1.9903,-2.0212,-2.0304,-2.0304,0.0,0.0,0.0,0.0,0.0,0.0,-2.5349,0.0,0.0,0.0,0.0,0.0,0.0,0.0,0.0,0.0,0.0,0.0,0.0,0.0,0.0,0.0,0.0,0.0,0.0,0.0,0.0,0.0,0.0,0.0,0.0,0.0,0.0,0.0,0.0,0.0,0.0,-4.1001,-4.114,-4.1397,-4.1832,0.0,-4.2048,-4.2417,-4.2756,-4.3033,-4.3732,-4.4055,-4.4055,-4.444,-4.461,-4.461,-4.4933,-4.5067,-4.5179,-4.6324,-4.6983,-4.7355,-4.821,-4.8719,-4.9001,-4.9001,-4.9001,-4.9001,0.0,0.0,0.0,0.0,0.0,0.0,0.0,0.0,0.0,0.0,0.0,0.0,-1.7789,0.0,0.0,0.0,0.0,0.0,-1.7216,0.0,0.0,0.0,-1.8717,-1.9169,-1.9444,-1.9427,-1.9828,-2.0615,-2.02,-2.1869,-2.5429,-2.5746,-2.6956,-2.8781,-2.7142,-2.5895,-2.5012,-2.3424,-2.2069,-2.1002,-2.0575,-2.0939,-2.1558,-2.0148,-2.0723,-2.2105,-2.0613,-2.0273,-2.0535,0.0,0.0,0.0,0.0,0.0,0.0,0.0,0.0,0.0,0.0,0.0,0.0,0.0,0.0,0.0,0.0,0.0,0.0,0.0,0.0,0.0,0.0,0.0,0.0,0.0,0.0,0.0,0.0,0.0,0.0,0.0,0.0,0.0,0.0,0.0,0.0,0.0,0.0,0.0,0.0,-4.0489,-4.0489,-4.0489,-4.1047,-4.1324,-4.1324,-4.2001,-4.2355,-4.2355,-4.3017,-4.3362,-4.334,-4.3848,-4.4269,-4.4648,-4.4989,-4.5179,-4.5274,-4.6742,-4.7355,-4.7472,-4.8562,-4.9001,-4.9001,-4.9001,-4.9001,-4.9001,0.0,0.0,0.0,0.0,0.0,0.0,0.0,0.0,0.0,0.0,0.0,0.0,-1.78,-1.7789,-1.7789,-1.78,-1.7566,0.0,0.0,0.0,0.0,0.0,0.0,0.0,-1.7918,-1.7918,-1.8285,-1.9012,-1.9676,-2.168,-2.4959,-2.6101,-2.7981,-3.0336,-2.9292,-2.7428,-2.5046,-2.4249,-2.3687,-2.324,-2.2407,-2.1963,-2.1911,-2.2998,-2.2951,-2.2289,-2.2178,-2.1766,0.0,0.0,0.0,0.0,0.0,0.0,-2.0304,0.0,0.0,0.0,0.0,0.0,0.0,0.0,0.0,0.0,0.0,0.0,0.0,0.0,0.0,0.0,0.0,0.0,0.0,0.0,0.0,0.0,0.0,0.0,0.0,0.0,0.0,0.0,0.0,0.0,0.0,0.0,0.0,0.0,-4.0489,-4.0489,-4.0489,-4.0489,-4.0536,-4.0551,-4.0551,-4.1294,-4.1648,-4.1663,-4.234,-4.2663,-4.2663,-4.2694,-4.3417,-4.4764,-4.6105,-4.6673,-4.6811,-4.829,-4.8909,-4.8892,-4.897,-4.9001,-4.9001,-4.9001,-4.9001,-4.9001,0.0,0.0,0.0,0.0,0.0,0.0,0.0,0.0,0.0,0.0,0.0,0.0,0.0,-1.78,-1.78,-1.78,-1.7554,0.0,0.0,0.0,0.0,0.0,0.0,0.0,-1.78,-1.78,-1.8155,-1.8894,-1.8679,-2.0409,-2.3955,-2.438,-2.5561,-2.7376,-2.7704,-2.7473,-2.6655,-2.4034,-2.2965,-2.3014,-2.2573,-2.2896,-2.3632,-2.3351,-2.4221,-2.5395,-2.4056,0.0,0.0,0.0,0.0,0.0,-2.0443,-1.9996,-1.9657,-1.9657,-1.9965,-2.0705,0.0,0.0,0.0,0.0,0.0,0.0,0.0,0.0,0.0,0.0,0.0,0.0,0.0,0.0,0.0,0.0,0.0,0.0,0.0,0.0,0.0,0.0,0.0,0.0,0.0,0.0,0.0,0.0,0.0,0.0,-4.0489,-4.0489,-4.0489,-4.0489,-4.0489,-4.0489,-4.0489,-4.0751,-4.0874,-4.0924,-4.1632,-4.1971,-4.1971,-4.2402,-4.287,-4.3432,-4.4831,-4.5953,-4.688,-4.7869,-4.8306,-4.8338,-4.8829,-4.9001,-4.9001,-4.9001,-4.9001,-4.9001,0.0,0.0,0.0,0.0,0.0,0.0,0.0,0.0,-1.78,-1.78,0.0,0.0,0.0,0.0,-1.812,-1.8051,-1.7723,-1.7542,-1.7542,-1.7542,0.0,0.0,0.0,0.0,-1.78,-1.78,-1.8036,-1.8538,-1.8302,-1.9705,-2.268,-2.3051,-2.4079,-2.5593,-2.5713,-2.6365,-2.7282,-2.4813,-2.3753,-2.3752,-2.3965,-2.4395,-2.4952,-2.551,-2.6557,-2.758,0.0,0.0,0.0,0.0,0.0,0.0,-2.1242,-2.0366,-1.9641,-1.9641,-1.995,-2.0597,-2.1935,0.0,0.0,0.0,0.0,0.0,0.0,0.0,0.0,0.0,0.0,0.0,0.0,0.0,0.0,0.0,0.0,0.0,0.0,0.0,0.0,0.0,0.0,0.0,0.0,0.0,0.0,0.0,0.0,0.0,-3.9813,-3.9813,-3.992,-4.0151,-4.0382,-4.0489,-4.0489,-4.0489,-4.0489,-4.0505,-4.1016,-4.1232,-4.1247,-4.1926,-4.2482,-4.3035,-4.4219,-4.5375,-4.6523,-4.7505,-4.8057,-4.8306,-4.8798,-4.9001,-4.9001,-4.9001,-4.9001,-4.9001,0.0,0.0,0.0,0.0,0.0,0.0,0.0,0.0,-1.78,-1.7834,0.0,0.0,0.0,0.0,0.0,-1.8581,-1.8111,-1.7611,-1.71,-1.7519,0.0,0.0,0.0,0.0,-1.78,-1.78,-1.78,-1.78,-1.8521,-1.965,-2.1156,-2.2272,-2.3725,-2.539,-2.3659,-2.4275,-2.659,-2.6556,-2.6162,-2.5677,0.0,-2.6394,-2.583,0.0,-3.0007,0.0,-2.9283,-2.8642,0.0,-2.5933,0.0,0.0,-2.2736,-2.1365,-2.0304,-2.0289,-2.0304,-2.0335,0.0,0.0,0.0,0.0,0.0,0.0,0.0,0.0,0.0,0.0,0.0,0.0,0.0,0.0,0.0,0.0,0.0,0.0,0.0,0.0,0.0,0.0,0.0,0.0,0.0,0.0,0.0,0.0,0.0,0.0,-3.8508,-3.8508,-3.8816,-3.9428,-4.009,-4.0428,-4.0428,-4.0459,-4.0459,-4.0459,-4.0489,-4.0489,-4.0524,-4.1176,-4.2251,-4.3685,-4.4346,-4.5074,-4.5862,-4.7297,-4.8308,-4.8968,-4.8968,-4.8984,-4.9001,-4.9001,-4.9001,-4.9001,0.0,0.0,0.0,0.0,0.0,-1.681,-1.7411,-1.7665,-1.7986,0.0,0.0,0.0,-1.9625,-1.971,-1.9668,-1.9593,-1.8981,-1.853,-1.8382,-1.8018,-1.7777,-1.7681,-1.7766,-1.78,-1.78,-1.78,-1.78,-1.78,-1.8003,-1.8606,-1.9536,-1.9866,-2.0874,-2.2412,-2.2445,-2.315,-2.4223,-2.2919,0.0,-2.543,-2.5291,-2.639,0.0,0.0,0.0,0.0,0.0,-3.1348,-3.0151,0.0,-2.7904,-2.5964,0.0,-2.098,-2.0212,-1.9718,-2.0273,-2.0919,-2.0426,0.0,0.0,0.0,0.0,0.0,0.0,0.0,0.0,0.0,0.0,0.0,0.0,0.0,0.0,0.0,0.0,0.0,0.0,0.0,0.0,0.0,0.0,0.0,0.0,0.0,0.0,0.0,0.0,-3.8508,-3.8508,-3.8508,-3.86,-3.8785,-3.897,-3.9062,-3.9062,-3.9521,-3.9767,-3.9767,-4.0259,-4.0489,-4.0489,-4.0681,-4.1252,-4.2139,-4.2828,-4.3835,-4.5115,-4.6525,-4.7547,-4.8193,-4.8193,-4.8545,-4.9001,-4.9001,-4.9001,-4.9001,0.0,0.0,0.0,-1.5859,-1.6619,-1.726,-1.7732,-1.8324,-1.8763,0.0,0.0,0.0,-2.0433,-2.0775,-2.0842,-2.0521,-1.9519,-1.8894,-1.8894,-1.8217,-1.78,-1.78,-1.78,-1.7935,-1.8239,-1.7952,-1.7952,-1.8268,-1.7952,-1.802,-1.8442,-1.861,-1.9244,-2.0247,-2.0542,-2.1359,-2.2395,-2.1005,0.0,0.0,-2.6407,0.0,0.0,-3.0907,-3.1831,0.0,0.0,0.0,-3.2167,-3.1797,-2.995,0.0,0.0,-2.227,-2.1673,-2.0165,-2.0857,-2.1935,-2.098,-2.1211,-2.1766,0.0,0.0,0.0,0.0,0.0,0.0,0.0,0.0,0.0,0.0,0.0,0.0,0.0,0.0,0.0,0.0,0.0,0.0,0.0,0.0,0.0,0.0,0.0,0.0,0.0,-3.7677,-3.7677,-3.7677,-3.7938,-3.8092,-3.8092,-3.8354,-3.8508,-3.8508,-3.8908,-3.9059,-3.9108,-3.9751,-4.0074,-4.0108,-4.095,-4.1558,-4.1981,-4.2939,-4.3853,-4.4721,-4.5525,-4.6498,-4.7445,-4.7445,-4.7699,-4.8122,-4.8443,-4.8545,-4.8595,0.0,0.0,-1.594,-1.6674,-1.7484,-1.8008,-1.7935,-1.9089,-1.9811,0.0,-1.9862,-2.0673,-2.1478,-2.2073,-2.2158,-2.1495,-2.0039,-1.9113,-1.9029,-1.8335,-1.7884,-1.78,-1.7884,-1.82,-1.8775,-1.829,-1.8302,-1.8775,-1.82,-1.7884,-1.7817,-1.8156,-1.8481,-1.8763,-1.8514,-1.9397,-2.1038,-2.0546,-2.2166,-2.5327,-2.8421,-2.949,0.0,0.0,-3.3313,0.0,-3.4206,-3.4226,-3.3629,-3.3552,-3.1397,0.0,0.0,-2.4702,-2.4133,-2.1504,-2.212,-2.3332,-2.2012,-2.2135,-2.2855,-2.384,0.0,0.0,0.0,-2.4933,0.0,0.0,0.0,0.0,0.0,0.0,0.0,0.0,0.0,0.0,0.0,0.0,0.0,0.0,0.0,0.0,0.0,0.0,0.0,-3.6492,-3.6492,-3.6492,-3.6492,-3.7061,-3.7384,-3.7384,-3.7969,-3.8325,-3.8375,-3.8452,-3.8515,-3.858,-3.9261,-3.9586,-3.9634,-4.1534,-4.2438,-4.2562,-4.3898,-4.4542,-4.4615,-4.4615,-4.5427,-4.6667,-4.6667,-4.6718,-4.687,-4.7547,-4.78,-4.7885,0.0,-1.6703,-1.7186,-1.7389,-1.8536,-1.9248,-1.8763,-1.9439,-2.0183,-2.0699,-2.1904,-2.3021,-2.3763,-2.3458,-2.3122,-2.2984,-2.1613,-2.0467,-1.9828,-1.9084,-1.842,-1.7834,-1.8369,-1.8471,-1.802,-1.9051,-1.9068,-1.8003,-1.8471,-1.8386,-1.78,-1.7878,-1.7946,-1.8025,-1.8331,-1.9135,-2.0339,-2.1795,0.0,-2.5563,-2.6516,0.0,-3.204,-3.2859,-3.4115,-3.5465,-3.5805,-3.5583,-3.5028,0.0,-3.2749,-3.0428,0.0,0.0,-2.6364,-2.4164,-2.4543,-2.5419,-2.4087,-2.421,-2.4394,-2.3025,0.0,0.0,0.0,-2.2536,0.0,0.0,0.0,0.0,0.0,0.0,0.0,0.0,0.0,0.0,0.0,0.0,0.0,0.0,0.0,0.0,0.0,0.0,0.0,-3.6492,-3.6492,-3.6492,-3.6492,-3.6615,-3.6692,-3.6692,-3.6815,-3.7111,-3.7617,-3.8167,-3.8664,-3.9145,-3.982,-4.0126,-4.0188,-4.1171,-4.1892,-4.2479,-4.3339,-4.4047,-4.4615,-4.4615,-4.5111,-4.5923,-4.5923,-4.6278,-4.6802,-4.6955,-4.7005,-4.7039,-1.6586,-1.7631,-1.8684,-1.879,-1.9685,-2.0333,-2.0082,-2.063,-2.1393,-2.2192,-2.3855,-2.4868,-2.4541,-2.414,-2.3771,-2.3427,-2.2053,-2.1021,-2.0619,-1.9519,-1.8741,-1.8369,-1.8352,-1.851,-1.8899,-1.8899,-1.8899,-1.8899,-1.8538,-1.8155,-1.78,-1.78,-1.8189,-1.8887,-1.8761,-1.961,-2.1184,-2.183,-2.3134,-2.4979,-2.7591,0.0,-3.2739,-3.4064,-3.5435,-3.6669,-3.6468,-3.6242,-3.5752,-3.4043,-3.2967,0.0,0.0,-2.8858,-2.8916,0.0,-2.672,-2.7458,-2.5648,-2.5474,-2.5558,-2.4579,0.0,0.0,0.0,0.0,0.0,0.0,0.0,0.0,0.0,0.0,0.0,0.0,0.0,0.0,0.0,0.0,0.0,0.0,0.0,0.0,0.0,0.0,-3.6122,-3.6461,-3.6492,-3.6492,-3.6492,-3.6492,-3.6492,-3.6492,-3.6492,-3.6631,-3.6952,-3.7296,-3.7757,-3.8352,-3.9026,-3.9496,-3.9839,-4.0877,-4.1543,-4.191,-4.2972,-4.3665,-4.4028,-4.4418,-4.4835,-4.5145,-4.5145,-4.5365,-4.5766,-4.6109,-4.6244,-4.6295,-1.7104,-1.8446,-1.9792,-1.9925,-2.0649,-2.1187,-2.115,-2.1751,-2.2611,-2.3665,-2.5325,-2.6135,-2.5439,-2.5059,-2.471,-2.4288,-2.2701,-2.1699,-2.1653,-2.0239,-1.9315,-1.913,-1.8691,-1.8865,-1.9778,-1.8915,-1.8814,-1.9579,-1.8527,-1.7935,-1.78,-1.7952,-1.861,-1.9677,-1.9395,-2.0439,-2.2377,0.0,0.0,-2.5446,0.0,-3.1361,-3.2193,-3.4695,-3.6195,-3.6928,-3.6759,-3.6616,-3.6138,-3.3783,0.0,-3.3385,-3.0176,-3.0444,0.0,0.0,0.0,0.0,0.0,0.0,0.0,0.0,0.0,-2.5456,0.0,0.0,0.0,-2.5466,0.0,0.0,0.0,0.0,0.0,0.0,0.0,0.0,0.0,0.0,0.0,0.0,0.0,0.0,0.0,0.0,0.0,-3.603,-3.5845,-3.5876,-3.6276,-3.6415,-3.6492,-3.6492,-3.66,-3.6723,-3.6861,-3.6967,-3.7312,-3.7927,-3.8459,-3.8979,-3.9511,-4.0712,-4.1283,-4.1361,-4.2627,-4.3257,-4.3443,-4.4096,-4.4479,-4.4615,-4.4615,-4.4615,-4.4682,-4.5263,-4.55,-4.5568,-1.8303,-1.8998,-1.9638,-1.9717,-2.0933,-2.1689,-2.112,-2.1748,-2.304,-2.5068,-2.5511,-2.6354,-2.8264,-2.7321,-2.6768,-2.7347,-2.5058,-2.3497,-2.3243,-2.1965,-2.082,-1.9904,-2.0483,-2.0259,-1.9046,-2.0209,-1.9921,-1.8053,-1.8538,-1.8437,-1.7817,-1.8471,-1.8716,-1.8641,-1.999,-2.1416,-2.2833,0.0,-2.5346,0.0,-3.0004,-3.0079,0.0,-3.2975,-3.4901,-3.6146,-3.7011,-3.6952,-3.6353,0.0,-3.5509,-3.5498,0.0,-3.2831,-3.3482,0.0,0.0,0.0,0.0,0.0,0.0,0.0,-2.8705,0.0,0.0,0.0,-2.5175,-2.4048,0.0,0.0,0.0,0.0,0.0,0.0,0.0,0.0,0.0,0.0,0.0,0.0,0.0,0.0,0.0,0.0,0.0,0.0,-3.3552,-3.366,-3.5537,-3.6168,-3.6492,-3.6492,-3.7013,-3.7533,-3.808,-3.8629,-3.9206,-3.9799,-3.9883,-3.9942,-4.0027,-4.0837,-4.1218,-4.1251,-4.2074,-4.2811,-4.3392,-4.3494,-4.3961,-4.4615,-4.4615,-4.4615,-4.4615,-4.4699,-4.4733,-4.475,-1.7913,-1.9203,-2.0043,-1.9269,-2.0712,-2.1792,-2.114,-2.3558,-2.5461,-2.5528,-2.7345,-2.8893,-2.9548,-2.8628,0.0,-2.8004,0.0,-2.5234,0.0,0.0,-2.2053,-2.1978,-2.1028,-2.0606,-2.0873,-2.0213,-1.9604,-1.9084,-1.8527,-1.8104,-1.7817,-1.8555,-1.9306,-2.0086,-2.1633,0.0,-2.4628,0.0,0.0,0.0,0.0,0.0,0.0,-3.3329,-3.562,-3.6359,-3.713,-3.7013,-3.6261,0.0,-3.4713,0.0,0.0,0.0,0.0,0.0,0.0,0.0,0.0,0.0,0.0,0.0,0.0,0.0,0.0,0.0,-2.523,0.0,0.0,0.0,0.0,0.0,0.0,0.0,0.0,0.0,0.0,0.0,0.0,0.0,0.0,0.0,0.0,0.0,0.0,0.0,0.0,-3.2872,-3.5308,-3.6074,-3.6784,-3.7517,-3.7796,-3.8039,-3.8306,-3.8181,-3.8629,-3.9575,-3.9216,-3.9428,-4.0113,-4.0434,-4.0544,-4.0595,-4.1339,-4.1847,-4.2168,-4.2591,-4.2946,-4.3328,-4.3741,-4.4181,-4.4615,-4.4615,-4.4615,-4.4615,-1.7776,-1.9066,-1.9907,-1.9089,-2.0451,-2.168,-2.165,-2.4371,-2.6353,-2.6135,-2.8349,-3.0211,-3.0915,-3.002,0.0,0.0,-2.853,-2.7279,0.0,0.0,-2.3819,-2.4057,-2.2242,0.0,0.0,-2.0722,-1.9879,-2.0002,-1.8932,-1.8408,-1.8425,-1.9181,-2.0035,-2.1014,-2.2947,-2.4597,-2.5929,0.0,0.0,-2.7309,-2.7967,-2.8744,-2.9956,-3.4172,-3.6068,-3.6585,-3.7178,-3.7013,-3.623,-3.4537,-3.4423,0.0,-3.3964,0.0,0.0,0.0,0.0,0.0,-3.3369,0.0,0.0,0.0,0.0,0.0,0.0,0.0,0.0,0.0,0.0,0.0,0.0,0.0,0.0,0.0,0.0,0.0,0.0,0.0,0.0,0.0,0.0,0.0,0.0,0.0,0.0,0.0,0.0,0.0,-3.4648,-3.5768,-3.683,-3.7943,-3.8365,-3.8546,-3.8546,-3.8266,-3.859,-3.9444,-3.8984,-3.9252,-4.0096,-4.0096,-4.0096,-4.013,-4.0663,-4.1018,-4.1238,-4.1779,-4.2117,-4.2337,-4.2895,-4.3453,-4.4022,-4.4445,-4.4615,-4.4615,-1.8472,-1.8538,-1.8787,-1.9449,-2.0265,-2.1347,-2.282,-2.3154,-2.4307,-2.7246,0.0,0.0,0.0,0.0,0.0,0.0,0.0,-2.9807,-2.8925,0.0,-2.6489,-2.5839,-2.4878,-2.3834,0.0,-2.2348,-2.1468,-2.0002,-1.9951,-1.9934,-1.9951,-2.0737,-2.0811,-2.0368,-2.3473,-2.5271,-2.6043,-2.7032,-2.9756,-3.3274,-3.1902,-3.3146,-3.5727,0.0,-3.5584,-3.6585,-3.7178,0.0,0.0,-3.566,-3.5787,0.0,0.0,0.0,0.0,0.0,0.0,0.0,0.0,0.0,0.0,-3.1517,0.0,0.0,0.0,0.0,-2.9057,0.0,0.0,0.0,0.0,0.0,-2.6617,-2.4842,-2.425,0.0,0.0,0.0,0.0,0.0,0.0,0.0,0.0,0.0,0.0,0.0,0.0,0.0,-3.3066,-3.5086,-3.6465,-3.7203,-3.8504,-3.9179,-3.9179,-3.9722,-4.002,-4.007,-4.0045,-4.0045,-4.0096,-4.0096,-4.0096,-4.0096,-4.013,-4.0527,-4.1204,-4.1238,-4.166,-4.2286,-4.232,-4.2337,-4.254,-4.4056,-4.4615,-4.4615,-1.9234,-1.9234,-1.9316,0.0,0.0,-2.2032,-2.3529,-2.4996,-2.6706,0.0,0.0,0.0,0.0,0.0,-3.3629,0.0,0.0,-3.2349,-3.064,-2.9588,0.0,0.0,0.0,-2.5782,0.0,0.0,-2.253,-2.1519,-2.0504,-2.0002,-2.0018,-2.0592,-2.0749,-2.065,-2.3407,-2.537,0.0,0.0,0.0,0.0,0.0,-3.3398,-3.6282,0.0,0.0,-3.6523,-3.6723,-3.6662,0.0,-3.623,-3.5997,-3.5762,-3.5829,-3.5333,-3.4883,-3.5442,-3.5461,0.0,0.0,0.0,-3.5646,-3.3214,0.0,0.0,0.0,0.0,0.0,0.0,0.0,0.0,0.0,-2.8242,-2.7277,-2.6167,-2.5063,-2.3868,0.0,0.0,0.0,0.0,0.0,0.0,0.0,0.0,0.0,0.0,0.0,0.0,0.0,-3.5153,-3.6769,-3.8328,-3.931,-3.9799,-3.9799,-3.9601,-3.9696,-4.0113,-3.9696,-3.9722,-4.0096,-4.0096,-4.0096,-4.0096,-4.0096,-4.0248,-4.046,-4.046,-4.0637,-4.0891,-4.1373,-4.1576,-4.1745,-4.325,-4.3809,-4.3876,-1.9978,-2.0194,0.0,0.0,0.0,0.0,0.0,0.0,0.0,0.0,-3.1574,0.0,-3.526,0.0,-3.4936,0.0,-3.5369,-3.4168,-3.2079,-3.1679,0.0,-2.9614,-2.8498,0.0,0.0,-2.5696,-2.4261,-2.2774,-2.1975,-2.1333,-2.0812,-2.1014,-2.103,-2.1011,-2.3403,-2.54,-2.7099,0.0,-3.0002,0.0,0.0,-3.4525,0.0,0.0,-3.6492,0.0,0.0,-3.6492,-3.6492,-3.6492,-3.6199,-3.5953,-3.6353,-3.5891,-3.5319,-3.5861,-3.59,-3.5734,-3.5803,-3.6047,0.0,0.0,-3.3169,0.0,-2.9966,0.0,0.0,0.0,0.0,0.0,0.0,0.0,-2.8275,-2.7197,-2.5715,-2.4221,0.0,0.0,0.0,0.0,0.0,0.0,0.0,0.0,-2.5232,-2.7277,0.0,0.0,0.0,0.0,-3.6316,-3.8159,-3.9199,-3.9842,-4.0096,-3.9722,-3.9722,-4.0113,-3.9722,-3.9722,-4.0096,-4.0096,-4.0096,-4.0096,-4.0096,-4.0096,-4.0096,-4.0096,-4.0096,-4.0146,-4.0612,-4.0798,-4.0984,-4.2472,-4.3156,-4.3511,0.0,0.0,0.0,0.0,-2.2559,0.0,0.0,0.0,-2.9687,0.0,-3.2574,-3.4227,-3.5489,-3.531,-3.5508,-3.6605,-3.636,0.0,-3.3389,-3.3826,0.0,0.0,-3.0323,-2.9399,-2.7612,-2.7763,-2.6498,-2.375,-2.4175,-2.3695,-2.2347,-2.1961,-2.1631,-2.1404,-2.3461,0.0,-2.7286,-2.9154,-3.1871,-3.4928,-3.5701,-3.6518,-3.7206,-3.6703,0.0,-3.6492,-3.6492,-3.6492,-3.6492,-3.6492,-3.6492,-3.6492,-3.6492,-3.6492,-3.6368,-3.5752,-3.5984,-3.6322,-3.5577,-3.583,-3.5916,-3.4354,0.0,0.0,0.0,0.0,-3.4163,0.0,0.0,0.0,0.0,0.0,-2.9638,-2.7875,-2.6217,-2.4265,-2.1807,0.0,0.0,0.0,0.0,0.0,0.0,0.0,-2.4473,-2.6848,-2.6822,0.0,0.0,0.0,0.0,-3.6745,-3.8227,-3.9368,-4.0096,-4.0096,-4.0096,-4.0096,-4.0096,-4.0096,-4.0096,-4.0096,-4.0096,-4.0096,-4.0096,-4.0096,-4.0096,-4.0096,-4.0096,-4.0096,-4.0096,-4.0096,-4.0282,-4.1711,-4.2743,-4.3521,-2.1531,-2.2096,-2.2725,0.0,-2.3172,-2.4,0.0,0.0,0.0,0.0,-3.2939,-3.4023,-3.5962,-3.61,-3.6531,-3.7762,-3.7361,0.0,0.0,0.0,0.0,-3.2779,-3.2076,-3.1278,-3.0315,-2.819,0.0,-2.5991,-2.3892,-2.2953,-2.3105,-2.221,-2.1751,-2.1727,0.0,0.0,-2.6792,-2.8519,-3.1838,-3.5864,-3.5173,-3.6156,0.0,0.0,-3.6492,-3.6492,-3.6492,-3.6492,-3.6492,-3.6492,-3.6492,-3.6492,-3.6492,-3.6492,-3.6461,-3.6276,-3.6353,-3.6446,-3.6229,-3.6321,-3.6438,-3.6337,-3.5246,-3.4175,0.0,0.0,0.0,0.0,0.0,0.0,0.0,0.0,0.0,-2.8174,-2.647,-2.5042,0.0,0.0,0.0,0.0,0.0,0.0,0.0,0.0,-2.498,-2.5916,0.0,0.0,0.0,0.0,0.0,-3.6728,-3.8227,-3.9368,-4.0096,-4.0096,-4.0096,-4.0096,-4.0096,-4.0096,-4.0096,-4.0096,-4.0096,-4.0096,-4.0096,-4.0096,-4.0096,-4.0096,-4.0096,-4.0096,-4.0096,-4.0096,-4.0214,-4.1136,-4.2303,-4.3426,-2.2212,0.0,0.0,-2.5309,0.0,0.0,-2.8,0.0,0.0,-3.2424,-3.3685,0.0,-3.5095,-3.6153,-3.7011,-3.7442,-3.7413,0.0,0.0,0.0,0.0,-3.353,-3.3312,-3.2675,-3.1417,-2.9687,0.0,-2.6405,0.0,-2.352,-2.2888,-2.216,-2.1721,-2.1635,0.0,-2.458,0.0,-2.9318,-3.245,-3.5428,-3.5272,0.0,0.0,-3.7252,-3.6892,-3.6861,-3.66,-3.6492,-3.6492,-3.6492,-3.6492,-3.6492,-3.6492,-3.6492,-3.6492,-3.6492,-3.6492,-3.6492,-3.6492,-3.6492,-3.6569,-3.6839,-3.6372,-3.5883,-3.5836,-3.6313,-3.6614,0.0,0.0,0.0,0.0,0.0,0.0,-2.7384,-2.5879,-2.4966,0.0,0.0,0.0,0.0,0.0,0.0,0.0,0.0,0.0,0.0,0.0,0.0,0.0,0.0,0.0,0.0,-3.7398,-3.887,-3.9622,-3.9943,-4.0096,-4.0096,-4.0096,-4.0096,-4.0096,-4.0096,-4.0096,-4.0096,-4.0096,-4.0096,-4.0096,-4.0096,-4.0096,-4.0096,-4.0096,-4.0096,-4.0146,-4.0561,-4.1457,-4.2462,0.0,0.0,0.0,0.0,0.0,0.0,0.0,-3.1466,0.0,-3.257,0.0,-3.5468,-3.4046,-3.6009,-3.7161,-3.6569,0.0,-3.6832,-3.5543,-3.5965,-3.5493,-3.3758,-3.4181,-3.3634,-3.1795,-3.1326,0.0,0.0,0.0,-2.4365,-2.2431,-2.1955,-2.1624,-2.1496,0.0,0.0,0.0,-3.0639,-3.3234,0.0,-3.5717,-3.7031,-3.8222,-3.7709,-3.746,-3.7328,-3.6816,-3.6585,-3.6492,-3.6492,-3.6492,-3.6492,-3.6492,-3.6492,-3.6492,-3.6492,-3.6492,-3.6492,-3.6492,-3.6554,-3.6631,-3.6723,-3.7533,-3.8026,-3.6885,-3.7368,-3.8096,-3.8169,-3.7127,0.0,0.0,0.0,0.0,-2.6539,0.0,0.0,0.0,0.0,0.0,0.0,0.0,0.0,0.0,0.0,0.0,0.0,0.0,0.0,0.0,0.0,0.0,0.0,-3.6231,0.0,-3.8988,0.0,-4.0096,-4.0096,-4.0096,-4.0096,-4.0096,-4.0096,-4.0096,-4.0096,-4.0096,-4.0096,-4.0096,-4.0096,-4.0096,-4.0096,-4.0096,-4.0096,-4.0096,-4.0096,-4.0493,-4.117,0.0,0.0,0.0,0.0,0.0,-3.0672,-3.1674,-3.2021,-3.2616,-3.3715,-3.4881,0.0,-3.586,-3.678,-3.734,-3.7251,-3.734,0.0,0.0,0.0,0.0,-3.514,-3.4746,-3.4099,-3.317,-3.0821,-2.8936,0.0,-2.4572,-2.3108,-2.3173,-2.1897,-2.1605,-2.2171,0.0,0.0,-2.8183,-3.0652,0.0,-3.5269,-3.5927,-3.7031,-3.8294,-3.8165,-3.7825,-3.7387,-3.7268,-3.6922,-3.6492,-3.6492,-3.6492,-3.6492,-3.6492,-3.6492,-3.6492,-3.6492,-3.6492,-3.6492,-3.6492,-3.6861,-3.7342,-3.7867,-3.8137,-3.8492,-3.9215,-3.9181,-3.913,-3.9606,-3.9503,-3.8804,-3.7184,0.0,0.0,0.0,0.0,0.0,0.0,0.0,0.0,0.0,0.0,0.0,0.0,0.0,0.0,0.0,0.0,0.0,0.0,0.0,0.0,0.0,0.0,0.0,0.0,0.0,0.0,-4.0096,-4.0096,-4.0096,-4.0096,-4.0096,-4.0096,-4.0096,-4.0096,-4.0096,-4.0096,-4.0096,-4.0096,-4.0096,-4.0096,-4.0096,-4.0096,-4.0096,-4.018,-4.0417,0.0,0.0,0.0,0.0,0.0,0.0,0.0,-3.3605,0.0,-3.3834,-3.4424,-3.4972,-3.5338,-3.6258,-3.6875,-3.6875,-3.6875,-3.66,-3.5973,-3.5651,-3.5504,-3.5504,-3.519,0.0,-3.4023,-3.1995,-2.9999,-2.8109,-2.5508,-2.3823,-2.298,-2.2147,-2.1872,-2.2118,0.0,-2.5968,0.0,0.0,0.0,-3.4507,-3.6135,-3.7383,-3.8306,-3.8306,-3.8322,-3.8282,-3.7998,-3.749,-3.6922,-3.6616,-3.6492,-3.6492,-3.6492,-3.6492,-3.6492,-3.6492,-3.6492,-3.6585,-3.6861,-3.7178,-3.7549,-3.8153,-3.8546,-3.892,-3.9497,-3.9644,-3.9747,-4.0045,-4.0096,-3.93,-3.6654,-3.3518,0.0,0.0,0.0,0.0,0.0,0.0,0.0,0.0,0.0,0.0,0.0,0.0,0.0,0.0,0.0,0.0,0.0,0.0,0.0,0.0,0.0,0.0,0.0,0.0,0.0,-4.0096,-4.0096,-4.0096,-4.0096,-4.0096,-4.0096,-4.0096,-4.0096,-4.0096,-4.0096,-4.0096,-4.0096,-4.0096,-4.0096,-4.0096,-4.0096,-4.0096,-4.0096,-4.0146,0.0,-2.9871,0.0,0.0,-3.2554,0.0,0.0,-3.4874,-3.513,-3.4053,-3.4258,-3.4561,-3.4799,-3.5784,-3.6399,-3.6399,-3.6399,-3.6133,-3.5537,-3.5504,-3.5504,-3.5504,-3.5504,-3.519,-3.4518,-3.332,-3.1302,0.0,0.0,-2.4987,-2.2801,-2.2633,-2.2578,0.0,0.0,0.0,0.0,0.0,-3.3334,-3.4237,-3.6389,-3.7691,-3.8306,-3.8306,-3.8601,-3.8947,-3.8474,-3.7982,-3.7519,-3.7058,-3.6708,-3.6492,-3.6492,-3.6492,-3.6492,-3.6492,-3.6492,-3.66,-3.7074,-3.7417,-3.7725,-3.8165,-3.8849,-3.9391,-3.9391,-3.9747,-4.0096,-4.0096,-3.9977,-3.8937,-3.5926,-3.3388,0.0,0.0,0.0,0.0,0.0,0.0,0.0,0.0,0.0,0.0,0.0,0.0,0.0,0.0,0.0,0.0,-2.4677,-2.6404,0.0,0.0,0.0,0.0,-3.7415,0.0,-3.9943,0.0,-4.0096,-4.0096,-4.0096,-4.0096,-4.0096,-4.0096,-4.0096,-4.0096,-4.0096,-4.0096,-4.0096,-4.0096,-4.0096,-4.0096,-4.0096,-4.0096,-4.0096,-4.0096,0.0,0.0,0.0,0.0,0.0,0.0,0.0,-3.4668,-3.5459,-3.5325,-3.5342,-3.5601,-3.6152,-3.6322,-3.6399,-3.6399,-3.6399,-3.6133,-3.5537,-3.5504,-3.5504,-3.5504,-3.5504,-3.519,-3.4518,-3.3769,-3.1995,0.0,0.0,0.0,0.0,-2.3354,0.0,0.0,0.0,0.0,0.0,-3.219,-3.409,-3.6184,-3.6917,-3.7635,-3.8306,-3.8306,-3.8351,-3.8379,-3.8306,-3.825,-3.821,-3.8153,-3.7415,-3.6492,-3.6492,-3.6492,-3.6492,-3.6492,-3.6492,-3.6523,-3.6585,-3.7385,-3.8238,-3.8294,-3.9146,-4.002,-4.002,-4.0045,-4.0096,-4.0096,-3.9571,-3.8176,-3.5148,-3.5481,-3.4936,0.0,0.0,0.0,0.0,0.0,0.0,0.0,0.0,0.0,0.0,0.0,0.0,0.0,0.0,0.0,0.0,-2.5693,0.0,-3.0125,0.0,-3.4315,-3.5802,-3.8007,0.0,-4.0096,-4.0096,-4.0096,-4.0096,-4.0096,-4.0096,-4.0096,-4.0096,-4.0096,-4.0096,-4.0096,-4.0096,-4.0096,-4.0096,-4.0096,-4.0096,-4.0096,-4.0096,-4.0096,0.0,0.0,0.0,0.0,0.0,0.0,0.0,-3.516,-3.5504,-3.5504,-3.5504,-3.5733,-3.6337,-3.6085,-3.6005,-3.6368,-3.6085,-3.5765,-3.5504,-3.5504,-3.5504,-3.5504,-3.5504,-3.537,-3.51,-3.4427,-3.2931,0.0,0.0,0.0,0.0,0.0,0.0,0.0,0.0,-3.0623,-3.228,-3.417,-3.5514,-3.6492,-3.746,-3.8035,-3.8306,-3.8306,-3.8518,-3.8821,-3.8821,-3.8821,-3.8821,-3.8821,-3.8294,-3.7592,-3.7592,-3.7342,-3.7043,-3.7043,-3.7043,-3.7118,-3.7474,-3.821,-3.8947,-3.9295,-3.9731,-4.0096,-4.0096,-4.0096,-3.9977,-3.9537,-3.8505,-3.732,-3.6101,-3.5267,-3.4491,0.0,0.0,0.0,0.0,0.0,0.0,0.0,0.0,0.0,0.0,0.0,0.0,0.0,0.0,0.0,0.0,0.0,0.0,-2.8644,0.0,-3.412,-3.5583,-3.7855,-3.9385,-4.0096,-4.0096,-4.0096,-4.0096,-4.0096,-4.0096,-4.0096,-4.0096,-4.0096,-4.0096,-4.0096,-4.0096,-4.0096,-4.0096,-4.0096,-4.0096,-4.0096,-4.0096,-4.0096,-3.3831,0.0,-3.3274,0.0,-3.4256,-3.4197,-3.5312,-3.5504,-3.5504,-3.5504,-3.5504,-3.5651,-3.6085,-3.5765,-3.5683,-3.6116,-3.5733,-3.5504,-3.5504,-3.5504,-3.5504,-3.5504,-3.5504,0.0,-3.5504,-3.5026,-3.3903,-3.2079,-3.1385,0.0,0.0,0.0,0.0,0.0,-3.1363,-3.2562,-3.4105,-3.5514,-3.6355,-3.678,-3.7674,-3.8153,-3.8278,-3.8096,-3.8407,-3.892,-3.8728,-3.8783,-3.8974,-3.9152,-3.892,-3.8546,-3.8379,-3.801,-3.765,-3.765,-3.765,-3.7767,-3.8165,-3.8739,-3.9312,-3.9722,-3.9969,-4.0096,-4.0096,-4.0096,-3.9842,-3.887,-3.7692,-3.6728,-3.6485,-3.5131,-3.4247,0.0,0.0,0.0,0.0,0.0,0.0,0.0,0.0,-2.5236,0.0,0.0,0.0,0.0,0.0,0.0,0.0,0.0,0.0,0.0,0.0,0.0,0.0,0.0,-3.9156,-4.0096,-4.0096,-4.0096,-4.0096,-4.0096,-4.0096,-4.0096,-4.0096,-4.0096,-4.0096,-4.0096,-4.0096,-4.0096,-4.0096,-4.0096,-4.0096,-4.0096,-4.0096,-4.0096,-3.4369,-3.4474,-3.4698,-3.537,-3.5474,-3.5474,-3.5504,-3.5504,-3.5504,-3.5504,-3.5504,-3.5504,-3.5504,-3.5504,-3.5504,-3.5504,-3.5504,-3.5504,-3.5504,-3.5504,-3.5504,0.0,0.0,-3.5504,-3.5504,-3.5489,-3.4831,-3.3469,0.0,0.0,-3.0175,0.0,0.0,-3.3675,-3.3947,-3.4932,-3.6314,-3.5745,-3.6239,-3.7401,-3.7401,-3.7767,-3.8222,-3.7637,-3.7796,-3.8238,-3.7637,-3.7796,-3.839,-3.9001,-3.9206,-3.9098,-3.849,-3.8278,-3.8294,-3.8294,-3.8294,-3.8278,-3.8306,-3.8739,-3.9206,-3.9206,-3.967,-4.0096,-4.0096,-4.0096,-3.969,-3.8227,-3.7313,-3.6575,-3.5752,-3.5583,-3.5092,-3.366,0.0,0.0,0.0,0.0,0.0,0.0,-2.6979,-2.5592,-2.5576,0.0,0.0,0.0,0.0,0.0,0.0,0.0,0.0,-2.998,-3.154,0.0,-3.5566,-3.7148,-3.8642,-4.0096,-4.0096,-4.0096,-4.0096,-4.0096,-4.0096,-4.0096,-4.0096,-4.0096,-4.0096,-4.0096,-4.0096,-4.0096,-4.0096,-4.0096,-4.0096,-4.0096,-4.0096,-4.0096,-3.513,-3.5175,-3.525,-3.5474,-3.5504,-3.5504,-3.5504,-3.5504,-3.5504,-3.5504,-3.5504,-3.5504,-3.5504,-3.5504,-3.5504,0.0,-3.5504,-3.5504,0.0,-3.5504,-3.5504,-3.5504,-3.5504,-3.5504,-3.5504,-3.5504,-3.507,-3.4158,0.0,0.0,0.0,-3.2629,-3.3417,-3.4577,-3.4691,-3.5367,-3.6459,-3.6261,-3.6628,-3.7417,-3.7417,-3.7767,-3.8278,-3.8096,-3.8379,-3.8892,-3.8701,-3.8756,-3.8947,-3.9152,-3.8947,-3.8546,-3.8362,-3.8574,-3.8903,-3.8903,-3.8903,-3.8903,-3.8903,-3.9348,-3.9799,-3.9799,-3.9969,-4.0096,-4.0096,-3.9309,-3.8464,-3.8007,-3.6891,-3.591,-3.565,-3.56,-3.5447,-3.4974,0.0,0.0,0.0,0.0,0.0,0.0,0.0,-2.6894,0.0,-2.659,0.0,0.0,0.0,0.0,0.0,0.0,0.0,0.0,-3.1959,0.0,-3.5583,-3.7131,-3.8642,-4.0096,-4.0096,-4.0096,-4.0096,-4.0096,-4.0096,-4.0096,-4.0096,-4.0096,-4.0096,-4.0096,-4.0096,-4.0096,-4.0096,-4.0096,-4.0096,-4.0096,-4.0096,-4.0096,-3.5504,-3.5504,-3.5504,-3.5504,-3.5504,-3.5504,-3.5504,-3.5504,-3.5504,-3.5504,-3.5504,-3.5504,-3.5504,-3.5504,0.0,-3.5504,-3.5504,0.0,-3.5504,-3.5504,-3.5504,-3.5504,-3.5504,-3.5504,-3.5504,0.0,0.0,-3.4861,-3.4849,-3.4592,-3.4181,-3.4255,-3.4728,-3.5584,-3.5491,-3.5937,-3.6739,-3.6569,-3.6723,-3.7074,-3.7298,-3.7637,-3.7982,-3.8193,-3.8546,-3.8865,-3.8865,-3.8865,-3.8892,-3.9109,-3.8947,-3.8684,-3.8903,-3.9242,-3.9444,-3.9001,-3.9028,-3.9206,-3.9206,-3.9644,-4.0096,-4.0096,-4.0096,-4.0096,-4.0096,-3.9157,-3.8227,-3.7973,-3.6924,-3.596,-3.565,-3.56,-3.56,-3.56,0.0,-3.3931,0.0,0.0,0.0,0.0,0.0,0.0,0.0,-2.8043,0.0,0.0,0.0,0.0,0.0,0.0,0.0,-2.9496,-3.3011,0.0,-3.6445,-3.7678,-3.8924,-4.0096,-4.0096,-4.0096,-4.0096,-4.0096,-4.0096,-4.0096,-4.0096,-4.0096,-4.0096,-4.0096,-4.0096,-4.0096,-4.0096,-4.0096,-4.0096,-4.0096,-4.0096,-4.0096,-3.5504,-3.5504,0.0,0.0,-3.5504,0.0,-3.5504,-3.5504,-3.5504,-3.5504,-3.5504,-3.5504,-3.5504,-3.5504,-3.5504,-3.5504,0.0,0.0,0.0,-3.5504,-3.5504,-3.5504,-3.5504,0.0,-3.5504,-3.5504,-3.5504,-3.5504,-3.5504,-3.5504,-3.5504,-3.5621,-3.5976,-3.6523,-3.6274,-3.6477,-3.7011,-3.6646,-3.6492,-3.6523,-3.7104,-3.7358,-3.746,-3.801,-3.825,-3.8306,-3.8306,-3.8278,-3.8306,-3.8892,-3.9071,-3.9162,-3.9747,-3.9927,-3.9756,-3.8739,-3.8821,-3.9259,-3.9259,-3.967,-4.0096,-4.0096,-4.0096,-4.0096,-4.0096,-3.9537,-3.8802,-3.8125,-3.7347,-3.6552,-3.5802,-3.5633,-3.5583,-3.5532,-3.4315,-3.3389,-3.3339,0.0,0.0,0.0,0.0,0.0,0.0,-2.9345,-2.9922,0.0,0.0,0.0,0.0,0.0,-3.0246,-3.2298,-3.4515,-3.6389,-3.7905,-3.8614,-3.9366,-4.0096,-4.0096,-4.0096,-4.0096,-4.0096,-4.0096,-4.0096,-4.0096,-4.0096,-4.0096,-4.0096,-4.0096,-4.0096,-4.0096,-4.0096,-4.0096,-4.0096,-4.0096,-4.0096,0.0,0.0,-3.5504,-3.5504,-3.5504,-3.5504,-3.5504,-3.5504,-3.5504,-3.5504,-3.5504,-3.5504,-3.5504,-3.5504,-3.5504,-3.5504,-3.5504,-3.5504,-3.5504,-3.5504,-3.5504,-3.5504,-3.5504,-3.5504,-3.5504,-3.5504,-3.5504,-3.5504,-3.5504,-3.5504,-3.5504,-3.5522,-3.5686,-3.5913,-3.5847,-3.5975,-3.6258,-3.6274,-3.6274,-3.6305,-3.66,-3.6983,-3.7417,-3.7549,-3.7895,-3.8306,-3.8306,-3.801,-3.7637,-3.7783,-3.7841,-3.7854,-3.7998,-3.8351,-3.8849,-3.9497,-3.9773,-3.9893,-3.9893,-3.9995,-4.0096,-4.0096,-4.0096,-4.0096,-4.0096,-3.9537,-3.8937,-3.8768,-3.7726,-3.6745,-3.6535,-3.6011,-3.5414,-3.4844,-3.3998,-3.3203,-3.2649,0.0,0.0,0.0,-3.0446,-3.0378,-2.9616,-3.0903,-3.1241,0.0,0.0,0.0,0.0,0.0,-3.2605,-3.3111,-3.5349,-3.6975,-3.7905,-3.8614,-3.9366,-4.0096,-4.0096,-4.0096,-4.0096,-4.0096,-4.0096,-4.0096,-4.0096,-4.0096,-4.0096,-4.0096,-4.0096,-4.0096,-4.0096,-4.0096,-4.0096,-4.0096,-4.0096,-4.0096,-3.5504,-3.5504,-3.5504,-3.5504,-3.5504,-3.5504,-3.5504,-3.5504,-3.5504,-3.5504,-3.5504,-3.5504,-3.5504,-3.5504,-3.5504,-3.5504,-3.5504,-3.5504,-3.5504,-3.5504,-3.5504,-3.5504,-3.5504,-3.5504,-3.5504,-3.5504,-3.5504,-3.5504,-3.5504,-3.5504,-3.5504,-3.5504,-3.5554,-3.5621,-3.5655,-3.5752,-3.5863,-3.6053,-3.6116,-3.6116,-3.6289,-3.6554,-3.6906,-3.7268,-3.7592,-3.7924,-3.8193,-3.8096,-3.7825,-3.7825,-3.7825,-3.7825,-3.7825,-3.8039,-3.8418,-3.9092,-3.9454,-3.9696,-3.9696,-3.9893,-4.0096,-4.0096,-4.0096,-4.0096,-4.0096,-3.9791,-3.9419,-3.9056,-3.8091,-3.7218,-3.6863,-3.6146,-3.5346,-3.4624,-3.388,-3.3136,-3.2412,-3.1309,0.0,-3.1072,-3.1464,-3.1664,-3.1613,-3.2628,-3.2831,-3.1678,0.0,0.0,-3.2723,-3.3789,-3.4409,-3.4416,-3.63,-3.7675,-3.8396,-3.9139,-3.9697,-4.0096,-4.0096,-4.0096,-4.0096,-4.0096,-4.0096,-4.0096,-4.0096,-4.0096,-4.0096,-4.0096,-4.0096,-4.0096,-4.0096,-4.0096,-4.0096,-4.0096,-4.0096,-4.0096,-3.5504,-3.5504,-3.5504,-3.5504,-3.5504,-3.5504,-3.5504,-3.5504,-3.5504,-3.5504,-3.5504,-3.5504,-3.5504,-3.5504,-3.5504,-3.5504,-3.5504,-3.5504,-3.5504,-3.5504,-3.5504,-3.5504,-3.5504,-3.5504,-3.5504,-3.5504,-3.5504,-3.5504,-3.5504,-3.5504,-3.5504,-3.5504,-3.5504,-3.5504,-3.5621,-3.5671,-3.5671,-3.5863,-3.5941,-3.5973,-3.6116,-3.6179,-3.6258,-3.6967,-3.7238,-3.7328,-3.7838,-3.8039,-3.8039,-3.8039,-3.8096,-3.8165,-3.8165,-3.8238,-3.8306,-3.8306,-3.8657,-3.9082,-3.9179,-3.9644,-4.0096,-4.0096,-4.0096,-4.0096,-4.0096,-4.0096,-3.9926,-3.9317,-3.8582,-3.7838,-3.7117,-3.6315,-3.5447,-3.4489,-3.3812,-3.3102,-3.2259,0.0,-3.1616,-3.2226,-3.2496,-3.2886,-3.3508,-3.4134,-3.4286,-3.3778,-3.4788,0.0,0.0,-3.5265,-3.5716,-3.5942,-3.7211,-3.8314,-3.9157,-3.9791,-4.0096,-4.0096,-4.0096,-4.0096,-4.0096,-4.0096,-4.0096,-4.0096,-4.0096,-4.0096,-4.0096,-4.0096,-4.0096,-4.0096,-4.0096,-4.0096,-4.0096,-4.0096,-4.0096,-4.0096,-3.5504,-3.5504,-3.5504,-3.5504,-3.5504,-3.5504,-3.5504,-3.5504,-3.5504,-3.5504,-3.5504,-3.5504,-3.5504,-3.5504,-3.5504,-3.5504,-3.5504,-3.5504,-3.5504,-3.5504,-3.5504,-3.5504,-3.5504,-3.5504,-3.5504,-3.5504,-3.5504,-3.5504,-3.5504,-3.5504,-3.5504,-3.5504,-3.5504,-3.5504,-3.5537,-3.5522,-3.5554,-3.5671,-3.5752,-3.5752,-3.5958,-3.6085,-3.6196,-3.6321,-3.6492,-3.6662,-3.6754,-3.6769,-3.6769,-3.6769,-3.7118,-3.7549,-3.7549,-3.7883,-3.8306,-3.8306,-3.8379,-3.8546,-3.9055,-3.9644,-4.0096,-4.0096,-4.0096,-4.0096,-4.0096,-4.0096,-4.0079,-3.996,-3.9326,-3.8599,-3.7872,-3.711,-3.5943,-3.3897,-3.3474,-3.2933,0.0,0.0,-3.2175,-3.2293,-3.341,-3.4201,-3.432,-3.4421,-3.4709,-3.5211,-3.4895,-3.4878,-3.5391,-3.5537,-3.6202,-3.7506,-3.7793,-3.8556,-3.9926,-4.0045,-4.0096,-4.0096,-4.0096,-4.0096,-4.0096,-4.0096,-4.0096,-4.0096,-4.0096,-4.0096,-4.0096,-4.0096,-4.0096,-4.0096,-4.0096,-4.0096,-4.0096,-4.0096,-4.0096,-4.0096,-3.5504,-3.5504,-3.5504,-3.5504,-3.5504,-3.5504,-3.5504,-3.5504,-3.5504,-3.5504,-3.5504,-3.5504,-3.5504,-3.5504,-3.5504,-3.5504,-3.5504,-3.5504,-3.5504,-3.5504,-3.5504,-3.5504,-3.5504,-3.5504,-3.5504,-3.5504,-3.5504,-3.5504,-3.5504,-3.5504,-3.5504,-3.5504,-3.5504,-3.5504,-3.5504,-3.5504,-3.5504,-3.5587,-3.5604,-3.5604,-3.5767,-3.5894,-3.5943,-3.6053,-3.6179,-3.6352,-3.6352,-3.6414,-3.6492,-3.6492,-3.6693,-3.6922,-3.6922,-3.7118,-3.7326,-3.7326,-3.801,-3.8865,-3.9109,-3.9644,-4.0096,-4.0096,-4.0096,-4.0096,-4.0096,-4.0096,-4.0096,-4.0096,-3.952,-3.8886,-3.8565,-3.7574,-3.6474,-3.5385,-3.4201,0.0,0.0,-3.2598,-3.2598,-3.3393,-3.4083,-3.4658,-3.5064,-3.5098,-3.5228,-3.5566,-3.5278,-3.525,-3.5583,-3.56,-3.6118,-3.7267,-3.8468,-3.9413,-4.0096,-4.0096,-4.0096,-4.0096,-4.0096,-4.0096,-4.0096,-4.0096,-4.0096,-4.0096,-4.0096,-4.0096,-4.0096,-4.0096,-4.0096,-4.0096,-4.0096,-4.0096,-4.0096,-4.0096,-4.0096,-4.0096,-3.5504,-3.5504,-3.5504,-3.5504,-3.5504,-3.5504,-3.5504,-3.5504,-3.5504,-3.5504,-3.5504,-3.5504,-3.5504,-3.5504,-3.5504,-3.5504,-3.5504,-3.5504,-3.5504,-3.5504,-3.5504,-3.5504,-3.5504,-3.5504,-3.5504,-3.5504,-3.5504,-3.5504,-3.5504,-3.5504,-3.5504,-3.5504,-3.5504,-3.5504,-3.5504,-3.5504,-3.5504,-3.5504,-3.5504,-3.5504,-3.5621,-3.5671,-3.572,-3.5863,-3.6022,-3.6148,-3.6179,-3.6305,-3.6445,-3.6492,-3.6492,-3.6492,-3.6492,-3.6492,-3.6492,-3.6492,-3.7562,-3.881,-3.8947,-3.9444,-3.9893,-3.9893,-3.9995,-4.0096,-4.0096,-4.0096,-4.0096,-4.0096,-3.9656,-3.9191,-3.9022,-3.8082,-3.7151,-3.6626,0.0,0.0,0.0,-3.3427,-3.3241,-3.4353,-3.4641,-3.4979,-3.5549,-3.56,-3.56,-3.56,-3.56,-3.56,-3.56,-3.56,-3.6039,-3.703,-3.8882,-3.9943,-4.0096,-4.0096,-4.0096,-4.0096,-4.0096,-4.0096,-4.0096,-4.0096,-4.0096,-4.0096,-4.0096,-4.0096,-4.0096,-4.0096,-4.0096,-4.0096,-4.0096,-4.0096,-4.0096,-4.0096,-4.0096,-4.0096,-3.5504,-3.5504,-3.5504,-3.5504,-3.5504,-3.5504,-3.5504,-3.5504,-3.5504,-3.5504,-3.5504,-3.5504,-3.5504,-3.5504,-3.5504,-3.5504,-3.5504,-3.5504,-3.5504,-3.5504,-3.5504,-3.5504,-3.5504,-3.5504,-3.5504,-3.5504,-3.5504,-3.5504,-3.5504,-3.5504,-3.5504,-3.5504,-3.5504,-3.5504,-3.5504,-3.5504,-3.5504,-3.5504,-3.5504,-3.5504,-3.5504,-3.5604,-3.5688,-3.572,-3.5831,-3.6037,-3.6148,-3.6211,-3.6242,-3.6445,-3.6492,-3.6492,-3.6492,-3.6492,-3.6492,-3.6492,-3.6983,-3.765,-3.821,-3.8794,-3.9259,-3.9259,-3.9696,-4.0096,-4.0096,-4.0096,-4.0096,-4.0096,-4.0062,-3.9808,-3.9123,-3.8903,-3.8142,-3.6022,0.0,0.0,-3.3677,-3.3981,-3.437,-3.4472,-3.5115,-3.5532,-3.5583,-3.56,-3.56,-3.56,-3.56,-3.56,-3.56,-3.56,-3.6299,-3.7753,-3.8633,-3.9419,-4.0096,-4.0096,-4.0096,-4.0096,-4.0096,-4.0096,-4.0096,-4.0096,-4.0096,-4.0096,-4.0096,-4.0096,-4.0096,-4.0096,-4.0096,-4.0096,-4.0096,-4.0096,-4.0096,-4.0096,-4.0096,-4.0096,-3.5504,-3.5504,-3.5504,-3.5504,-3.5504,-3.5504,-3.5504,-3.5504,-3.5504,-3.5504,-3.5504,-3.5504,-3.5504,-3.5504,-3.5504,-3.5504,-3.5504,-3.5504,-3.5504,-3.5504,-3.5504,-3.5504,-3.5504,-3.5504,-3.5504,-3.5504,-3.5504,-3.5504,-3.5504,-3.5504,-3.5504,-3.5504,-3.5504,-3.5504,-3.5504,-3.5504,-3.5504,-3.5504,-3.5504,-3.5504,-3.5504,-3.5522,-3.5572,-3.5572,-3.5765,-3.6005,-3.6068,-3.6226,-3.6383,-3.646,-3.6492,-3.6492,-3.6492,-3.6492,-3.6569,-3.6952,-3.7208,-3.7519,-3.8153,-3.8739,-3.9286,-3.967,-3.9944,-4.0096,-4.0096,-4.0096,-4.0096,-4.0096,-4.0096,-4.0011,-3.974,-3.9292,-3.8717,-3.7855,0.0,-3.5566,-3.552,-3.4934,-3.4675,-3.5131,-3.543,-3.56,-3.56,-3.56,-3.56,-3.56,-3.56,-3.56,-3.56,-3.56,-3.6107,-3.7171,-3.7919,-3.8886,-4.0096,-4.0096,-4.0096,-4.0096,-4.0096,-4.0096,-4.0096,-4.0096,-4.0096,-4.0096,-4.0096,-4.0096,-4.0096,-4.0096,-4.0096,-4.0096,-4.0096,-4.0096,-4.0096,-4.0096,-4.0096,-4.0096,-3.5504,-3.5504,-3.5504,-3.5504,-3.5504,-3.5504,-3.5504,-3.5504,-3.5504,-3.5504,-3.5504,-3.5504,-3.5504,-3.5504,-3.5504,-3.5504,-3.5504,-3.5504,-3.5504,-3.5504,-3.5504,-3.5504,-3.5504,-3.5504,-3.5504,-3.5504,-3.5504,-3.5504,-3.5504,-3.5504,-3.5504,-3.5504,-3.5504,-3.5504,-3.5504,-3.5504,-3.5504,-3.5504,-3.5504,-3.5504,-3.5504,-3.5504,-3.5504,-3.5504,-3.5651,-3.5861,-3.591,-3.6053,-3.6258,-3.6352,-3.6414,-3.6414,-3.6492,-3.6492,-3.6616,-3.7208,-3.7417,-3.7578,-3.8379,-3.8892,-3.9286,-3.9722,-3.9969,-4.0096,-4.0096,-4.0096,-4.0096,-4.0096,-4.0096,-4.0096,-4.0096,-3.969,-3.9191,-3.8717,-3.7347,-3.6366,-3.64,-3.5504,-3.503,-3.5532,-3.56,-3.56,-3.56,-3.56,-3.56,-3.56,-3.56,-3.56,-3.56,-3.56,-3.596,-3.6774,-3.7526,-3.8497,-3.974,-3.9994,-4.0096,-4.0096,-4.0096,-4.0096,-4.0096,-4.0096,-4.0096,-4.0096,-4.0096,-4.0096,-4.0096,-4.0096,-4.0096,-4.0096,-4.0096,-4.0096,-4.0096,-4.0096,-4.0096,-4.0096,-3.5504,-3.5504,-3.5504,-3.5504,-3.5504,-3.5504,-3.5504,-3.5504,-3.5504,-3.5504,-3.5504,-3.5504,-3.5504,-3.5504,-3.5504,-3.5504,-3.5504,-3.5504,-3.5504,-3.5504,-3.5504,-3.5504,-3.5504,-3.5504,-3.5504,-3.5504,-3.5504,-3.5504,-3.5504,-3.5504,-3.5504,-3.5504,-3.5504,-3.5504,-3.5504,-3.5504,-3.5504,-3.5504,-3.5504,-3.5504,-3.5504,-3.5504,-3.5504,-3.5504,-3.5504,-3.5537,-3.5638,-3.5688,-3.5752,-3.6085,-3.6196,-3.6242,-3.6414,-3.6492,-3.6616,-3.7208,-3.7417,-3.7666,-3.8865,-3.9206,-3.9206,-3.9206,-3.9644,-4.0096,-4.0096,-4.0096,-4.0096,-4.0096,-4.0096,-4.0096,-4.0096,-4.0096,-3.9622,-3.8159,-3.7905,-3.7358,-3.5819,-3.56,-3.56,-3.56,-3.56,-3.56,-3.56,-3.56,-3.56,-3.56,-3.56,-3.56,-3.56,-3.56,-3.596,-3.6774,-3.7509,-3.8261,-3.8971,-3.974,-4.0096,-4.0096,-4.0096,-4.0096,-4.0096,-4.0096,-4.0096,-4.0096,-4.0096,-4.0096,-4.0096,-4.0096,-4.0096,-4.0096,-4.0096,-4.0096,-4.0096,-4.0096,-4.0096,-4.0096,-3.5261,-3.5294,-3.5326,-3.5472,-3.5504,-3.5504,-3.5504,-3.5504,-3.5504,-3.5504,-3.5504,-3.5504,-3.5504,-3.5504,-3.5504,-3.5504,-3.5504,-3.5504,-3.5504,-3.5504,-3.5504,-3.5504,-3.5504,-3.5504,-3.5504,-3.5504,-3.5504,-3.5504,-3.5504,-3.5504,-3.5504,-3.5504,-3.5504,-3.5504,-3.5504,-3.5504,-3.5504,-3.5504,-3.5504,-3.5504,-3.5504,-3.5504,-3.5504,-3.5504,-3.5554,-3.5638,-3.5688,-3.5799,-3.5941,-3.6037,-3.6068,-3.61,-3.6242,-3.6274,-3.643,-3.7178,-3.7417,-3.7578,-3.8351,-3.8892,-3.9206,-3.9206,-3.9339,-3.947,-3.947,-3.947,-3.9592,-4.002,-4.0096,-4.0096,-4.0096,-4.0096,-3.9791,-3.8819,-3.8244,-3.7567,-3.6569,-3.596,-3.56,-3.56,-3.56,-3.56,-3.56,-3.56,-3.56,-3.56,-3.56,-3.56,-3.56,-3.56,-3.5707,-3.5943,-3.6711,-3.7466,-3.8227,-3.9462,-4.0096,-4.0096,-4.0096,-4.0096,-4.0096,-4.0096,-4.0096,-4.0096,-4.0096,-4.0096,-4.0096,-4.0096,-4.0096,-4.0096,-4.0096,-4.0096,-4.0096,-4.0096,-4.0096,-4.0096,-3.5082,-3.5082,-3.5148,-3.5359,-3.5359,-3.5407,-3.5504,-3.5504,-3.5504,-3.5504,-3.5504,-3.5504,-3.5504,-3.5504,-3.5504,-3.5504,-3.5504,-3.5504,-3.5504,-3.5504,-3.5504,-3.5504,-3.5504,-3.5504,-3.5504,-3.5504,-3.5504,-3.5504,-3.5504,-3.5504,-3.5504,-3.5504,-3.5504,-3.5504,-3.5504,-3.5504,-3.5504,-3.5504,-3.5504,-3.5504,-3.5504,-3.5504,-3.5504,-3.5504,-3.5554,-3.5621,-3.5621,-3.5686,-3.5797,-3.5863,-3.5958,-3.6085,-3.6179,-3.6242,-3.6461,-3.7178,-3.7417,-3.7519,-3.8153,-3.8739,-3.9098,-3.8618,-3.9028,-3.9566,-3.9566,-3.9566,-3.967,-4.002,-4.0096,-4.002,-3.9773,-3.9747,-3.9512,-3.8774,-3.8027,-3.7379,-3.6874,-3.6113,-3.56,-3.56,-3.56,-3.56,-3.56,-3.56,-3.56,-3.56,-3.56,-3.56,-3.56,-3.56,-3.56,-3.56,-3.6366,-3.7144,-3.7905,-3.9056,-3.9808,-4.0096,-4.0096,-4.0096,-4.0096,-4.0096,-4.0096,-4.0096,-4.0096,-4.0096,-4.0096,-4.0096,-4.0096,-4.0096,-4.0096,-4.0096,-4.0096,-4.0096,-4.0096,-4.0096,-3.4868,-3.4868,-3.4935,-3.5148,-3.518,-3.5261,-3.5439,-3.5472,-3.5472,-3.5504,-3.5504,-3.5504,-3.5504,-3.5504,-3.5504,-3.5504,-3.5504,-3.5504,-3.5504,-3.5504,-3.5504,-3.5504,-3.5504,-3.5504,-3.5504,-3.5504,-3.5504,-3.5504,-3.5504,-3.5504,-3.5504,-3.5504,-3.5504,-3.5504,-3.5504,-3.5504,-3.5504,-3.5504,-3.5504,-3.5504,-3.5504,-3.5504,-3.5504,-3.5504,-3.5504,-3.5504,-3.5504,-3.5504,-3.5537,-3.5638,-3.5911,-3.6164,-3.6196,-3.6352,-3.6569,-3.7148,-3.7328,-3.7431,-3.7982,-3.8574,-3.8783,-3.7666,-3.8684,-3.9927,-3.9876,-3.985,-3.9876,-3.9944,-3.9927,-3.9773,-3.9232,-3.9162,-3.8974,-3.8311,-3.7625,-3.7111,-3.6928,-3.6214,-3.5667,-3.56,-3.56,-3.56,-3.56,-3.56,-3.56,-3.56,-3.56,-3.56,-3.56,-3.56,-3.56,-3.56,-3.6315,-3.7043,-3.7787,-3.8531,-3.9292,-4.0096,-4.0096,-4.0096,-4.0096,-4.0096,-4.0096,-4.0096,-4.0096,-4.0096,-4.0096,-4.0096,-4.0096,-4.0096,-4.0096,-4.0096,-4.0096,-4.0096,-4.0096,-4.0096,-3.4731,-3.475,-3.4783,-3.4935,-3.4968,-3.5034,-3.5213,-3.5261,-3.5326,-3.5472,-3.5504,-3.5504,-3.5504,-3.5504,-3.5504,-3.5504,-3.5504,-3.5504,-3.5504,-3.5504,-3.5504,-3.5504,-3.5504,-3.5504,-3.5504,-3.5504,-3.5504,-3.5504,-3.5504,-3.5504,-3.5504,-3.5504,-3.5504,-3.5504,-3.5504,-3.5504,-3.5504,-3.5504,-3.5504,-3.5504,-3.5504,-3.5504,-3.5504,-3.5504,-3.5504,-3.5504,-3.5504,-3.5504,-3.5537,-3.5638,-3.5752,-3.5847,-3.6101,-3.6242,-3.6305,-3.66,-3.6693,-3.6723,-3.6861,-3.7312,-3.7725,-3.7476,-3.8039,-3.8574,-3.8096,-3.7998,-3.8124,-3.8601,-3.8695,-3.8657,-3.8518,-3.8892,-3.9156,-3.899,-3.8739,-3.8359,-3.7746,-3.7009,-3.6299,-3.5667,-3.56,-3.56,-3.56,-3.56,-3.56,-3.56,-3.56,-3.56,-3.56,-3.56,-3.56,-3.56,-3.5752,-3.6248,-3.7032,-3.777,-3.8802,-4.0096,-4.0096,-4.0096,-4.0096,-4.0096,-4.0096,-4.0096,-4.0096,-4.0096,-4.0096,-4.0096,-4.0096,-4.0096,-4.0096,-4.0096,-4.0096,-4.0096,-4.0096,-4.0096,-3.4549,-3.4563,-3.4616,-3.4783,-3.4817,-3.485,-3.5034,-3.5148,-3.5261,-3.5326,-3.5439,-3.5504,-3.5504,-3.5504,-3.5504,-3.5504,-3.5504,-3.5504,-3.5504,-3.5504,-3.5504,-3.5504,-3.5504,-3.5504,-3.5504,-3.5504,-3.5504,-3.5504,-3.5504,-3.5504,-3.5504,-3.5504,-3.5504,-3.5504,-3.5504,-3.5504,-3.5504,-3.5504,-3.5504,-3.5504,-3.5504,-3.5504,-3.5504,-3.5504,-3.5504,-3.5504,-3.5504,-3.5554,-3.5604,-3.5671,-3.5816,-3.5975,-3.6133,-3.6274,-3.6352,-3.646,-3.6492,-3.6492,-3.6492,-3.6952,-3.7328,-3.7043,-3.7431,-3.7854,-3.7854,-3.7825,-3.7982,-3.8601,-3.8739,-3.8739,-3.8739,-3.8974,-3.9206,-3.9206,-3.8844,-3.8547,-3.8456,-3.7483,-3.6643,-3.6214,-3.5819,-3.56,-3.56,-3.56,-3.56,-3.56,-3.56,-3.56,-3.56,-3.596,-3.6017,-3.56,-3.596,-3.6373,-3.6795,-3.7533,-3.8464,-3.9588,-3.9943,-4.0096,-4.0096,-4.0096,-4.0096,-4.0096,-4.0096,-4.0096,-4.0096,-4.0096,-4.0096,-4.0096,-4.0096,-4.0096,-4.0096,-4.0096,-4.0096,-4.0096,-3.4414,-3.4414,-3.4448,-3.4631,-3.4664,-3.4683,-3.4835,-3.5049,-3.5148,-3.518,-3.5359,-3.5504,-3.5504,-3.5504,-3.5504,-3.5504,-3.5504,-3.5504,-3.5504,-3.5504,-3.5504,-3.5504,-3.5504,-3.5504,-3.5504,-3.5504,-3.5504,-3.5504,-3.5504,-3.5504,-3.5504,-3.5504,-3.5504,-3.5504,-3.5504,-3.5504,-3.5504,-3.5504,-3.5504,-3.5504,-3.5504,-3.5504,-3.5504,-3.5504,-3.5504,-3.5504,-3.5504,-3.5572,-3.5671,-3.5688,-3.5879,-3.6101,-3.6133,-3.6289,-3.6429,-3.6445,-3.646,-3.646,-3.6492,-3.6861,-3.7148,-3.6754,-3.6952,-3.7431,-3.8153,-3.8222,-3.8294,-3.8783,-3.8974,-3.9055,-3.9055,-3.9109,-3.9206,-3.9206,-3.8771,-3.8571,-3.8956,-3.7963,-3.7083,-3.6829,-3.6096,-3.56,-3.56,-3.56,-3.56,-3.56,-3.56,-3.56,-3.56,-3.6231,-3.6277,-3.561,-3.626,-3.6593,-3.6592,-3.733,-3.8075,-3.8819,-3.9571,-3.9977,-4.0096,-4.0096,-4.0096,-4.0096,-4.0096,-4.0096,-4.0096,-4.0096,-4.0096,-4.0096,-4.0096,-4.0096,-4.0096,-4.0096,-4.0096,-4.0096,-3.4414,-3.4414,-3.4414,-3.4448,-3.4448,-3.4515,-3.4698,-3.485,-3.5001,-3.518,-3.5359,-3.5504,-3.5504,-3.5504,-3.5504,-3.5504,-3.5504,-3.5504,-3.5504,-3.5504,-3.5504,-3.5504,-3.5504,-3.5504,-3.5504,-3.5504,-3.5504,-3.5504,-3.5504,-3.5504,-3.5504,-3.5504,-3.5504,-3.5504,-3.5504,-3.5504,-3.5504,-3.5504,-3.5504,-3.5504,-3.5504,-3.5504,-3.5504,-3.5504,-3.5504,-3.5504,-3.5504,-3.5504,-3.5554,-3.5671,-3.572,-3.5784,-3.5958,-3.6037,-3.61,-3.6211,-3.6242,-3.6274,-3.646,-3.6554,-3.6723,-3.7178,-3.6952,-3.6922,-3.8039,-3.7911,-3.7549,-3.7637,-3.8039,-3.8418,-3.8418,-3.8865,-3.9206,-3.9206,-3.956,-3.9648,-3.9089,-3.8819,-3.8234,-3.6948,-3.6096,-3.56,-3.56,-3.56,-3.56,-3.56,-3.56,-3.56,-3.56,-3.569,-3.5723,-3.5602,-3.5716,-3.5757,-3.5752,-3.6552,-3.7313,-3.8075,-3.8802,-3.9486,-4.0096,-4.0096,-4.0096,-4.0096,-4.0096,-4.0096,-4.0096,-4.0096,-4.0096,-4.0096,-4.0096,-4.0096,-4.0096,-4.0096,-4.0096,-4.0096,-3.4414,-3.4414,-3.4414,-3.4414,-3.4414,-3.4414,-3.4515,-3.4683,-3.4817,-3.4898,-3.5162,-3.5326,-3.5326,-3.5439,-3.5504,-3.5504,-3.5504,-3.5504,-3.5504,-3.5504,-3.5504,-3.5504,-3.5504,-3.5504,-3.5504,-3.5504,-3.5504,-3.5504,-3.5504,-3.5504,-3.5504,-3.5504,-3.5504,-3.5504,-3.5504,-3.5504,-3.5504,-3.5504,-3.5504,-3.5504,-3.5504,-3.5504,-3.5504,-3.5504,-3.5504,-3.5504,-3.5504,-3.5554,-3.5621,-3.5688,-3.5752,-3.5863,-3.5973,-3.6005,-3.6037,-3.6148,-3.6196,-3.6242,-3.646,-3.6492,-3.6554,-3.6831,-3.6693,-3.6631,-3.7163,-3.7342,-3.7578,-3.8282,-3.8618,-3.8903,-3.9242,-3.9523,-3.9696,-3.9696,-3.9944,-3.9994,-3.9673,-3.9242,-3.8447,-3.6981,-3.6096,-3.56,-3.56,-3.56,-3.56,-3.56,-3.56,-3.56,-3.56,-3.6034,-3.6068,-3.5602,-3.6045,-3.6051,-3.56,-3.64,-3.6965,-3.728,-3.8024,-3.8988,-4.0096,-4.0096,-4.0096,-4.0096,-4.0096,-3.9876,-3.9537,-3.9943,-3.9859,-3.9537,-3.9943,-4.0096,-4.0096,-4.0096,-4.0096,-4.0096]}]]